Time,TemperatureF,DewpointF,PressureIn,WindDirection,WindDirectionDegrees,WindSpeedMPH,WindSpeedGustMPH,Humidity,HourlyPrecipIn,Conditions,Clouds,dailyrainin,SoftwareType,DateUTC
2013-03-18 00:00:00,64.4,59.6,29.79,NE,45,5.4,5.4,84,0.00,,,0.00,VWS V14.01,2013-03-18 05:00:00,
2013-03-18 00:01:00,64.4,59.6,29.80,NE,45,5.4,7.2,84,0.00,,,0.00,VWS V14.01,2013-03-18 05:01:00,
2013-03-18 00:02:00,64.4,59.6,29.80,NE,45,7.6,7.6,84,0.00,,,0.00,VWS V14.01,2013-03-18 05:02:00,
2013-03-18 00:03:00,64.4,59.6,29.80,NE,45,8.1,8.1,84,0.00,,,0.00,VWS V14.01,2013-03-18 05:03:00,
2013-03-18 00:04:00,64.4,59.6,29.80,NE,45,8.1,8.3,84,0.00,,,0.00,VWS V14.01,2013-03-18 05:04:00,
2013-03-18 00:05:00,64.4,59.6,29.79,NE,45,5.8,5.8,84,0.00,,,0.00,VWS V14.01,2013-03-18 05:05:00,
2013-03-18 00:06:00,64.4,59.6,29.80,NE,45,5.4,8.3,84,0.00,,,0.00,VWS V14.01,2013-03-18 05:06:00,
2013-03-18 00:07:00,64.2,59.5,29.80,NE,45,5.4,6.3,84,0.00,,,0.00,VWS V14.01,2013-03-18 05:07:00,
2013-03-18 00:08:00,64.4,59.6,29.80,NE,45,5.8,5.8,84,0.00,,,0.00,VWS V14.01,2013-03-18 05:08:00,
2013-03-18 00:09:00,64.2,59.5,29.80,NNE,22,6.3,6.3,84,0.00,,,0.00,VWS V14.01,2013-03-18 05:09:00,
2013-03-18 00:10:00,64.2,59.5,29.79,NNE,22,6.3,6.3,84,0.00,,,0.00,VWS V14.01,2013-03-18 05:10:00,
2013-03-18 00:11:00,64.2,59.5,29.80,NE,45,6.3,6.7,84,0.00,,,0.00,VWS V14.01,2013-03-18 05:11:00,
2013-03-18 00:12:00,64.2,59.5,29.80,North,0,5.4,8.3,84,0.00,,,0.00,VWS V14.01,2013-03-18 05:12:00,
2013-03-18 00:13:00,64.2,59.5,29.80,North,0,5.4,5.8,84,0.00,,,0.00,VWS V14.01,2013-03-18 05:13:00,
2013-03-18 00:15:00,64.2,59.5,29.79,NNE,22,6.3,6.3,84,0.00,,,0.00,VWS V14.01,2013-03-18 05:15:00,
2013-03-18 00:16:00,64.0,59.3,29.80,North,0,4.0,7.6,84,0.00,,,0.00,VWS V14.01,2013-03-18 05:16:00,
2013-03-18 00:17:00,64.0,59.3,29.80,North,0,6.3,6.3,84,0.00,,,0.00,VWS V14.01,2013-03-18 05:17:00,
2013-03-18 00:18:00,64.0,59.3,29.80,North,0,6.3,7.6,84,0.00,,,0.00,VWS V14.01,2013-03-18 05:18:00,
2013-03-18 00:19:00,64.0,59.3,29.80,North,0,5.8,7.2,84,0.00,,,0.00,VWS V14.01,2013-03-18 05:19:00,
2013-03-18 00:20:00,64.0,59.3,29.76,North,0,4.9,4.9,84,0.00,,,0.00,VWS V14.01,2013-03-18 05:20:00,
2013-03-18 00:21:00,64.0,59.3,29.76,North,0,3.6,5.4,84,0.00,,,0.00,VWS V14.01,2013-03-18 05:21:00,
2013-03-18 00:22:00,64.0,59.3,29.76,North,0,4.0,5.4,84,0.00,,,0.00,VWS V14.01,2013-03-18 05:22:00,
2013-03-18 00:23:00,64.0,59.3,29.76,North,0,6.3,6.3,84,0.00,,,0.00,VWS V14.01,2013-03-18 05:23:00,
2013-03-18 00:24:00,64.0,59.3,29.76,North,0,5.8,6.3,84,0.00,,,0.00,VWS V14.01,2013-03-18 05:24:00,
2013-03-18 00:25:00,64.0,59.3,29.76,North,0,4.0,4.0,84,0.00,,,0.00,VWS V14.01,2013-03-18 05:25:00,
2013-03-18 00:26:00,63.9,59.1,29.76,North,0,4.0,4.0,84,0.00,,,0.00,VWS V14.01,2013-03-18 05:26:00,
2013-03-18 00:27:00,63.9,59.1,29.76,North,0,4.0,5.8,84,0.00,,,0.00,VWS V14.01,2013-03-18 05:27:00,
2013-03-18 00:28:00,63.9,59.1,29.76,North,0,4.0,5.4,84,0.00,,,0.00,VWS V14.01,2013-03-18 05:28:00,
2013-03-18 00:29:00,63.9,59.1,29.76,North,0,4.9,6.3,84,0.00,,,0.00,VWS V14.01,2013-03-18 05:29:00,
2013-03-18 00:30:00,63.9,59.1,29.76,North,0,4.0,4.0,84,0.00,,,0.00,VWS V14.01,2013-03-18 05:30:00,
2013-03-18 00:31:00,63.9,59.1,29.76,North,0,3.6,4.9,84,0.00,,,0.00,VWS V14.01,2013-03-18 05:31:00,
2013-03-18 00:32:00,63.9,59.1,29.76,North,0,4.9,5.4,84,0.00,,,0.00,VWS V14.01,2013-03-18 05:32:00,
2013-03-18 00:33:00,63.9,59.1,29.76,North,0,5.4,5.4,84,0.00,,,0.00,VWS V14.01,2013-03-18 05:33:00,
2013-03-18 00:34:00,63.9,59.1,29.76,North,0,5.8,6.3,84,0.00,,,0.00,VWS V14.01,2013-03-18 05:34:00,
2013-03-18 00:35:00,63.9,59.1,29.76,North,0,5.8,5.8,84,0.00,,,0.00,VWS V14.01,2013-03-18 05:35:00,
2013-03-18 00:36:00,63.9,59.1,29.76,NNE,22,5.8,5.8,84,0.00,,,0.00,VWS V14.01,2013-03-18 05:36:00,
2013-03-18 00:37:00,63.9,59.1,29.76,NNE,22,4.0,5.8,84,0.00,,,0.00,VWS V14.01,2013-03-18 05:37:00,
2013-03-18 00:38:00,63.9,59.1,29.76,NNE,22,5.4,5.4,84,0.00,,,0.00,VWS V14.01,2013-03-18 05:38:00,
2013-03-18 00:39:00,63.9,59.1,29.76,NE,45,5.8,5.8,84,0.00,,,0.00,VWS V14.01,2013-03-18 05:39:00,
2013-03-18 00:40:00,63.9,59.1,29.76,NE,45,5.8,5.8,84,0.00,,,0.00,VWS V14.01,2013-03-18 05:40:00,
2013-03-18 00:41:00,63.9,59.1,29.76,NE,45,5.8,5.8,84,0.00,,,0.00,VWS V14.01,2013-03-18 05:41:00,
2013-03-18 00:42:00,63.9,59.1,29.76,NNE,22,4.9,5.8,84,0.00,,,0.00,VWS V14.01,2013-03-18 05:42:00,
2013-03-18 00:43:00,63.9,59.1,29.76,NNE,22,5.8,6.3,84,0.00,,,0.00,VWS V14.01,2013-03-18 05:43:00,
2013-03-18 00:44:00,63.9,59.1,29.76,NNE,22,6.3,6.7,84,0.00,,,0.00,VWS V14.01,2013-03-18 05:44:00,
2013-03-18 00:45:00,63.9,59.1,29.76,North,0,5.8,5.8,84,0.00,,,0.00,VWS V14.01,2013-03-18 05:45:00,
2013-03-18 00:46:00,63.9,59.1,29.76,NNE,22,5.8,6.3,84,0.00,,,0.00,VWS V14.01,2013-03-18 05:46:00,
2013-03-18 00:47:00,63.9,59.1,29.76,NE,45,5.8,5.8,84,0.00,,,0.00,VWS V14.01,2013-03-18 05:47:00,
2013-03-18 00:48:00,63.9,59.1,29.76,North,0,6.7,6.7,84,0.00,,,0.00,VWS V14.01,2013-03-18 05:48:00,
2013-03-18 00:49:00,63.9,59.1,29.76,NNE,22,4.9,8.1,84,0.00,,,0.00,VWS V14.01,2013-03-18 05:49:00,
2013-03-18 00:50:00,63.9,59.1,29.76,North,0,6.3,7.6,84,0.00,,,0.00,VWS V14.01,2013-03-18 05:50:00,
2013-03-18 00:51:00,63.9,59.1,29.76,North,0,8.1,8.1,84,0.00,,,0.00,VWS V14.01,2013-03-18 05:51:00,
2013-03-18 00:52:00,63.9,59.1,29.76,North,0,5.8,8.1,84,0.00,,,0.00,VWS V14.01,2013-03-18 05:52:00,
2013-03-18 00:53:00,63.9,59.1,29.76,North,0,4.0,5.8,84,0.00,,,0.00,VWS V14.01,2013-03-18 05:53:00,
2013-03-18 00:55:00,63.9,59.1,29.76,North,0,4.0,4.5,84,0.00,,,0.00,VWS V14.01,2013-03-18 05:55:00,
2013-03-18 00:56:00,63.7,58.9,29.76,North,0,4.0,4.5,84,0.00,,,0.00,VWS V14.01,2013-03-18 05:56:00,
2013-03-18 00:57:00,63.7,58.9,29.76,North,0,4.0,5.8,84,0.00,,,0.00,VWS V14.01,2013-03-18 05:57:00,
2013-03-18 00:58:00,63.7,58.9,29.76,North,0,4.0,5.4,84,0.00,,,0.00,VWS V14.01,2013-03-18 05:58:00,
2013-03-18 00:59:00,63.7,58.9,29.76,North,0,3.1,4.0,84,0.00,,,0.00,VWS V14.01,2013-03-18 05:59:00,
2013-03-18 01:00:00,63.7,58.9,29.76,North,0,4.9,4.9,84,0.00,,,0.00,VWS V14.01,2013-03-18 06:00:00,
2013-03-18 01:01:00,63.7,58.9,29.76,North,0,4.0,4.9,84,0.00,,,0.00,VWS V14.01,2013-03-18 06:01:00,
2013-03-18 01:02:00,63.7,58.9,29.76,North,0,4.0,4.0,84,0.00,,,0.00,VWS V14.01,2013-03-18 06:02:00,
2013-03-18 01:03:00,63.7,58.9,29.76,North,0,5.4,5.4,84,0.00,,,0.00,VWS V14.01,2013-03-18 06:03:00,
2013-03-18 01:04:00,63.7,58.9,29.76,North,0,4.0,5.4,84,0.00,,,0.00,VWS V14.01,2013-03-18 06:04:00,
2013-03-18 01:05:00,63.7,58.9,29.76,North,0,4.0,4.0,84,0.00,,,0.00,VWS V14.01,2013-03-18 06:05:00,
2013-03-18 01:06:00,63.7,58.9,29.76,North,0,3.6,4.0,84,0.00,,,0.00,VWS V14.01,2013-03-18 06:06:00,
2013-03-18 01:07:00,63.7,58.9,29.76,North,0,2.7,3.6,84,0.00,,,0.00,VWS V14.01,2013-03-18 06:07:00,
2013-03-18 01:08:00,63.7,58.9,29.76,North,0,3.6,3.6,84,0.00,,,0.00,VWS V14.01,2013-03-18 06:08:00,
2013-03-18 01:09:00,63.7,58.9,29.76,North,0,3.1,3.6,84,0.00,,,0.00,VWS V14.01,2013-03-18 06:09:00,
2013-03-18 01:10:00,63.7,58.9,29.76,North,0,0.0,0.0,84,0.00,,,0.00,VWS V14.01,2013-03-18 06:10:00,
2013-03-18 01:11:00,63.7,58.9,29.76,North,0,2.7,2.7,84,0.00,,,0.00,VWS V14.01,2013-03-18 06:11:00,
2013-03-18 01:12:00,63.7,58.9,29.76,North,0,4.5,4.5,84,0.00,,,0.00,VWS V14.01,2013-03-18 06:12:00,
2013-03-18 01:13:00,63.7,58.9,29.76,North,0,2.7,4.5,84,0.00,,,0.00,VWS V14.01,2013-03-18 06:13:00,
2013-03-18 01:14:00,63.7,58.9,29.76,North,0,3.6,3.6,84,0.00,,,0.00,VWS V14.01,2013-03-18 06:14:00,
2013-03-18 01:15:00,63.7,58.9,29.76,North,0,3.6,4.0,84,0.00,,,0.00,VWS V14.01,2013-03-18 06:15:00,
2013-03-18 01:16:00,63.7,58.9,29.76,North,0,3.6,4.5,84,0.00,,,0.00,VWS V14.01,2013-03-18 06:16:00,
2013-03-18 01:17:00,63.7,58.9,29.76,North,0,3.1,3.6,84,0.00,,,0.00,VWS V14.01,2013-03-18 06:17:00,
2013-03-18 01:18:00,63.7,58.9,29.76,North,0,3.6,4.0,84,0.00,,,0.00,VWS V14.01,2013-03-18 06:18:00,
2013-03-18 01:19:00,63.7,58.9,29.76,North,0,4.0,5.4,84,0.00,,,0.00,VWS V14.01,2013-03-18 06:19:00,
2013-03-18 01:20:00,63.7,58.9,29.76,North,0,3.6,4.0,84,0.00,,,0.00,VWS V14.01,2013-03-18 06:20:00,
2013-03-18 01:21:00,63.7,58.9,29.76,North,0,4.0,4.9,84,0.00,,,0.00,VWS V14.01,2013-03-18 06:21:00,
2013-03-18 01:22:00,63.7,58.9,29.76,North,0,4.0,4.9,84,0.00,,,0.00,VWS V14.01,2013-03-18 06:22:00,
2013-03-18 01:23:00,63.5,58.8,29.76,North,0,4.9,5.4,84,0.00,,,0.00,VWS V14.01,2013-03-18 06:23:00,
2013-03-18 01:24:00,63.5,58.8,29.76,North,0,3.1,4.9,84,0.00,,,0.00,VWS V14.01,2013-03-18 06:24:00,
2013-03-18 01:25:00,63.5,58.8,29.76,North,0,3.1,3.1,84,0.00,,,0.00,VWS V14.01,2013-03-18 06:25:00,
2013-03-18 01:26:00,63.5,58.8,29.76,North,0,2.7,3.1,84,0.00,,,0.00,VWS V14.01,2013-03-18 06:26:00,
2013-03-18 01:27:00,63.5,58.8,29.76,North,0,3.6,3.6,84,0.00,,,0.00,VWS V14.01,2013-03-18 06:27:00,
2013-03-18 01:28:00,63.5,58.8,29.76,North,0,3.6,3.6,84,0.00,,,0.00,VWS V14.01,2013-03-18 06:28:00,
2013-03-18 01:29:00,63.5,58.8,29.76,North,0,2.2,4.0,84,0.00,,,0.00,VWS V14.01,2013-03-18 06:29:00,
2013-03-18 01:30:00,63.5,58.8,29.76,North,0,0.0,0.0,84,0.00,,,0.00,VWS V14.01,2013-03-18 06:30:00,
2013-03-18 01:31:00,63.5,58.8,29.76,North,0,2.2,3.1,84,0.00,,,0.00,VWS V14.01,2013-03-18 06:31:00,
2013-03-18 01:32:00,63.5,58.8,29.76,North,0,5.8,5.8,84,0.00,,,0.00,VWS V14.01,2013-03-18 06:32:00,
2013-03-18 01:33:00,63.5,58.8,29.76,North,0,3.1,5.8,84,0.00,,,0.00,VWS V14.01,2013-03-18 06:33:00,
2013-03-18 01:34:00,63.5,58.8,29.76,North,0,4.0,4.0,84,0.00,,,0.00,VWS V14.01,2013-03-18 06:34:00,
2013-03-18 01:35:00,63.5,58.8,29.74,North,0,4.5,4.5,84,0.00,,,0.00,VWS V14.01,2013-03-18 06:35:00,
2013-03-18 01:36:00,63.3,58.6,29.74,North,0,3.6,4.5,84,0.00,,,0.00,VWS V14.01,2013-03-18 06:36:00,
2013-03-18 01:37:00,63.3,58.6,29.74,North,0,3.6,3.6,84,0.00,,,0.00,VWS V14.01,2013-03-18 06:37:00,
2013-03-18 01:38:00,63.3,58.6,29.74,North,0,3.1,3.6,84,0.00,,,0.00,VWS V14.01,2013-03-18 06:38:00,
2013-03-18 01:39:00,63.3,58.6,29.74,North,0,2.2,3.1,84,0.00,,,0.00,VWS V14.01,2013-03-18 06:39:00,
2013-03-18 01:40:00,63.3,58.6,29.74,North,0,4.0,4.0,84,0.00,,,0.00,VWS V14.01,2013-03-18 06:40:00,
2013-03-18 01:41:00,63.3,58.6,29.74,North,0,2.2,4.0,84,0.00,,,0.00,VWS V14.01,2013-03-18 06:41:00,
2013-03-18 01:42:00,63.3,58.6,29.74,North,0,3.1,3.1,84,0.00,,,0.00,VWS V14.01,2013-03-18 06:42:00,
2013-03-18 01:43:00,63.3,58.6,29.74,North,0,2.7,3.1,84,0.00,,,0.00,VWS V14.01,2013-03-18 06:43:00,
2013-03-18 01:44:00,63.3,58.6,29.74,North,0,3.1,3.1,84,0.00,,,0.00,VWS V14.01,2013-03-18 06:44:00,
2013-03-18 01:45:00,63.3,58.6,29.74,North,0,4.5,4.5,84,0.00,,,0.00,VWS V14.01,2013-03-18 06:45:00,
2013-03-18 01:46:00,63.3,58.6,29.74,North,0,4.9,5.8,84,0.00,,,0.00,VWS V14.01,2013-03-18 06:46:00,
2013-03-18 01:47:00,63.1,58.4,29.74,North,0,3.6,4.9,84,0.00,,,0.00,VWS V14.01,2013-03-18 06:47:00,
2013-03-18 01:48:00,63.1,58.4,29.74,North,0,5.4,5.4,84,0.00,,,0.00,VWS V14.01,2013-03-18 06:48:00,
2013-03-18 01:49:00,63.1,58.4,29.74,North,0,4.0,5.4,84,0.00,,,0.00,VWS V14.01,2013-03-18 06:49:00,
2013-03-18 01:50:00,63.1,58.4,29.74,North,0,4.9,5.4,84,0.00,,,0.00,VWS V14.01,2013-03-18 06:50:00,
2013-03-18 01:51:00,63.1,58.4,29.74,North,0,4.0,5.4,84,0.00,,,0.00,VWS V14.01,2013-03-18 06:51:00,
2013-03-18 01:52:00,63.1,58.4,29.74,North,0,4.9,4.9,84,0.00,,,0.00,VWS V14.01,2013-03-18 06:52:00,
2013-03-18 01:53:00,63.1,58.4,29.76,North,0,3.1,5.8,84,0.00,,,0.00,VWS V14.01,2013-03-18 06:53:00,
2013-03-18 01:54:00,63.1,58.4,29.76,North,0,5.8,5.8,84,0.00,,,0.00,VWS V14.01,2013-03-18 06:54:00,
2013-03-18 01:55:00,63.1,58.4,29.76,North,0,5.8,5.8,84,0.00,,,0.00,VWS V14.01,2013-03-18 06:55:00,
2013-03-18 01:56:00,63.1,58.4,29.76,NNE,22,5.8,6.3,84,0.00,,,0.00,VWS V14.01,2013-03-18 06:56:00,
2013-03-18 01:57:00,63.1,58.4,29.76,NNE,22,4.9,5.8,84,0.00,,,0.00,VWS V14.01,2013-03-18 06:57:00,
2013-03-18 01:58:00,63.1,58.4,29.76,NE,45,5.4,5.4,84,0.00,,,0.00,VWS V14.01,2013-03-18 06:58:00,
2013-03-18 01:59:00,63.1,58.4,29.76,NE,45,5.8,5.8,84,0.00,,,0.00,VWS V14.01,2013-03-18 06:59:00,
2013-03-18 02:00:00,63.1,58.4,29.76,NE,45,4.9,4.9,84,0.00,,,0.00,VWS V14.01,2013-03-18 07:00:00,
2013-03-18 02:01:00,63.1,58.4,29.76,NE,45,4.0,4.9,84,0.00,,,0.00,VWS V14.01,2013-03-18 07:01:00,
2013-03-18 02:02:00,63.1,58.4,29.76,NE,45,4.9,4.9,84,0.00,,,0.00,VWS V14.01,2013-03-18 07:02:00,
2013-03-18 02:03:00,63.1,58.4,29.76,NE,45,4.0,4.9,84,0.00,,,0.00,VWS V14.01,2013-03-18 07:03:00,
2013-03-18 02:05:00,63.1,58.4,29.76,NE,45,5.4,5.4,84,0.00,,,0.00,VWS V14.01,2013-03-18 07:05:00,
2013-03-18 02:06:00,63.1,58.4,29.76,NE,45,5.8,7.2,84,0.00,,,0.00,VWS V14.01,2013-03-18 07:06:00,
2013-03-18 02:07:00,63.1,58.4,29.76,NE,45,4.9,5.8,84,0.00,,,0.00,VWS V14.01,2013-03-18 07:07:00,
2013-03-18 02:08:00,63.1,58.4,29.76,NE,45,5.4,7.2,84,0.00,,,0.00,VWS V14.01,2013-03-18 07:08:00,
2013-03-18 02:09:00,63.1,58.4,29.76,NE,45,5.4,5.4,84,0.00,,,0.00,VWS V14.01,2013-03-18 07:09:00,
2013-03-18 02:10:00,63.1,58.4,29.76,NE,45,5.4,5.4,84,0.00,,,0.00,VWS V14.01,2013-03-18 07:10:00,
2013-03-18 02:11:00,63.1,58.4,29.76,NE,45,5.4,5.4,84,0.00,,,0.00,VWS V14.01,2013-03-18 07:11:00,
2013-03-18 02:12:00,63.1,58.4,29.76,NE,45,5.4,5.4,84,0.00,,,0.00,VWS V14.01,2013-03-18 07:12:00,
2013-03-18 02:13:00,63.1,58.4,29.76,NE,45,5.4,5.4,84,0.00,,,0.00,VWS V14.01,2013-03-18 07:13:00,
2013-03-18 02:14:00,63.1,58.4,29.76,NE,45,5.4,5.4,84,0.00,,,0.00,VWS V14.01,2013-03-18 07:14:00,
2013-03-18 02:15:00,63.1,58.4,29.76,NE,45,5.4,5.4,84,0.00,,,0.00,VWS V14.01,2013-03-18 07:15:00,
2013-03-18 02:16:00,63.1,58.4,29.76,NE,45,5.4,5.4,84,0.00,,,0.00,VWS V14.01,2013-03-18 07:16:00,
2013-03-18 02:17:00,63.0,58.2,29.76,ENE,68,8.3,8.3,84,0.00,,,0.00,VWS V14.01,2013-03-18 07:17:00,
2013-03-18 02:18:00,63.0,58.2,29.76,NE,45,8.3,8.3,84,0.00,,,0.00,VWS V14.01,2013-03-18 07:18:00,
2013-03-18 02:19:00,63.0,58.2,29.76,NE,45,7.6,8.3,84,0.00,,,0.00,VWS V14.01,2013-03-18 07:19:00,
2013-03-18 02:20:00,63.0,58.2,29.76,NE,45,5.8,5.8,84,0.00,,,0.00,VWS V14.01,2013-03-18 07:20:00,
2013-03-18 02:21:00,63.0,58.2,29.76,NE,45,3.6,5.8,84,0.00,,,0.00,VWS V14.01,2013-03-18 07:21:00,
2013-03-18 02:22:00,63.0,58.2,29.76,NE,45,4.0,4.0,84,0.00,,,0.00,VWS V14.01,2013-03-18 07:22:00,
2013-03-18 02:23:00,63.0,58.2,29.76,ENE,68,4.9,4.9,84,0.00,,,0.00,VWS V14.01,2013-03-18 07:23:00,
2013-03-18 02:24:00,63.0,58.2,29.76,NE,45,5.8,6.7,84,0.00,,,0.00,VWS V14.01,2013-03-18 07:24:00,
2013-03-18 02:25:00,63.0,58.2,29.76,NE,45,4.0,5.8,84,0.00,,,0.00,VWS V14.01,2013-03-18 07:25:00,
2013-03-18 02:26:00,63.0,58.2,29.76,NE,45,4.9,5.4,84,0.00,,,0.00,VWS V14.01,2013-03-18 07:26:00,
2013-03-18 02:27:00,63.0,58.2,29.76,ENE,68,6.3,6.7,84,0.00,,,0.00,VWS V14.01,2013-03-18 07:27:00,
2013-03-18 02:28:00,63.0,58.2,29.76,NE,45,8.7,8.7,84,0.00,,,0.00,VWS V14.01,2013-03-18 07:28:00,
2013-03-18 02:29:00,63.0,58.2,29.76,NE,45,7.2,8.7,84,0.00,,,0.00,VWS V14.01,2013-03-18 07:29:00,
2013-03-18 02:30:00,63.0,58.2,29.76,NE,45,6.7,6.7,84,0.00,,,0.00,VWS V14.01,2013-03-18 07:30:00,
2013-03-18 02:31:00,63.0,58.2,29.76,NE,45,5.4,7.6,84,0.00,,,0.00,VWS V14.01,2013-03-18 07:31:00,
2013-03-18 02:32:00,63.0,58.2,29.76,NE,45,8.3,8.3,84,0.00,,,0.00,VWS V14.01,2013-03-18 07:32:00,
2013-03-18 02:33:00,63.0,58.2,29.76,NE,45,8.1,9.6,84,0.00,,,0.00,VWS V14.01,2013-03-18 07:33:00,
2013-03-18 02:34:00,63.0,58.2,29.76,NE,45,7.6,8.7,84,0.00,,,0.00,VWS V14.01,2013-03-18 07:34:00,
2013-03-18 02:35:00,63.0,58.2,29.76,ENE,68,8.3,8.3,84,0.00,,,0.00,VWS V14.01,2013-03-18 07:35:00,
2013-03-18 02:36:00,63.0,58.2,29.76,NE,45,7.6,8.3,84,0.00,,,0.00,VWS V14.01,2013-03-18 07:36:00,
2013-03-18 02:37:00,63.0,58.2,29.76,NE,45,5.8,7.6,84,0.00,,,0.00,VWS V14.01,2013-03-18 07:37:00,
2013-03-18 02:38:00,63.0,58.2,29.76,ENE,68,8.1,8.3,84,0.00,,,0.00,VWS V14.01,2013-03-18 07:38:00,
2013-03-18 02:39:00,63.0,58.2,29.76,NE,45,7.6,8.1,84,0.00,,,0.00,VWS V14.01,2013-03-18 07:39:00,
2013-03-18 02:40:00,63.0,58.2,29.76,NE,45,6.3,6.3,84,0.00,,,0.00,VWS V14.01,2013-03-18 07:40:00,
2013-03-18 02:41:00,63.0,58.2,29.76,NE,45,7.2,7.2,84,0.00,,,0.00,VWS V14.01,2013-03-18 07:41:00,
2013-03-18 02:42:00,63.0,58.2,29.76,NE,45,5.8,7.2,84,0.00,,,0.00,VWS V14.01,2013-03-18 07:42:00,
2013-03-18 02:43:00,63.0,58.2,29.76,NE,45,3.1,5.8,84,0.00,,,0.00,VWS V14.01,2013-03-18 07:43:00,
2013-03-18 02:44:00,63.0,58.2,29.76,ENE,68,5.8,5.8,84,0.00,,,0.00,VWS V14.01,2013-03-18 07:44:00,
2013-03-18 02:45:00,63.0,58.2,29.76,ENE,68,6.7,6.7,84,0.00,,,0.00,VWS V14.01,2013-03-18 07:45:00,
2013-03-18 02:46:00,63.0,58.2,29.76,ENE,68,4.9,6.7,84,0.00,,,0.00,VWS V14.01,2013-03-18 07:46:00,
2013-03-18 02:47:00,63.0,58.2,29.76,NE,45,7.2,8.1,84,0.00,,,0.00,VWS V14.01,2013-03-18 07:47:00,
2013-03-18 02:48:00,63.0,58.2,29.76,NE,45,8.7,8.7,84,0.00,,,0.00,VWS V14.01,2013-03-18 07:48:00,
2013-03-18 02:49:00,63.0,58.2,29.76,NE,45,8.7,8.7,84,0.00,,,0.00,VWS V14.01,2013-03-18 07:49:00,
2013-03-18 02:50:00,62.8,58.0,29.79,ENE,68,7.6,7.6,84,0.00,,,0.00,VWS V14.01,2013-03-18 07:50:00,
2013-03-18 02:51:00,62.8,58.0,29.80,NE,45,5.4,7.6,84,0.00,,,0.00,VWS V14.01,2013-03-18 07:51:00,
2013-03-18 02:52:00,62.8,58.0,29.80,NE,45,7.6,7.6,84,0.00,,,0.00,VWS V14.01,2013-03-18 07:52:00,
2013-03-18 02:53:00,62.8,58.0,29.80,NE,45,4.0,7.6,84,0.00,,,0.00,VWS V14.01,2013-03-18 07:53:00,
2013-03-18 02:54:00,62.8,58.0,29.80,NE,45,5.8,5.8,84,0.00,,,0.00,VWS V14.01,2013-03-18 07:54:00,
2013-03-18 02:55:00,62.8,58.0,29.79,NE,45,4.9,4.9,84,0.00,,,0.00,VWS V14.01,2013-03-18 07:55:00,
2013-03-18 02:56:00,62.8,58.0,29.80,NE,45,6.3,7.2,84,0.00,,,0.00,VWS V14.01,2013-03-18 07:56:00,
2013-03-18 02:57:00,62.8,58.0,29.80,NE,45,5.4,7.6,84,0.00,,,0.00,VWS V14.01,2013-03-18 07:57:00,
2013-03-18 02:58:00,62.8,58.0,29.80,NE,45,3.1,5.8,84,0.00,,,0.00,VWS V14.01,2013-03-18 07:58:00,
2013-03-18 02:59:00,62.6,57.9,29.80,NE,45,5.4,6.3,84,0.00,,,0.00,VWS V14.01,2013-03-18 07:59:00,
2013-03-18 03:00:00,62.6,57.9,29.79,NE,45,4.0,4.5,84,0.00,,,0.00,VWS V14.01,2013-03-18 08:00:00,
2013-03-18 03:01:00,62.6,57.9,29.80,NE,45,4.0,4.5,84,0.00,,,0.00,VWS V14.01,2013-03-18 08:01:00,
2013-03-18 03:02:00,62.6,57.9,29.80,NE,45,4.9,4.9,84,0.00,,,0.00,VWS V14.01,2013-03-18 08:02:00,
2013-03-18 03:03:00,62.6,57.9,29.80,NE,45,4.9,4.9,84,0.00,,,0.00,VWS V14.01,2013-03-18 08:03:00,
2013-03-18 03:04:00,62.6,57.9,29.80,NE,45,4.9,4.9,84,0.00,,,0.00,VWS V14.01,2013-03-18 08:04:00,
2013-03-18 03:05:00,62.6,57.9,29.79,NE,45,4.9,4.9,84,0.00,,,0.00,VWS V14.01,2013-03-18 08:05:00,
2013-03-18 03:06:00,62.6,57.9,29.80,NE,45,4.0,4.9,84,0.00,,,0.00,VWS V14.01,2013-03-18 08:06:00,
2013-03-18 03:07:00,62.6,57.9,29.80,NE,45,4.0,4.9,84,0.00,,,0.00,VWS V14.01,2013-03-18 08:07:00,
2013-03-18 03:08:00,62.6,57.9,29.80,NE,45,2.7,4.0,84,0.00,,,0.00,VWS V14.01,2013-03-18 08:08:00,
2013-03-18 03:09:00,62.6,57.9,29.80,NE,45,3.1,3.6,84,0.00,,,0.00,VWS V14.01,2013-03-18 08:09:00,
2013-03-18 03:10:00,62.6,57.9,29.79,NE,45,3.1,3.6,84,0.00,,,0.00,VWS V14.01,2013-03-18 08:10:00,
2013-03-18 03:11:00,62.6,57.9,29.80,NE,45,2.7,3.6,84,0.00,,,0.00,VWS V14.01,2013-03-18 08:11:00,
2013-03-18 03:12:00,62.6,57.9,29.80,NE,45,4.0,4.0,84,0.00,,,0.00,VWS V14.01,2013-03-18 08:12:00,
2013-03-18 03:13:00,62.6,57.9,29.80,NE,45,4.5,4.9,84,0.00,,,0.00,VWS V14.01,2013-03-18 08:13:00,
2013-03-18 03:14:00,62.6,57.9,29.80,NE,45,4.0,4.5,84,0.00,,,0.00,VWS V14.01,2013-03-18 08:14:00,
2013-03-18 03:15:00,62.6,57.9,29.79,NE,45,2.2,2.2,84,0.00,,,0.00,VWS V14.01,2013-03-18 08:15:00,
2013-03-18 03:16:00,62.6,57.9,29.80,NE,45,0.0,3.1,84,0.00,,,0.00,VWS V14.01,2013-03-18 08:16:00,
2013-03-18 03:17:00,62.6,57.9,29.80,NE,45,0.0,0.0,84,0.00,,,0.00,VWS V14.01,2013-03-18 08:17:00,
2013-03-18 03:18:00,62.6,57.9,29.80,NE,45,0.0,0.0,84,0.00,,,0.00,VWS V14.01,2013-03-18 08:18:00,
2013-03-18 03:19:00,62.4,57.7,29.80,NE,45,2.2,3.1,84,0.00,,,0.00,VWS V14.01,2013-03-18 08:19:00,
2013-03-18 03:20:00,62.4,57.7,29.79,NE,45,3.6,3.6,84,0.00,,,0.00,VWS V14.01,2013-03-18 08:20:00,
2013-03-18 03:21:00,62.4,57.7,29.76,NE,45,3.6,3.6,84,0.00,,,0.00,VWS V14.01,2013-03-18 08:21:00,
2013-03-18 03:22:00,62.4,57.7,29.76,NE,45,3.6,3.6,84,0.00,,,0.00,VWS V14.01,2013-03-18 08:22:00,
2013-03-18 03:23:00,62.4,57.7,29.76,NE,45,0.0,3.6,84,0.00,,,0.00,VWS V14.01,2013-03-18 08:23:00,
2013-03-18 03:24:00,62.4,57.7,29.76,NE,45,2.2,2.2,84,0.00,,,0.00,VWS V14.01,2013-03-18 08:24:00,
2013-03-18 03:25:00,62.4,57.7,29.76,NE,45,0.0,2.2,84,0.00,,,0.00,VWS V14.01,2013-03-18 08:25:00,
2013-03-18 03:26:00,62.4,57.7,29.76,NE,45,0.0,0.0,84,0.00,,,0.00,VWS V14.01,2013-03-18 08:26:00,
2013-03-18 03:27:00,62.4,57.7,29.76,NE,45,0.0,0.0,84,0.00,,,0.00,VWS V14.01,2013-03-18 08:27:00,
2013-03-18 03:28:00,62.4,57.7,29.76,NE,45,0.0,0.0,84,0.00,,,0.00,VWS V14.01,2013-03-18 08:28:00,
2013-03-18 03:29:00,62.4,57.7,29.76,NE,45,0.0,0.0,84,0.00,,,0.00,VWS V14.01,2013-03-18 08:29:00,
2013-03-18 03:30:00,62.4,57.7,29.76,NE,45,0.0,0.0,84,0.00,,,0.00,VWS V14.01,2013-03-18 08:30:00,
2013-03-18 03:31:00,62.4,57.7,29.76,NE,45,0.0,0.0,84,0.00,,,0.00,VWS V14.01,2013-03-18 08:31:00,
2013-03-18 03:32:00,62.4,57.7,29.76,NE,45,0.0,0.0,84,0.00,,,0.00,VWS V14.01,2013-03-18 08:32:00,
2013-03-18 03:33:00,62.4,57.7,29.76,NE,45,0.0,0.0,84,0.00,,,0.00,VWS V14.01,2013-03-18 08:33:00,
2013-03-18 03:34:00,62.4,57.7,29.76,NE,45,0.0,0.0,84,0.00,,,0.00,VWS V14.01,2013-03-18 08:34:00,
2013-03-18 03:35:00,62.4,57.7,29.76,NE,45,0.0,0.0,84,0.00,,,0.00,VWS V14.01,2013-03-18 08:35:00,
2013-03-18 03:36:00,62.4,57.7,29.76,NE,45,2.2,2.7,84,0.00,,,0.00,VWS V14.01,2013-03-18 08:36:00,
2013-03-18 03:37:00,62.4,57.7,29.76,NE,45,0.0,2.2,84,0.00,,,0.00,VWS V14.01,2013-03-18 08:37:00,
2013-03-18 03:38:00,62.4,57.7,29.76,NE,45,0.0,0.0,84,0.00,,,0.00,VWS V14.01,2013-03-18 08:38:00,
2013-03-18 03:39:00,62.4,57.7,29.76,NE,45,0.0,0.0,84,0.00,,,0.00,VWS V14.01,2013-03-18 08:39:00,
2013-03-18 03:40:00,62.4,57.7,29.76,NE,45,0.0,0.0,84,0.00,,,0.00,VWS V14.01,2013-03-18 08:40:00,
2013-03-18 03:41:00,62.4,57.7,29.76,NE,45,0.0,0.0,84,0.00,,,0.00,VWS V14.01,2013-03-18 08:41:00,
2013-03-18 03:42:00,62.4,57.7,29.76,NE,45,3.1,3.6,84,0.00,,,0.00,VWS V14.01,2013-03-18 08:42:00,
2013-03-18 03:43:00,62.4,57.7,29.76,East,90,5.4,5.4,84,0.00,,,0.00,VWS V14.01,2013-03-18 08:43:00,
2013-03-18 03:44:00,62.4,57.7,29.76,East,90,3.6,7.6,84,0.00,,,0.00,VWS V14.01,2013-03-18 08:44:00,
2013-03-18 03:45:00,62.4,57.7,29.76,East,90,3.1,3.1,84,0.00,,,0.00,VWS V14.01,2013-03-18 08:45:00,
2013-03-18 03:46:00,62.4,57.7,29.76,East,90,4.9,4.9,84,0.00,,,0.00,VWS V14.01,2013-03-18 08:46:00,
2013-03-18 03:47:00,62.4,57.7,29.76,East,90,7.2,7.6,84,0.00,,,0.00,VWS V14.01,2013-03-18 08:47:00,
2013-03-18 03:48:00,62.4,57.7,29.76,East,90,3.1,8.3,84,0.00,,,0.00,VWS V14.01,2013-03-18 08:48:00,
2013-03-18 03:49:00,62.4,57.7,29.76,ENE,68,5.4,5.4,84,0.00,,,0.00,VWS V14.01,2013-03-18 08:49:00,
2013-03-18 03:50:00,62.4,57.7,29.76,East,90,3.6,4.9,84,0.00,,,0.00,VWS V14.01,2013-03-18 08:50:00,
2013-03-18 03:51:00,62.2,57.5,29.76,East,90,2.2,4.9,84,0.00,,,0.00,VWS V14.01,2013-03-18 08:51:00,
2013-03-18 03:52:00,62.2,57.5,29.76,ENE,68,3.6,4.0,84,0.00,,,0.00,VWS V14.01,2013-03-18 08:52:00,
2013-03-18 03:53:00,62.2,57.5,29.76,ENE,68,2.7,3.6,84,0.00,,,0.00,VWS V14.01,2013-03-18 08:53:00,
2013-03-18 03:54:00,62.2,57.5,29.76,ENE,68,0.0,2.7,84,0.00,,,0.00,VWS V14.01,2013-03-18 08:54:00,
2013-03-18 03:55:00,62.4,57.7,29.76,East,90,3.1,3.1,84,0.00,,,0.00,VWS V14.01,2013-03-18 08:55:00,
2013-03-18 03:56:00,62.2,57.5,29.76,East,90,3.1,3.1,84,0.00,,,0.00,VWS V14.01,2013-03-18 08:56:00,
2013-03-18 03:57:00,62.2,57.5,29.76,East,90,2.7,3.6,84,0.00,,,0.00,VWS V14.01,2013-03-18 08:57:00,
2013-03-18 03:58:00,62.4,57.7,29.76,SE,135,4.9,4.9,84,0.00,,,0.00,VWS V14.01,2013-03-18 08:58:00,
2013-03-18 03:59:00,62.4,57.7,29.76,South,180,5.8,6.3,84,0.00,,,0.00,VWS V14.01,2013-03-18 08:59:00,
2013-03-18 04:00:00,62.2,57.5,29.76,South,180,5.8,5.8,84,0.00,,,0.00,VWS V14.01,2013-03-18 09:00:00,
2013-03-18 04:01:00,62.2,57.5,29.76,SW,225,5.8,5.8,84,0.00,,,0.00,VWS V14.01,2013-03-18 09:01:00,
2013-03-18 04:02:00,62.2,57.5,29.76,SW,225,2.2,5.8,84,0.00,,,0.00,VWS V14.01,2013-03-18 09:02:00,
2013-03-18 04:03:00,62.2,57.5,29.76,SW,225,0.0,2.2,84,0.00,,,0.00,VWS V14.01,2013-03-18 09:03:00,
2013-03-18 04:04:00,62.2,57.5,29.76,SW,225,2.7,2.7,84,0.00,,,0.00,VWS V14.01,2013-03-18 09:04:00,
2013-03-18 04:05:00,62.2,57.5,29.76,NE,45,8.1,8.7,84,0.00,,,0.00,VWS V14.01,2013-03-18 09:05:00,
2013-03-18 04:06:00,62.1,57.3,29.80,NE,45,12.8,13.6,84,0.00,,,0.00,VWS V14.01,2013-03-18 09:06:00,
2013-03-18 04:07:00,62.1,57.3,29.80,NE,45,13.2,13.2,84,0.00,,,0.00,VWS V14.01,2013-03-18 09:07:00,
2013-03-18 04:08:00,62.2,57.5,29.80,NE,45,8.3,13.2,84,0.00,,,0.00,VWS V14.01,2013-03-18 09:08:00,
2013-03-18 04:09:00,62.2,57.5,29.80,ENE,68,8.7,10.5,84,0.00,,,0.00,VWS V14.01,2013-03-18 09:09:00,
2013-03-18 04:10:00,62.2,57.5,29.79,NE,45,7.6,8.7,84,0.00,,,0.00,VWS V14.01,2013-03-18 09:10:00,
2013-03-18 04:11:00,62.2,57.5,29.80,NE,45,4.0,7.6,84,0.00,,,0.00,VWS V14.01,2013-03-18 09:11:00,
2013-03-18 04:12:00,62.1,57.3,29.80,NE,45,5.4,5.4,84,0.00,,,0.00,VWS V14.01,2013-03-18 09:12:00,
2013-03-18 04:13:00,62.1,57.3,29.80,ENE,68,5.8,6.3,84,0.00,,,0.00,VWS V14.01,2013-03-18 09:13:00,
2013-03-18 04:14:00,62.1,57.3,29.80,ENE,68,3.1,5.8,84,0.00,,,0.00,VWS V14.01,2013-03-18 09:14:00,
2013-03-18 04:15:00,62.1,57.3,29.79,ENE,68,0.0,0.0,84,0.00,,,0.00,VWS V14.01,2013-03-18 09:15:00,
2013-03-18 04:16:00,62.1,57.3,29.80,ENE,68,0.0,0.0,84,0.00,,,0.00,VWS V14.01,2013-03-18 09:16:00,
2013-03-18 04:17:00,62.1,57.3,29.80,ENE,68,5.4,5.4,84,0.00,,,0.00,VWS V14.01,2013-03-18 09:17:00,
2013-03-18 04:18:00,62.1,57.3,29.80,NE,45,5.8,6.3,84,0.00,,,0.00,VWS V14.01,2013-03-18 09:18:00,
2013-03-18 04:19:00,62.1,57.3,29.80,NE,45,5.8,6.3,84,0.00,,,0.00,VWS V14.01,2013-03-18 09:19:00,
2013-03-18 04:20:00,62.1,57.3,29.79,ENE,68,5.4,5.8,84,0.00,,,0.00,VWS V14.01,2013-03-18 09:20:00,
2013-03-18 04:21:00,62.1,57.3,29.80,ENE,68,3.1,5.4,84,0.00,,,0.00,VWS V14.01,2013-03-18 09:21:00,
2013-03-18 04:22:00,62.1,57.3,29.80,ENE,68,3.1,3.1,84,0.00,,,0.00,VWS V14.01,2013-03-18 09:22:00,
2013-03-18 04:23:00,62.1,57.3,29.80,ENE,68,3.6,4.9,84,0.00,,,0.00,VWS V14.01,2013-03-18 09:23:00,
2013-03-18 04:24:00,62.1,57.3,29.80,ENE,68,3.1,4.0,84,0.00,,,0.00,VWS V14.01,2013-03-18 09:24:00,
2013-03-18 04:25:00,62.1,57.3,29.79,ENE,68,2.2,2.7,84,0.00,,,0.00,VWS V14.01,2013-03-18 09:25:00,
2013-03-18 04:26:00,62.1,57.3,29.80,ENE,68,0.0,3.1,84,0.00,,,0.00,VWS V14.01,2013-03-18 09:26:00,
2013-03-18 04:27:00,62.1,57.3,29.80,ENE,68,4.0,4.0,84,0.00,,,0.00,VWS V14.01,2013-03-18 09:27:00,
2013-03-18 04:28:00,62.1,57.3,29.80,East,90,5.4,5.4,84,0.00,,,0.00,VWS V14.01,2013-03-18 09:28:00,
2013-03-18 04:29:00,62.1,57.3,29.80,East,90,4.9,5.4,84,0.00,,,0.00,VWS V14.01,2013-03-18 09:29:00,
2013-03-18 04:30:00,62.1,57.3,29.79,East,90,0.0,0.0,84,0.00,,,0.00,VWS V14.01,2013-03-18 09:30:00,
2013-03-18 04:31:00,62.1,57.3,29.80,ENE,68,2.7,2.7,84,0.00,,,0.00,VWS V14.01,2013-03-18 09:31:00,
2013-03-18 04:32:00,62.1,57.3,29.80,East,90,4.0,5.4,84,0.00,,,0.00,VWS V14.01,2013-03-18 09:32:00,
2013-03-18 04:33:00,62.1,57.3,29.80,ENE,68,3.6,5.8,84,0.00,,,0.00,VWS V14.01,2013-03-18 09:33:00,
2013-03-18 04:34:00,61.9,57.2,29.80,ENE,68,4.9,4.9,84,0.00,,,0.00,VWS V14.01,2013-03-18 09:34:00,
2013-03-18 04:35:00,61.9,57.2,29.79,ENE,68,5.8,6.3,84,0.00,,,0.00,VWS V14.01,2013-03-18 09:35:00,
2013-03-18 04:36:00,61.9,57.2,29.76,ENE,68,5.4,7.2,84,0.00,,,0.00,VWS V14.01,2013-03-18 09:36:00,
2013-03-18 04:37:00,61.9,57.2,29.76,ENE,68,4.9,5.8,84,0.00,,,0.00,VWS V14.01,2013-03-18 09:37:00,
2013-03-18 04:38:00,61.9,57.2,29.76,ENE,68,4.9,5.4,84,0.00,,,0.00,VWS V14.01,2013-03-18 09:38:00,
2013-03-18 04:39:00,61.9,57.2,29.76,ENE,68,6.7,6.7,84,0.00,,,0.00,VWS V14.01,2013-03-18 09:39:00,
2013-03-18 04:40:00,61.9,57.2,29.76,ENE,68,4.0,6.7,84,0.00,,,0.00,VWS V14.01,2013-03-18 09:40:00,
2013-03-18 04:41:00,61.9,57.2,29.76,ENE,68,6.3,6.3,84,0.00,,,0.00,VWS V14.01,2013-03-18 09:41:00,
2013-03-18 04:42:00,61.9,57.2,29.76,ENE,68,4.0,6.3,84,0.00,,,0.00,VWS V14.01,2013-03-18 09:42:00,
2013-03-18 04:43:00,61.9,57.2,29.76,ENE,68,0.0,4.0,84,0.00,,,0.00,VWS V14.01,2013-03-18 09:43:00,
2013-03-18 04:44:00,61.9,57.2,29.76,NE,45,2.7,3.6,84,0.00,,,0.00,VWS V14.01,2013-03-18 09:44:00,
2013-03-18 04:45:00,61.9,57.2,29.76,NE,45,2.7,2.7,84,0.00,,,0.00,VWS V14.01,2013-03-18 09:45:00,
2013-03-18 04:46:00,61.9,57.2,29.76,NE,45,2.7,2.7,84,0.00,,,0.00,VWS V14.01,2013-03-18 09:46:00,
2013-03-18 04:47:00,61.7,57.0,29.76,NE,45,4.5,4.5,84,0.00,,,0.00,VWS V14.01,2013-03-18 09:47:00,
2013-03-18 04:48:00,61.7,57.0,29.76,NE,45,5.4,5.4,84,0.00,,,0.00,VWS V14.01,2013-03-18 09:48:00,
2013-03-18 04:49:00,61.7,57.0,29.76,ENE,68,4.0,5.4,84,0.00,,,0.00,VWS V14.01,2013-03-18 09:49:00,
2013-03-18 04:50:00,61.7,57.0,29.76,ENE,68,4.0,4.0,84,0.00,,,0.00,VWS V14.01,2013-03-18 09:50:00,
2013-03-18 04:51:00,61.7,57.0,29.80,East,90,4.0,4.0,84,0.00,,,0.00,VWS V14.01,2013-03-18 09:51:00,
2013-03-18 04:52:00,61.7,57.0,29.80,ENE,68,5.8,5.8,84,0.00,,,0.00,VWS V14.01,2013-03-18 09:52:00,
2013-03-18 04:53:00,61.7,57.0,29.80,ENE,68,5.8,6.3,84,0.00,,,0.00,VWS V14.01,2013-03-18 09:53:00,
2013-03-18 04:54:00,61.7,57.0,29.80,East,90,5.4,6.3,84,0.00,,,0.00,VWS V14.01,2013-03-18 09:54:00,
2013-03-18 04:55:00,61.7,57.0,29.79,ENE,68,5.4,5.4,84,0.00,,,0.00,VWS V14.01,2013-03-18 09:55:00,
2013-03-18 04:56:00,61.7,57.0,29.80,ENE,68,3.1,5.4,84,0.00,,,0.00,VWS V14.01,2013-03-18 09:56:00,
2013-03-18 04:57:00,61.7,57.0,29.80,ENE,68,0.0,3.1,84,0.00,,,0.00,VWS V14.01,2013-03-18 09:57:00,
2013-03-18 04:58:00,61.7,57.0,29.80,ENE,68,5.8,6.3,84,0.00,,,0.00,VWS V14.01,2013-03-18 09:58:00,
2013-03-18 04:59:00,61.5,56.8,29.80,East,90,4.9,5.8,84,0.00,,,0.00,VWS V14.01,2013-03-18 09:59:00,
2013-03-18 05:00:00,61.5,56.8,29.79,East,90,5.8,8.3,84,0.00,,,0.00,VWS V14.01,2013-03-18 10:00:00,
2013-03-18 05:01:00,61.5,56.8,29.80,East,90,6.3,6.3,84,0.00,,,0.00,VWS V14.01,2013-03-18 10:01:00,
2013-03-18 05:02:00,61.5,56.8,29.80,ENE,68,5.4,7.6,84,0.00,,,0.00,VWS V14.01,2013-03-18 10:02:00,
2013-03-18 05:03:00,61.3,56.6,29.80,East,90,6.3,6.3,84,0.00,,,0.00,VWS V14.01,2013-03-18 10:03:00,
2013-03-18 05:04:00,61.3,56.6,29.80,East,90,6.3,6.3,84,0.00,,,0.00,VWS V14.01,2013-03-18 10:04:00,
2013-03-18 05:05:00,61.3,56.6,29.79,ENE,68,5.8,5.8,84,0.00,,,0.00,VWS V14.01,2013-03-18 10:05:00,
2013-03-18 05:06:00,61.3,56.6,29.80,ENE,68,5.8,5.8,84,0.00,,,0.00,VWS V14.01,2013-03-18 10:06:00,
2013-03-18 05:07:00,61.3,56.6,29.80,ENE,68,2.7,6.7,84,0.00,,,0.00,VWS V14.01,2013-03-18 10:07:00,
2013-03-18 05:08:00,61.3,56.6,29.80,ENE,68,4.0,5.8,84,0.00,,,0.00,VWS V14.01,2013-03-18 10:08:00,
2013-03-18 05:09:00,61.2,56.5,29.80,ENE,68,3.6,4.9,84,0.00,,,0.00,VWS V14.01,2013-03-18 10:09:00,
2013-03-18 05:10:00,61.2,56.5,29.79,East,90,4.0,4.9,84,0.00,,,0.00,VWS V14.01,2013-03-18 10:10:00,
2013-03-18 05:11:00,61.2,56.5,29.80,East,90,4.0,4.9,84,0.00,,,0.00,VWS V14.01,2013-03-18 10:11:00,
2013-03-18 05:12:00,61.2,56.5,29.80,East,90,4.9,7.2,84,0.00,,,0.00,VWS V14.01,2013-03-18 10:12:00,
2013-03-18 05:14:00,61.2,56.5,29.80,East,90,3.6,4.9,84,0.00,,,0.00,VWS V14.01,2013-03-18 10:14:00,
2013-03-18 05:15:00,61.0,56.3,29.79,ENE,68,4.0,6.3,84,0.00,,,0.00,VWS V14.01,2013-03-18 10:15:00,
2013-03-18 05:16:00,61.0,56.3,29.80,ENE,68,4.0,4.0,84,0.00,,,0.00,VWS V14.01,2013-03-18 10:16:00,
2013-03-18 05:17:00,61.0,56.3,29.80,ENE,68,4.0,4.0,84,0.00,,,0.00,VWS V14.01,2013-03-18 10:17:00,
2013-03-18 05:18:00,61.0,56.3,29.80,East,90,7.6,10.5,84,0.00,,,0.00,VWS V14.01,2013-03-18 10:18:00,
2013-03-18 05:19:00,61.0,56.3,29.80,East,90,8.7,8.7,84,0.00,,,0.00,VWS V14.01,2013-03-18 10:19:00,
2013-03-18 05:20:00,61.0,56.3,29.79,ENE,68,10.1,10.1,84,0.00,,,0.00,VWS V14.01,2013-03-18 10:20:00,
2013-03-18 05:21:00,60.8,56.1,29.80,ENE,68,7.6,10.1,84,0.00,,,0.00,VWS V14.01,2013-03-18 10:21:00,
2013-03-18 05:22:00,61.0,56.3,29.80,East,90,8.1,8.7,84,0.00,,,0.00,VWS V14.01,2013-03-18 10:22:00,
2013-03-18 05:23:00,61.0,56.3,29.80,East,90,9.6,10.1,84,0.00,,,0.00,VWS V14.01,2013-03-18 10:23:00,
2013-03-18 05:24:00,60.8,56.1,29.80,NE,45,5.8,9.6,84,0.00,,,0.00,VWS V14.01,2013-03-18 10:24:00,
2013-03-18 05:25:00,60.8,56.1,29.79,ENE,68,5.4,5.4,84,0.00,,,0.00,VWS V14.01,2013-03-18 10:25:00,
2013-03-18 05:26:00,60.8,56.1,29.80,East,90,8.7,10.1,84,0.00,,,0.00,VWS V14.01,2013-03-18 10:26:00,
2013-03-18 05:27:00,60.8,56.1,29.80,East,90,8.7,8.7,84,0.00,,,0.00,VWS V14.01,2013-03-18 10:27:00,
2013-03-18 05:28:00,60.8,56.1,29.80,East,90,5.4,8.7,84,0.00,,,0.00,VWS V14.01,2013-03-18 10:28:00,
2013-03-18 05:29:00,60.8,56.1,29.80,ENE,68,6.3,6.3,84,0.00,,,0.00,VWS V14.01,2013-03-18 10:29:00,
2013-03-18 05:30:00,60.8,56.1,29.79,ENE,68,7.6,8.3,84,0.00,,,0.00,VWS V14.01,2013-03-18 10:30:00,
2013-03-18 05:31:00,60.8,56.1,29.80,East,90,7.6,8.3,84,0.00,,,0.00,VWS V14.01,2013-03-18 10:31:00,
2013-03-18 05:32:00,60.8,56.1,29.80,ENE,68,2.7,7.6,84,0.00,,,0.00,VWS V14.01,2013-03-18 10:32:00,
2013-03-18 05:33:00,60.8,56.1,29.80,East,90,2.7,3.6,84,0.00,,,0.00,VWS V14.01,2013-03-18 10:33:00,
2013-03-18 05:34:00,60.6,55.9,29.80,East,90,5.4,5.8,84,0.00,,,0.00,VWS V14.01,2013-03-18 10:34:00,
2013-03-18 05:35:00,60.6,55.9,29.79,East,90,4.0,5.4,84,0.00,,,0.00,VWS V14.01,2013-03-18 10:35:00,
2013-03-18 05:36:00,60.6,55.9,29.80,East,90,2.7,4.0,84,0.00,,,0.00,VWS V14.01,2013-03-18 10:36:00,
2013-03-18 05:37:00,60.6,55.9,29.80,East,90,3.6,3.6,84,0.00,,,0.00,VWS V14.01,2013-03-18 10:37:00,
2013-03-18 05:38:00,60.6,55.9,29.80,East,90,5.4,5.4,84,0.00,,,0.00,VWS V14.01,2013-03-18 10:38:00,
2013-03-18 05:39:00,60.4,55.8,29.80,East,90,8.1,8.1,84,0.00,,,0.00,VWS V14.01,2013-03-18 10:39:00,
2013-03-18 05:40:00,60.4,55.8,29.79,ENE,68,9.6,9.6,84,0.00,,,0.00,VWS V14.01,2013-03-18 10:40:00,
2013-03-18 05:41:00,60.4,55.8,29.80,ENE,68,4.0,4.0,84,0.00,,,0.00,VWS V14.01,2013-03-18 10:41:00,
2013-03-18 05:42:00,60.4,55.8,29.80,NE,45,7.2,7.2,84,0.00,,,0.00,VWS V14.01,2013-03-18 10:42:00,
2013-03-18 05:43:00,60.4,55.8,29.80,NE,45,7.6,7.6,84,0.00,,,0.00,VWS V14.01,2013-03-18 10:43:00,
2013-03-18 05:44:00,60.4,55.8,29.80,ENE,68,5.8,7.6,84,0.00,,,0.00,VWS V14.01,2013-03-18 10:44:00,
2013-03-18 05:45:00,60.4,55.8,29.79,ENE,68,6.3,7.2,84,0.00,,,0.00,VWS V14.01,2013-03-18 10:45:00,
2013-03-18 05:46:00,60.4,56.1,29.80,East,90,7.2,7.2,86,0.00,,,0.00,VWS V14.01,2013-03-18 10:46:00,
2013-03-18 05:47:00,60.4,56.1,29.80,East,90,4.9,7.2,86,0.00,,,0.00,VWS V14.01,2013-03-18 10:47:00,
2013-03-18 05:48:00,60.4,55.8,29.80,East,90,6.3,6.3,84,0.00,,,0.00,VWS V14.01,2013-03-18 10:48:00,
2013-03-18 05:49:00,60.3,55.6,29.80,NE,45,4.9,6.3,84,0.00,,,0.00,VWS V14.01,2013-03-18 10:49:00,
2013-03-18 05:50:00,60.3,55.9,29.79,ENE,68,5.4,6.3,86,0.00,,,0.00,VWS V14.01,2013-03-18 10:50:00,
2013-03-18 05:51:00,60.3,55.9,29.80,ENE,68,4.0,5.8,86,0.00,,,0.00,VWS V14.01,2013-03-18 10:51:00,
2013-03-18 05:52:00,60.3,55.9,29.80,East,90,6.7,6.7,86,0.00,,,0.00,VWS V14.01,2013-03-18 10:52:00,
2013-03-18 05:53:00,60.3,55.9,29.80,East,90,6.3,6.7,86,0.00,,,0.00,VWS V14.01,2013-03-18 10:53:00,
2013-03-18 05:54:00,60.3,55.9,29.80,East,90,6.7,6.7,86,0.00,,,0.00,VWS V14.01,2013-03-18 10:54:00,
2013-03-18 05:55:00,60.3,55.9,29.79,East,90,6.7,6.7,86,0.00,,,0.00,VWS V14.01,2013-03-18 10:55:00,
2013-03-18 05:56:00,60.3,55.9,29.80,ENE,68,5.4,7.6,86,0.00,,,0.00,VWS V14.01,2013-03-18 10:56:00,
2013-03-18 05:57:00,60.3,55.9,29.80,East,90,4.9,6.7,86,0.00,,,0.00,VWS V14.01,2013-03-18 10:57:00,
2013-03-18 05:58:00,60.3,55.9,29.80,NE,45,4.0,5.4,86,0.00,,,0.00,VWS V14.01,2013-03-18 10:58:00,
2013-03-18 05:59:00,60.3,55.9,29.80,NE,45,3.1,4.0,86,0.00,,,0.00,VWS V14.01,2013-03-18 10:59:00,
2013-03-18 06:00:00,60.3,55.9,29.79,East,90,6.7,6.7,86,0.00,,,0.00,VWS V14.01,2013-03-18 11:00:00,
2013-03-18 06:01:00,60.3,55.9,29.80,East,90,5.4,6.7,86,0.00,,,0.00,VWS V14.01,2013-03-18 11:01:00,
2013-03-18 06:02:00,60.3,55.9,29.80,East,90,4.9,5.4,86,0.00,,,0.00,VWS V14.01,2013-03-18 11:02:00,
2013-03-18 06:03:00,60.3,55.9,29.80,NE,45,4.0,5.4,86,0.00,,,0.00,VWS V14.01,2013-03-18 11:03:00,
2013-03-18 06:04:00,60.3,55.9,29.80,East,90,3.6,6.7,86,0.00,,,0.00,VWS V14.01,2013-03-18 11:04:00,
2013-03-18 06:05:00,60.3,55.9,29.79,East,90,4.9,7.2,86,0.00,,,0.00,VWS V14.01,2013-03-18 11:05:00,
2013-03-18 06:06:00,60.3,55.9,29.80,East,90,4.9,5.8,86,0.00,,,0.00,VWS V14.01,2013-03-18 11:06:00,
2013-03-18 06:07:00,60.3,55.9,29.80,East,90,3.6,4.9,86,0.00,,,0.00,VWS V14.01,2013-03-18 11:07:00,
2013-03-18 06:08:00,60.3,55.9,29.80,East,90,4.9,7.6,86,0.00,,,0.00,VWS V14.01,2013-03-18 11:08:00,
2013-03-18 06:09:00,60.3,55.9,29.80,East,90,5.4,5.4,86,0.00,,,0.00,VWS V14.01,2013-03-18 11:09:00,
2013-03-18 06:10:00,59.7,55.4,29.79,East,90,5.8,7.2,86,0.00,,,0.00,VWS V14.01,2013-03-18 11:10:00,
2013-03-18 06:11:00,59.7,55.4,29.80,East,90,5.4,6.3,86,0.00,,,0.00,VWS V14.01,2013-03-18 11:11:00,
2013-03-18 06:12:00,59.7,55.4,29.80,ENE,68,7.2,7.2,86,0.00,,,0.00,VWS V14.01,2013-03-18 11:12:00,
2013-03-18 06:13:00,59.7,55.4,29.80,ENE,68,7.2,8.1,86,0.00,,,0.00,VWS V14.01,2013-03-18 11:13:00,
2013-03-18 06:14:00,59.7,55.4,29.80,ENE,68,8.1,8.1,86,0.00,,,0.00,VWS V14.01,2013-03-18 11:14:00,
2013-03-18 06:15:00,59.7,55.4,29.79,East,90,5.4,8.1,86,0.00,,,0.00,VWS V14.01,2013-03-18 11:15:00,
2013-03-18 06:16:00,59.7,55.4,29.80,NE,45,4.0,8.1,86,0.00,,,0.00,VWS V14.01,2013-03-18 11:16:00,
2013-03-18 06:17:00,59.7,55.4,29.80,East,90,8.1,9.6,86,0.00,,,0.00,VWS V14.01,2013-03-18 11:17:00,
2013-03-18 06:18:00,59.7,55.4,29.80,East,90,8.1,8.3,86,0.00,,,0.00,VWS V14.01,2013-03-18 11:18:00,
2013-03-18 06:20:00,59.7,55.4,29.79,East,90,8.7,8.7,86,0.00,,,0.00,VWS V14.01,2013-03-18 11:20:00,
2013-03-18 06:21:00,59.7,55.4,29.82,East,90,8.3,8.3,86,0.00,,,0.00,VWS V14.01,2013-03-18 11:21:00,
2013-03-18 06:22:00,59.7,55.4,29.82,ENE,68,5.8,8.3,86,0.00,,,0.00,VWS V14.01,2013-03-18 11:22:00,
2013-03-18 06:23:00,59.5,55.2,29.82,East,90,6.3,6.3,86,0.00,,,0.00,VWS V14.01,2013-03-18 11:23:00,
2013-03-18 06:24:00,59.5,55.2,29.82,East,90,6.3,7.2,86,0.00,,,0.00,VWS V14.01,2013-03-18 11:24:00,
2013-03-18 06:25:00,59.5,55.2,29.82,East,90,8.7,9.6,86,0.00,,,0.00,VWS V14.01,2013-03-18 11:25:00,
2013-03-18 06:26:00,59.5,55.2,29.82,ENE,68,7.2,8.7,86,0.00,,,0.00,VWS V14.01,2013-03-18 11:26:00,
2013-03-18 06:27:00,59.5,55.2,29.82,ENE,68,7.6,8.1,86,0.00,,,0.00,VWS V14.01,2013-03-18 11:27:00,
2013-03-18 06:28:00,59.5,55.2,29.82,East,90,8.3,12.3,86,0.00,,,0.00,VWS V14.01,2013-03-18 11:28:00,
2013-03-18 06:29:00,59.5,55.2,29.82,ENE,68,7.6,8.3,86,0.00,,,0.00,VWS V14.01,2013-03-18 11:29:00,
2013-03-18 06:30:00,59.5,55.2,29.82,ENE,68,7.2,7.6,86,0.00,,,0.00,VWS V14.01,2013-03-18 11:30:00,
2013-03-18 06:31:00,59.4,55.0,29.82,East,90,5.4,8.1,86,0.00,,,0.00,VWS V14.01,2013-03-18 11:31:00,
2013-03-18 06:32:00,59.4,55.0,29.82,East,90,4.9,8.7,86,0.00,,,0.00,VWS V14.01,2013-03-18 11:32:00,
2013-03-18 06:33:00,59.4,55.0,29.82,ENE,68,5.4,5.8,86,0.00,,,0.00,VWS V14.01,2013-03-18 11:33:00,
2013-03-18 06:34:00,59.4,55.0,29.82,East,90,4.9,7.6,86,0.00,,,0.00,VWS V14.01,2013-03-18 11:34:00,
2013-03-18 06:35:00,59.4,55.0,29.82,ENE,68,4.0,4.0,86,0.00,,,0.00,VWS V14.01,2013-03-18 11:35:00,
2013-03-18 06:36:00,59.4,55.0,29.82,East,90,5.4,5.4,86,0.00,,,0.00,VWS V14.01,2013-03-18 11:36:00,
2013-03-18 06:37:00,59.4,55.0,29.82,ENE,68,6.3,6.3,86,0.00,,,0.00,VWS V14.01,2013-03-18 11:37:00,
2013-03-18 06:38:00,59.4,55.0,29.82,ENE,68,4.0,8.3,86,0.00,,,0.00,VWS V14.01,2013-03-18 11:38:00,
2013-03-18 06:39:00,59.4,55.0,29.82,ENE,68,4.9,7.6,86,0.00,,,0.00,VWS V14.01,2013-03-18 11:39:00,
2013-03-18 06:40:00,59.4,55.0,29.82,ENE,68,4.9,4.9,86,0.00,,,0.00,VWS V14.01,2013-03-18 11:40:00,
2013-03-18 06:41:00,59.4,55.0,29.82,East,90,4.9,5.8,86,0.00,,,0.00,VWS V14.01,2013-03-18 11:41:00,
2013-03-18 06:42:00,59.4,55.0,29.82,ENE,68,4.9,8.3,86,0.00,,,0.00,VWS V14.01,2013-03-18 11:42:00,
2013-03-18 06:43:00,59.2,54.8,29.82,ENE,68,6.7,10.5,86,0.00,,,0.00,VWS V14.01,2013-03-18 11:43:00,
2013-03-18 06:44:00,59.2,54.8,29.82,East,90,8.1,8.1,86,0.00,,,0.00,VWS V14.01,2013-03-18 11:44:00,
2013-03-18 06:45:00,59.2,54.8,29.82,ENE,68,8.3,8.3,86,0.00,,,0.00,VWS V14.01,2013-03-18 11:45:00,
2013-03-18 06:46:00,59.2,54.8,29.82,ENE,68,6.3,8.3,86,0.00,,,0.00,VWS V14.01,2013-03-18 11:46:00,
2013-03-18 06:47:00,59.2,54.8,29.82,East,90,10.1,10.1,86,0.00,,,0.00,VWS V14.01,2013-03-18 11:47:00,
2013-03-18 06:48:00,59.2,54.8,29.82,East,90,8.3,10.1,86,0.00,,,0.00,VWS V14.01,2013-03-18 11:48:00,
2013-03-18 06:49:00,59.2,54.8,29.82,East,90,7.6,8.3,86,0.00,,,0.00,VWS V14.01,2013-03-18 11:49:00,
2013-03-18 06:50:00,59.2,54.8,29.82,ENE,68,6.3,6.3,86,0.00,,,0.00,VWS V14.01,2013-03-18 11:50:00,
2013-03-18 06:51:00,59.2,54.8,29.85,ENE,68,5.4,7.6,86,0.00,,,0.00,VWS V14.01,2013-03-18 11:51:00,
2013-03-18 06:52:00,59.2,54.8,29.85,ENE,68,6.7,8.1,86,0.00,,,0.00,VWS V14.01,2013-03-18 11:52:00,
2013-03-18 06:53:00,59.2,54.8,29.85,NE,45,6.7,8.3,86,0.00,,,0.00,VWS V14.01,2013-03-18 11:53:00,
2013-03-18 06:54:00,59.2,54.8,29.85,ENE,68,8.7,10.1,86,0.00,,,0.00,VWS V14.01,2013-03-18 11:54:00,
2013-03-18 06:55:00,59.2,54.8,29.85,NE,45,8.1,8.1,86,0.00,,,0.00,VWS V14.01,2013-03-18 11:55:00,
2013-03-18 06:56:00,59.2,54.8,29.85,ENE,68,5.4,10.5,86,0.00,,,0.00,VWS V14.01,2013-03-18 11:56:00,
2013-03-18 06:57:00,59.2,54.8,29.85,NE,45,8.3,10.1,86,0.00,,,0.00,VWS V14.01,2013-03-18 11:57:00,
2013-03-18 06:58:00,59.0,54.7,29.85,ENE,68,7.2,12.3,86,0.00,,,0.00,VWS V14.01,2013-03-18 11:58:00,
2013-03-18 06:59:00,59.0,54.7,29.85,ENE,68,6.7,8.3,86,0.00,,,0.00,VWS V14.01,2013-03-18 11:59:00,
2013-03-18 07:00:00,59.0,54.7,29.85,East,90,5.8,6.7,86,0.00,,,0.00,VWS V14.01,2013-03-18 12:00:00,
2013-03-18 07:01:00,59.0,54.7,29.85,East,90,7.2,9.2,86,0.00,,,0.00,VWS V14.01,2013-03-18 12:01:00,
2013-03-18 07:02:00,58.8,54.5,29.85,East,90,7.6,7.6,86,0.00,,,0.00,VWS V14.01,2013-03-18 12:02:00,
2013-03-18 07:03:00,58.8,54.5,29.85,East,90,7.6,7.6,86,0.00,,,0.00,VWS V14.01,2013-03-18 12:03:00,
2013-03-18 07:04:00,58.8,54.5,29.85,East,90,7.6,7.6,86,0.00,,,0.00,VWS V14.01,2013-03-18 12:04:00,
2013-03-18 07:05:00,58.8,54.5,29.85,ENE,68,8.1,8.7,86,0.00,,,0.00,VWS V14.01,2013-03-18 12:05:00,
2013-03-18 07:06:00,58.8,54.5,29.85,East,90,5.8,8.1,86,0.00,,,0.00,VWS V14.01,2013-03-18 12:06:00,
2013-03-18 07:07:00,58.8,54.5,29.85,East,90,4.0,7.6,86,0.00,,,0.00,VWS V14.01,2013-03-18 12:07:00,
2013-03-18 07:08:00,58.8,54.5,29.85,East,90,3.6,4.9,86,0.00,,,0.00,VWS V14.01,2013-03-18 12:08:00,
2013-03-18 07:09:00,58.8,54.5,29.85,East,90,7.2,7.2,86,0.00,,,0.00,VWS V14.01,2013-03-18 12:09:00,
2013-03-18 07:10:00,58.8,54.5,29.85,ENE,68,4.9,4.9,86,0.00,,,0.00,VWS V14.01,2013-03-18 12:10:00,
2013-03-18 07:11:00,58.8,54.5,29.85,East,90,5.4,5.8,86,0.00,,,0.00,VWS V14.01,2013-03-18 12:11:00,
2013-03-18 07:12:00,58.8,54.5,29.85,East,90,4.0,6.7,86,0.00,,,0.00,VWS V14.01,2013-03-18 12:12:00,
2013-03-18 07:13:00,58.6,54.3,29.85,East,90,4.9,4.9,86,0.00,,,0.00,VWS V14.01,2013-03-18 12:13:00,
2013-03-18 07:14:00,58.8,54.5,29.85,East,90,0.0,5.4,86,0.00,,,0.00,VWS V14.01,2013-03-18 12:14:00,
2013-03-18 07:15:00,58.8,54.5,29.85,East,90,4.0,4.0,86,0.00,,,0.00,VWS V14.01,2013-03-18 12:15:00,
2013-03-18 07:16:00,58.8,54.5,29.85,ENE,68,5.8,7.2,86,0.00,,,0.00,VWS V14.01,2013-03-18 12:16:00,
2013-03-18 07:17:00,58.8,54.5,29.85,ENE,68,5.8,5.8,86,0.00,,,0.00,VWS V14.01,2013-03-18 12:17:00,
2013-03-18 07:18:00,58.8,54.5,29.85,ENE,68,6.3,7.6,86,0.00,,,0.00,VWS V14.01,2013-03-18 12:18:00,
2013-03-18 07:19:00,58.8,54.5,29.85,East,90,5.8,8.1,86,0.00,,,0.00,VWS V14.01,2013-03-18 12:19:00,
2013-03-18 07:20:00,58.8,54.5,29.85,ENE,68,8.3,8.3,86,0.00,,,0.00,VWS V14.01,2013-03-18 12:20:00,
2013-03-18 07:21:00,58.8,54.5,29.85,ENE,68,8.3,8.3,86,0.00,,,0.00,VWS V14.01,2013-03-18 12:21:00,
2013-03-18 07:22:00,58.8,54.5,29.85,ENE,68,8.1,8.3,86,0.00,,,0.00,VWS V14.01,2013-03-18 12:22:00,
2013-03-18 07:23:00,58.8,54.5,29.85,ENE,68,7.6,8.1,86,0.00,,,0.00,VWS V14.01,2013-03-18 12:23:00,
2013-03-18 07:24:00,58.8,54.5,29.85,ENE,68,8.1,8.7,86,0.00,,,0.00,VWS V14.01,2013-03-18 12:24:00,
2013-03-18 07:25:00,58.8,54.5,29.85,ENE,68,4.9,8.1,86,0.00,,,0.00,VWS V14.01,2013-03-18 12:25:00,
2013-03-18 07:26:00,58.8,54.5,29.85,ENE,68,8.3,8.3,86,0.00,,,0.00,VWS V14.01,2013-03-18 12:26:00,
2013-03-18 07:27:00,58.8,54.5,29.85,ENE,68,5.8,8.3,86,0.00,,,0.00,VWS V14.01,2013-03-18 12:27:00,
2013-03-18 07:28:00,58.8,54.5,29.85,ENE,68,3.1,5.8,86,0.00,,,0.00,VWS V14.01,2013-03-18 12:28:00,
2013-03-18 07:29:00,58.8,54.5,29.85,ENE,68,5.8,5.8,86,0.00,,,0.00,VWS V14.01,2013-03-18 12:29:00,
2013-03-18 07:30:00,58.8,54.5,29.85,ENE,68,8.1,8.1,86,0.00,,,0.00,VWS V14.01,2013-03-18 12:30:00,
2013-03-18 07:31:00,58.8,54.5,29.85,ENE,68,7.6,8.3,86,0.00,,,0.00,VWS V14.01,2013-03-18 12:31:00,
2013-03-18 07:32:00,58.8,54.5,29.85,ENE,68,5.4,10.1,86,0.00,,,0.00,VWS V14.01,2013-03-18 12:32:00,
2013-03-18 07:33:00,58.8,54.5,29.85,ENE,68,6.3,8.3,86,0.00,,,0.00,VWS V14.01,2013-03-18 12:33:00,
2013-03-18 07:34:00,58.8,54.5,29.85,NE,45,6.7,8.1,86,0.00,,,0.00,VWS V14.01,2013-03-18 12:34:00,
2013-03-18 07:35:00,58.8,54.5,29.85,ENE,68,4.9,7.2,86,0.00,,,0.00,VWS V14.01,2013-03-18 12:35:00,
2013-03-18 07:36:00,58.8,54.5,29.85,East,90,8.3,8.3,86,0.00,,,0.00,VWS V14.01,2013-03-18 12:36:00,
2013-03-18 07:37:00,58.8,54.5,29.85,ENE,68,8.7,8.7,86,0.00,,,0.00,VWS V14.01,2013-03-18 12:37:00,
2013-03-18 07:39:00,58.8,54.5,29.85,NE,45,5.8,8.7,86,0.00,,,0.00,VWS V14.01,2013-03-18 12:39:00,
2013-03-18 07:40:00,58.8,54.5,29.85,ENE,68,10.1,10.1,86,0.00,,,0.00,VWS V14.01,2013-03-18 12:40:00,
2013-03-18 07:41:00,58.8,54.5,29.85,NE,45,8.1,10.1,86,0.00,,,0.00,VWS V14.01,2013-03-18 12:41:00,
2013-03-18 07:42:00,58.8,54.5,29.85,East,90,8.3,8.7,86,0.00,,,0.00,VWS V14.01,2013-03-18 12:42:00,
2013-03-18 07:43:00,58.8,54.5,29.85,ENE,68,11.0,11.0,86,0.00,,,0.00,VWS V14.01,2013-03-18 12:43:00,
2013-03-18 07:44:00,58.8,54.5,29.85,East,90,10.5,11.0,86,0.00,,,0.00,VWS V14.01,2013-03-18 12:44:00,
2013-03-18 07:45:00,58.8,54.5,29.85,East,90,7.6,7.6,86,0.00,,,0.00,VWS V14.01,2013-03-18 12:45:00,
2013-03-18 07:46:00,58.6,54.3,29.85,ENE,68,10.5,13.2,86,0.00,,,0.00,VWS V14.01,2013-03-18 12:46:00,
2013-03-18 07:47:00,58.6,54.3,29.85,ENE,68,10.1,11.4,86,0.00,,,0.00,VWS V14.01,2013-03-18 12:47:00,
2013-03-18 07:48:00,58.6,54.3,29.85,East,90,8.3,10.1,86,0.00,,,0.00,VWS V14.01,2013-03-18 12:48:00,
2013-03-18 07:49:00,58.5,54.1,29.85,NE,45,8.1,15.4,86,0.00,,,0.00,VWS V14.01,2013-03-18 12:49:00,
2013-03-18 07:50:00,58.5,54.1,29.85,NE,45,9.2,9.2,86,0.00,,,0.00,VWS V14.01,2013-03-18 12:50:00,
2013-03-18 07:51:00,58.5,54.1,29.88,East,90,5.4,9.2,86,0.00,,,0.00,VWS V14.01,2013-03-18 12:51:00,
2013-03-18 07:52:00,58.5,54.1,29.88,NE,45,7.2,8.7,86,0.00,,,0.00,VWS V14.01,2013-03-18 12:52:00,
2013-03-18 07:53:00,58.5,54.1,29.88,East,90,9.6,9.6,86,0.00,,,0.00,VWS V14.01,2013-03-18 12:53:00,
2013-03-18 07:54:00,58.5,54.1,29.88,ENE,68,7.6,9.6,86,0.00,,,0.00,VWS V14.01,2013-03-18 12:54:00,
2013-03-18 07:55:00,58.5,54.1,29.88,NE,45,9.6,9.6,86,0.00,,,0.00,VWS V14.01,2013-03-18 12:55:00,
2013-03-18 07:56:00,58.3,54.0,29.88,East,90,10.1,10.1,86,0.00,,,0.00,VWS V14.01,2013-03-18 12:56:00,
2013-03-18 07:57:00,58.3,54.0,29.88,East,90,9.6,10.1,86,0.00,,,0.00,VWS V14.01,2013-03-18 12:57:00,
2013-03-18 07:58:00,58.3,54.0,29.88,East,90,8.1,9.6,86,0.00,,,0.00,VWS V14.01,2013-03-18 12:58:00,
2013-03-18 07:59:00,58.3,54.0,29.88,East,90,3.1,8.1,86,0.00,,,0.00,VWS V14.01,2013-03-18 12:59:00,
2013-03-18 08:00:00,58.3,54.0,29.88,East,90,8.3,8.3,86,0.00,,,0.00,VWS V14.01,2013-03-18 13:00:00,
2013-03-18 08:01:00,58.1,53.8,29.88,East,90,5.4,8.3,86,0.00,,,0.00,VWS V14.01,2013-03-18 13:01:00,
2013-03-18 08:02:00,58.1,53.8,29.88,East,90,7.6,7.6,86,0.00,,,0.00,VWS V14.01,2013-03-18 13:02:00,
2013-03-18 08:03:00,58.1,53.8,29.88,East,90,4.9,10.1,86,0.00,,,0.00,VWS V14.01,2013-03-18 13:03:00,
2013-03-18 08:04:00,58.1,53.8,29.88,NE,45,5.4,5.4,86,0.00,,,0.00,VWS V14.01,2013-03-18 13:04:00,
2013-03-18 08:05:00,58.1,53.8,29.88,East,90,6.7,11.0,86,0.00,,,0.00,VWS V14.01,2013-03-18 13:05:00,
2013-03-18 08:06:00,57.9,53.6,29.88,East,90,4.0,6.7,86,0.00,,,0.00,VWS V14.01,2013-03-18 13:06:00,
2013-03-18 08:07:00,57.9,53.6,29.88,East,90,6.3,8.1,86,0.00,,,0.00,VWS V14.01,2013-03-18 13:07:00,
2013-03-18 08:08:00,57.9,53.6,29.88,East,90,3.1,8.1,86,0.00,,,0.00,VWS V14.01,2013-03-18 13:08:00,
2013-03-18 08:09:00,57.9,53.6,29.88,East,90,5.4,5.4,86,0.00,,,0.00,VWS V14.01,2013-03-18 13:09:00,
2013-03-18 08:10:00,57.7,53.4,29.88,East,90,7.6,7.6,86,0.00,,,0.00,VWS V14.01,2013-03-18 13:10:00,
2013-03-18 08:11:00,57.6,53.2,29.88,East,90,3.6,8.3,86,0.00,,,0.00,VWS V14.01,2013-03-18 13:11:00,
2013-03-18 08:12:00,57.6,53.2,29.88,ENE,68,11.0,11.0,86,0.00,,,0.00,VWS V14.01,2013-03-18 13:12:00,
2013-03-18 08:13:00,57.6,53.2,29.88,East,90,9.2,11.0,86,0.00,,,0.00,VWS V14.01,2013-03-18 13:13:00,
2013-03-18 08:14:00,57.4,53.1,29.88,East,90,3.6,9.2,86,0.00,,,0.00,VWS V14.01,2013-03-18 13:14:00,
2013-03-18 08:15:00,57.4,53.1,29.88,ENE,68,5.8,6.3,86,0.00,,,0.00,VWS V14.01,2013-03-18 13:15:00,
2013-03-18 08:16:00,57.4,53.1,29.88,East,90,4.5,6.3,86,0.00,,,0.00,VWS V14.01,2013-03-18 13:16:00,
2013-03-18 08:17:00,57.4,53.1,29.88,East,90,3.6,5.8,86,0.00,,,0.00,VWS V14.01,2013-03-18 13:17:00,
2013-03-18 08:18:00,57.4,53.1,29.88,East,90,7.2,7.6,86,0.00,,,0.00,VWS V14.01,2013-03-18 13:18:00,
2013-03-18 08:19:00,57.4,53.1,29.88,East,90,4.0,8.7,86,0.00,,,0.00,VWS V14.01,2013-03-18 13:19:00,
2013-03-18 08:20:00,57.2,52.9,29.88,East,90,7.6,7.6,86,0.00,,,0.00,VWS V14.01,2013-03-18 13:20:00,
2013-03-18 08:21:00,57.2,52.9,29.88,SE,135,4.9,7.6,86,0.00,,,0.00,VWS V14.01,2013-03-18 13:21:00,
2013-03-18 08:22:00,57.2,52.9,29.88,ESE,112,7.6,8.3,86,0.00,,,0.00,VWS V14.01,2013-03-18 13:22:00,
2013-03-18 08:23:00,57.0,53.0,29.88,East,90,5.8,8.7,86,0.00,,,0.00,VWS V14.01,2013-03-18 13:23:00,
2013-03-18 08:24:00,56.8,52.9,29.88,SE,135,8.3,8.7,86,0.00,,,0.00,VWS V14.01,2013-03-18 13:24:00,
2013-03-18 08:25:00,56.8,52.9,29.88,SE,135,5.8,5.8,86,0.00,,,0.00,VWS V14.01,2013-03-18 13:25:00,
2013-03-18 08:26:00,56.8,52.9,29.88,ESE,112,3.6,5.8,86,0.00,,,0.00,VWS V14.01,2013-03-18 13:26:00,
2013-03-18 08:27:00,56.8,52.9,29.88,East,90,4.9,6.3,86,0.00,,,0.00,VWS V14.01,2013-03-18 13:27:00,
2013-03-18 08:28:00,56.8,52.9,29.88,East,90,8.7,8.7,86,0.00,,,0.00,VWS V14.01,2013-03-18 13:28:00,
2013-03-18 08:29:00,56.8,52.9,29.88,SE,135,3.1,8.7,86,0.00,,,0.00,VWS V14.01,2013-03-18 13:29:00,
2013-03-18 08:30:00,56.8,52.9,29.88,East,90,8.7,8.7,86,0.00,,,0.00,VWS V14.01,2013-03-18 13:30:00,
2013-03-18 08:31:00,56.8,52.9,29.88,SE,135,8.7,8.7,86,0.00,,,0.00,VWS V14.01,2013-03-18 13:31:00,
2013-03-18 08:32:00,56.7,52.7,29.88,East,90,4.9,8.7,86,0.00,,,0.00,VWS V14.01,2013-03-18 13:32:00,
2013-03-18 08:33:00,56.8,52.9,29.88,ESE,112,4.0,4.9,86,0.00,,,0.00,VWS V14.01,2013-03-18 13:33:00,
2013-03-18 08:34:00,56.8,52.9,29.88,East,90,2.7,4.5,86,0.00,,,0.00,VWS V14.01,2013-03-18 13:34:00,
2013-03-18 08:35:00,56.8,52.9,29.88,ESE,112,5.4,8.7,86,0.00,,,0.00,VWS V14.01,2013-03-18 13:35:00,
2013-03-18 08:36:00,56.8,52.9,29.88,East,90,7.2,7.2,86,0.00,,,0.00,VWS V14.01,2013-03-18 13:36:00,
2013-03-18 08:37:00,56.8,52.9,29.88,East,90,4.0,7.2,86,0.00,,,0.00,VWS V14.01,2013-03-18 13:37:00,
2013-03-18 08:38:00,56.8,52.9,29.88,East,90,5.8,8.3,86,0.00,,,0.00,VWS V14.01,2013-03-18 13:38:00,
2013-03-18 08:39:00,56.7,52.7,29.88,East,90,7.2,8.3,86,0.00,,,0.00,VWS V14.01,2013-03-18 13:39:00,
2013-03-18 08:40:00,56.7,52.7,29.88,East,90,4.9,7.6,86,0.00,,,0.00,VWS V14.01,2013-03-18 13:40:00,
2013-03-18 08:41:00,56.7,52.7,29.88,SE,135,2.7,7.6,86,0.00,,,0.00,VWS V14.01,2013-03-18 13:41:00,
2013-03-18 08:42:00,56.7,52.7,29.88,SE,135,3.6,4.9,86,0.00,,,0.00,VWS V14.01,2013-03-18 13:42:00,
2013-03-18 08:43:00,56.7,52.7,29.88,SE,135,5.4,5.4,86,0.00,,,0.00,VWS V14.01,2013-03-18 13:43:00,
2013-03-18 08:44:00,56.7,52.7,29.88,East,90,3.6,5.4,86,0.00,,,0.00,VWS V14.01,2013-03-18 13:44:00,
2013-03-18 08:45:00,56.7,52.7,29.88,ENE,68,5.8,8.3,86,0.00,,,0.00,VWS V14.01,2013-03-18 13:45:00,
2013-03-18 08:46:00,56.7,52.7,29.88,SE,135,5.4,5.8,86,0.00,,,0.00,VWS V14.01,2013-03-18 13:46:00,
2013-03-18 08:47:00,56.5,52.5,29.88,ESE,112,6.3,6.3,86,0.00,,,0.00,VWS V14.01,2013-03-18 13:47:00,
2013-03-18 08:48:00,56.5,52.5,29.88,East,90,7.2,7.2,86,0.00,,,0.00,VWS V14.01,2013-03-18 13:48:00,
2013-03-18 08:49:00,56.5,52.5,29.88,East,90,8.3,8.3,86,0.00,,,0.00,VWS V14.01,2013-03-18 13:49:00,
2013-03-18 08:50:00,56.1,52.2,29.88,East,90,8.1,8.3,86,0.00,,,0.00,VWS V14.01,2013-03-18 13:50:00,
2013-03-18 08:51:00,55.9,52.0,29.88,East,90,3.6,8.1,86,0.00,,,0.00,VWS V14.01,2013-03-18 13:51:00,
2013-03-18 08:52:00,55.8,51.8,29.88,East,90,6.3,8.3,86,0.00,,,0.00,VWS V14.01,2013-03-18 13:52:00,
2013-03-18 08:53:00,55.8,51.8,29.88,East,90,2.7,7.2,86,0.00,,,0.00,VWS V14.01,2013-03-18 13:53:00,
2013-03-18 08:54:00,55.8,51.8,29.88,ENE,68,4.9,6.7,86,0.00,,,0.00,VWS V14.01,2013-03-18 13:54:00,
2013-03-18 08:55:00,55.8,51.8,29.88,East,90,5.4,8.1,86,0.00,,,0.00,VWS V14.01,2013-03-18 13:55:00,
2013-03-18 08:56:00,55.6,51.6,29.88,East,90,5.4,9.6,86,0.00,,,0.00,VWS V14.01,2013-03-18 13:56:00,
2013-03-18 08:57:00,55.6,51.6,29.88,East,90,6.7,6.7,86,0.00,,,0.00,VWS V14.01,2013-03-18 13:57:00,
2013-03-18 08:58:00,55.4,51.5,29.88,ENE,68,5.8,6.7,86,0.00,,,0.00,VWS V14.01,2013-03-18 13:58:00,
2013-03-18 08:59:00,55.4,51.5,29.88,SE,135,5.8,8.3,86,0.00,,,0.00,VWS V14.01,2013-03-18 13:59:00,
2013-03-18 09:00:00,55.2,51.3,29.88,SE,135,4.0,5.8,86,0.00,,,0.00,VWS V14.01,2013-03-18 14:00:00,
2013-03-18 09:01:00,55.2,51.3,29.88,East,90,6.3,7.6,86,0.00,,,0.00,VWS V14.01,2013-03-18 14:01:00,
2013-03-18 09:02:00,55.2,51.3,29.88,SE,135,3.6,7.6,86,0.00,,,0.00,VWS V14.01,2013-03-18 14:02:00,
2013-03-18 09:03:00,55.2,51.3,29.88,ESE,112,3.1,4.0,86,0.00,,,0.00,VWS V14.01,2013-03-18 14:03:00,
2013-03-18 09:04:00,55.2,51.3,29.88,SE,135,4.0,4.0,86,0.00,,,0.00,VWS V14.01,2013-03-18 14:04:00,
2013-03-18 09:05:00,55.2,51.3,29.88,ESE,112,6.3,7.6,86,0.00,,,0.00,VWS V14.01,2013-03-18 14:05:00,
2013-03-18 09:06:00,55.0,51.1,29.88,ESE,112,3.1,6.3,86,0.00,,,0.00,VWS V14.01,2013-03-18 14:06:00,
2013-03-18 09:07:00,55.0,51.1,29.88,East,90,3.6,3.6,86,0.00,,,0.00,VWS V14.01,2013-03-18 14:07:00,
2013-03-18 09:08:00,55.2,51.3,29.88,East,90,4.9,6.3,86,0.00,,,0.00,VWS V14.01,2013-03-18 14:08:00,
2013-03-18 09:09:00,55.2,51.3,29.88,East,90,9.2,9.2,86,0.00,,,0.00,VWS V14.01,2013-03-18 14:09:00,
2013-03-18 09:10:00,55.0,51.1,29.88,ENE,68,4.9,9.2,86,0.00,,,0.00,VWS V14.01,2013-03-18 14:10:00,
2013-03-18 09:11:00,55.0,51.1,29.88,East,90,5.8,9.6,86,0.00,,,0.00,VWS V14.01,2013-03-18 14:11:00,
2013-03-18 09:13:00,55.0,51.1,29.88,East,90,6.3,8.1,86,0.00,,,0.00,VWS V14.01,2013-03-18 14:13:00,
2013-03-18 09:14:00,54.9,50.9,29.88,ENE,68,10.5,12.8,86,0.00,,,0.00,VWS V14.01,2013-03-18 14:14:00,
2013-03-18 09:15:00,54.7,50.7,29.88,ENE,68,5.8,10.5,86,0.00,,,0.00,VWS V14.01,2013-03-18 14:15:00,
2013-03-18 09:16:00,54.5,50.6,29.88,East,90,7.2,7.6,86,0.00,,,0.00,VWS V14.01,2013-03-18 14:16:00,
2013-03-18 09:17:00,54.5,50.6,29.88,ENE,68,10.1,10.1,86,0.00,,,0.00,VWS V14.01,2013-03-18 14:17:00,
2013-03-18 09:18:00,54.3,50.4,29.88,East,90,5.8,10.5,86,0.00,,,0.00,VWS V14.01,2013-03-18 14:18:00,
2013-03-18 09:19:00,54.1,50.2,29.88,East,90,5.4,8.1,86,0.00,,,0.00,VWS V14.01,2013-03-18 14:19:00,
2013-03-18 09:20:00,54.1,50.2,29.88,East,90,5.4,5.4,86,0.00,,,0.00,VWS V14.01,2013-03-18 14:20:00,
2013-03-18 09:21:00,54.1,50.2,29.91,East,90,10.5,11.0,86,0.00,,,0.00,VWS V14.01,2013-03-18 14:21:00,
2013-03-18 09:22:00,54.0,50.0,29.91,East,90,5.8,10.5,86,0.00,,,0.00,VWS V14.01,2013-03-18 14:22:00,
2013-03-18 09:23:00,53.8,49.8,29.91,NE,45,7.6,8.7,86,0.00,,,0.00,VWS V14.01,2013-03-18 14:23:00,
2013-03-18 09:24:00,53.6,49.7,29.91,ENE,68,2.7,8.3,86,0.00,,,0.00,VWS V14.01,2013-03-18 14:24:00,
2013-03-18 09:25:00,53.6,49.7,29.91,ENE,68,2.7,2.7,86,0.00,,,0.00,VWS V14.01,2013-03-18 14:25:00,
2013-03-18 09:26:00,53.6,49.7,29.91,East,90,4.9,5.8,86,0.00,,,0.00,VWS V14.01,2013-03-18 14:26:00,
2013-03-18 09:27:00,53.4,49.8,29.91,East,90,10.5,10.5,88,0.00,,,0.00,VWS V14.01,2013-03-18 14:27:00,
2013-03-18 09:28:00,53.2,49.6,29.91,ENE,68,3.6,10.5,88,0.00,,,0.00,VWS V14.01,2013-03-18 14:28:00,
2013-03-18 09:29:00,53.2,49.6,29.91,ENE,68,3.6,3.6,88,0.00,,,0.00,VWS V14.01,2013-03-18 14:29:00,
2013-03-18 09:30:00,53.2,49.6,29.91,East,90,10.5,10.5,88,0.00,,,0.00,VWS V14.01,2013-03-18 14:30:00,
2013-03-18 09:31:00,52.9,49.3,29.91,NE,45,10.5,15.4,88,0.00,,,0.00,VWS V14.01,2013-03-18 14:31:00,
2013-03-18 09:32:00,52.5,48.9,29.91,East,90,5.8,10.5,88,0.00,,,0.00,VWS V14.01,2013-03-18 14:32:00,
2013-03-18 09:33:00,52.3,48.7,29.91,East,90,5.4,7.6,88,0.00,,,0.00,VWS V14.01,2013-03-18 14:33:00,
2013-03-18 09:34:00,52.2,48.6,29.91,ENE,68,10.5,10.5,88,0.00,,,0.00,VWS V14.01,2013-03-18 14:34:00,
2013-03-18 09:35:00,52.0,48.4,29.91,East,90,6.3,10.5,88,0.00,,,0.00,VWS V14.01,2013-03-18 14:35:00,
2013-03-18 09:36:00,52.0,48.4,29.91,East,90,8.1,8.7,88,0.00,,,0.00,VWS V14.01,2013-03-18 14:36:00,
2013-03-18 09:37:00,52.0,48.4,29.91,East,90,8.1,8.1,88,0.00,,,0.00,VWS V14.01,2013-03-18 14:37:00,
2013-03-18 09:38:00,52.0,48.4,29.91,East,90,5.4,8.1,88,0.00,,,0.00,VWS V14.01,2013-03-18 14:38:00,
2013-03-18 09:39:00,52.0,48.4,29.91,East,90,4.0,7.6,88,0.00,,,0.00,VWS V14.01,2013-03-18 14:39:00,
2013-03-18 09:40:00,52.0,48.4,29.91,ENE,68,8.3,8.3,88,0.00,,,0.00,VWS V14.01,2013-03-18 14:40:00,
2013-03-18 09:41:00,52.0,48.4,29.91,East,90,5.8,8.3,88,0.00,,,0.00,VWS V14.01,2013-03-18 14:41:00,
2013-03-18 09:42:00,52.2,48.6,29.91,ESE,112,4.9,5.8,88,0.00,,,0.00,VWS V14.01,2013-03-18 14:42:00,
2013-03-18 09:43:00,52.0,48.4,29.91,East,90,7.6,7.6,88,0.00,,,0.00,VWS V14.01,2013-03-18 14:43:00,
2013-03-18 09:44:00,52.0,48.4,29.91,East,90,8.3,8.3,88,0.00,,,0.00,VWS V14.01,2013-03-18 14:44:00,
2013-03-18 09:45:00,51.3,47.7,29.91,East,90,4.9,8.3,88,0.00,,,0.00,VWS V14.01,2013-03-18 14:45:00,
2013-03-18 09:46:00,51.1,47.5,29.91,SE,135,5.4,5.4,88,0.00,,,0.00,VWS V14.01,2013-03-18 14:46:00,
2013-03-18 09:47:00,51.1,47.5,29.91,East,90,7.2,7.2,88,0.00,,,0.00,VWS V14.01,2013-03-18 14:47:00,
2013-03-18 09:48:00,50.5,47.0,29.91,East,90,5.8,8.3,88,0.00,,,0.00,VWS V14.01,2013-03-18 14:48:00,
2013-03-18 09:49:00,50.2,46.6,29.91,SE,135,5.4,5.8,88,0.00,,,0.00,VWS V14.01,2013-03-18 14:49:00,
2013-03-18 09:50:00,50.2,46.6,29.91,SE,135,3.6,6.3,88,0.00,,,0.00,VWS V14.01,2013-03-18 14:50:00,
2013-03-18 09:51:00,50.2,46.6,29.91,East,90,5.8,5.8,88,0.00,,,0.00,VWS V14.01,2013-03-18 14:51:00,
2013-03-18 09:52:00,50.2,46.9,29.91,East,90,2.7,5.8,88,0.00,,,0.00,VWS V14.01,2013-03-18 14:52:00,
2013-03-18 09:53:00,50.4,47.1,29.91,SE,135,4.9,6.3,88,0.00,,,0.00,VWS V14.01,2013-03-18 14:53:00,
2013-03-18 09:54:00,50.4,47.1,29.91,East,90,5.4,10.5,88,0.00,,,0.00,VWS V14.01,2013-03-18 14:54:00,
2013-03-18 09:55:00,50.2,46.9,29.91,ESE,112,6.3,6.7,88,0.00,,,0.00,VWS V14.01,2013-03-18 14:55:00,
2013-03-18 09:56:00,50.0,46.7,29.91,East,90,6.7,6.7,88,0.00,,,0.00,VWS V14.01,2013-03-18 14:56:00,
2013-03-18 09:57:00,49.5,46.2,29.91,NE,45,7.6,8.3,88,0.00,,,0.00,VWS V14.01,2013-03-18 14:57:00,
2013-03-18 09:58:00,49.3,46.0,29.91,East,90,6.7,7.6,88,0.00,,,0.00,VWS V14.01,2013-03-18 14:58:00,
2013-03-18 09:59:00,49.1,45.8,29.91,ESE,112,10.5,10.5,88,0.00,,,0.00,VWS V14.01,2013-03-18 14:59:00,
2013-03-18 10:00:00,48.9,45.7,29.91,ESE,112,8.7,10.5,88,0.00,,,0.00,VWS V14.01,2013-03-18 15:00:00,
2013-03-18 10:01:00,48.7,45.5,29.91,ESE,112,6.3,8.7,88,0.00,,,0.00,VWS V14.01,2013-03-18 15:01:00,
2013-03-18 10:02:00,48.6,45.3,29.91,SE,135,4.9,7.6,88,0.00,,,0.00,VWS V14.01,2013-03-18 15:02:00,
2013-03-18 10:03:00,48.6,45.3,29.91,ESE,112,4.9,8.3,88,0.00,,,0.00,VWS V14.01,2013-03-18 15:03:00,
2013-03-18 10:04:00,48.4,45.4,29.91,SE,135,2.7,5.8,90,0.00,,,0.00,VWS V14.01,2013-03-18 15:04:00,
2013-03-18 10:05:00,48.2,45.3,29.91,East,90,7.2,8.7,90,0.00,,,0.00,VWS V14.01,2013-03-18 15:05:00,
2013-03-18 10:06:00,48.0,45.1,29.91,East,90,4.0,9.6,90,0.00,,,0.00,VWS V14.01,2013-03-18 15:06:00,
2013-03-18 10:07:00,47.8,44.9,29.91,East,90,8.3,8.3,90,0.00,,,0.00,VWS V14.01,2013-03-18 15:07:00,
2013-03-18 10:08:00,47.8,44.9,29.91,East,90,7.6,8.3,90,0.00,,,0.00,VWS V14.01,2013-03-18 15:08:00,
2013-03-18 10:09:00,47.7,44.7,29.91,ENE,68,8.1,8.1,90,0.00,,,0.00,VWS V14.01,2013-03-18 15:09:00,
2013-03-18 10:10:00,47.5,44.5,29.91,NE,45,11.0,11.4,90,0.00,,,0.00,VWS V14.01,2013-03-18 15:10:00,
2013-03-18 10:11:00,47.3,44.4,29.91,East,90,7.6,11.0,90,0.00,,,0.00,VWS V14.01,2013-03-18 15:11:00,
2013-03-18 10:12:00,46.8,43.8,29.91,East,90,11.0,11.0,90,0.00,,,0.00,VWS V14.01,2013-03-18 15:12:00,
2013-03-18 10:13:00,46.8,43.8,29.91,East,90,7.6,12.8,90,0.00,,,0.00,VWS V14.01,2013-03-18 15:13:00,
2013-03-18 10:14:00,46.8,43.8,29.91,East,90,5.4,7.6,90,0.00,,,0.00,VWS V14.01,2013-03-18 15:14:00,
2013-03-18 10:15:00,46.8,43.8,29.91,East,90,5.4,10.1,90,0.00,,,0.00,VWS V14.01,2013-03-18 15:15:00,
2013-03-18 10:16:00,46.6,43.7,29.91,SE,135,4.9,7.6,90,0.00,,,0.00,VWS V14.01,2013-03-18 15:16:00,
2013-03-18 10:17:00,46.6,43.7,29.91,East,90,4.0,11.0,90,0.00,,,0.00,VWS V14.01,2013-03-18 15:17:00,
2013-03-18 10:18:00,46.4,43.8,29.91,East,90,7.2,10.1,90,0.00,,,0.00,VWS V14.01,2013-03-18 15:18:00,
2013-03-18 10:19:00,46.0,43.4,29.91,SE,135,7.6,8.3,90,0.00,,,0.00,VWS V14.01,2013-03-18 15:19:00,
2013-03-18 10:20:00,46.0,43.4,29.91,East,90,5.4,7.6,90,0.00,,,0.00,VWS V14.01,2013-03-18 15:20:00,
2013-03-18 10:21:00,46.0,43.4,29.91,East,90,6.3,9.2,90,0.00,,,0.00,VWS V14.01,2013-03-18 15:21:00,
2013-03-18 10:23:00,45.5,43.2,29.91,East,90,8.1,14.1,92,0.00,,,0.00,VWS V14.01,2013-03-18 15:23:00,
2013-03-18 10:24:00,45.5,43.2,29.91,East,90,7.2,8.1,92,0.00,,,0.00,VWS V14.01,2013-03-18 15:24:00,
2013-03-18 10:25:00,45.7,43.3,29.91,East,90,5.8,8.1,92,0.00,,,0.00,VWS V14.01,2013-03-18 15:25:00,
2013-03-18 10:26:00,45.7,43.3,29.91,East,90,5.4,12.8,92,0.00,,,0.00,VWS V14.01,2013-03-18 15:26:00,
2013-03-18 10:27:00,45.7,43.3,29.91,East,90,3.6,10.5,92,0.00,,,0.00,VWS V14.01,2013-03-18 15:27:00,
2013-03-18 10:28:00,45.7,43.3,29.91,East,90,11.4,11.4,92,0.00,,,0.00,VWS V14.01,2013-03-18 15:28:00,
2013-03-18 10:29:00,45.3,43.3,29.91,SE,135,5.4,11.4,92,0.00,,,0.00,VWS V14.01,2013-03-18 15:29:00,
2013-03-18 10:30:00,45.5,43.5,29.91,East,90,6.3,6.3,92,0.00,,,0.00,VWS V14.01,2013-03-18 15:30:00,
2013-03-18 10:31:00,45.5,43.5,29.91,East,90,7.2,10.1,92,0.00,,,0.00,VWS V14.01,2013-03-18 15:31:00,
2013-03-18 10:32:00,45.3,43.3,29.91,SE,135,7.6,8.1,92,0.00,,,0.00,VWS V14.01,2013-03-18 15:32:00,
2013-03-18 10:33:00,45.3,43.3,29.91,East,90,5.8,7.6,92,0.00,,,0.00,VWS V14.01,2013-03-18 15:33:00,
2013-03-18 10:34:00,45.5,43.5,29.91,East,90,2.7,10.5,92,0.00,,,0.00,VWS V14.01,2013-03-18 15:34:00,
2013-03-18 10:35:00,45.5,43.5,29.91,East,90,5.4,7.2,92,0.00,,,0.00,VWS V14.01,2013-03-18 15:35:00,
2013-03-18 10:36:00,45.5,43.5,29.91,East,90,5.4,5.4,92,0.00,,,0.00,VWS V14.01,2013-03-18 15:36:00,
2013-03-18 10:37:00,45.3,43.6,29.91,SE,135,5.4,10.1,94,0.00,,,0.00,VWS V14.01,2013-03-18 15:37:00,
2013-03-18 10:38:00,45.3,43.6,29.91,SE,135,4.0,5.4,94,0.00,,,0.00,VWS V14.01,2013-03-18 15:38:00,
2013-03-18 10:39:00,45.3,43.6,29.91,SE,135,11.0,11.0,94,0.00,,,0.00,VWS V14.01,2013-03-18 15:39:00,
2013-03-18 10:40:00,45.3,43.6,29.91,ESE,112,11.0,13.2,94,0.00,,,0.00,VWS V14.01,2013-03-18 15:40:00,
2013-03-18 10:41:00,45.0,43.5,29.91,East,90,8.3,12.8,94,0.00,,,0.00,VWS V14.01,2013-03-18 15:41:00,
2013-03-18 10:42:00,44.6,43.1,29.91,East,90,5.8,12.3,94,0.00,,,0.00,VWS V14.01,2013-03-18 15:42:00,
2013-03-18 10:43:00,44.6,43.1,29.91,East,90,6.3,9.6,94,0.00,,,0.00,VWS V14.01,2013-03-18 15:43:00,
2013-03-18 10:44:00,44.6,43.1,29.91,East,90,8.3,8.3,94,0.00,,,0.00,VWS V14.01,2013-03-18 15:44:00,
2013-03-18 10:45:00,44.6,42.8,29.91,East,90,10.5,10.5,94,0.00,,,0.00,VWS V14.01,2013-03-18 15:45:00,
2013-03-18 10:46:00,44.4,42.7,29.91,East,90,10.5,13.2,94,0.00,,,0.00,VWS V14.01,2013-03-18 15:46:00,
2013-03-18 10:47:00,44.2,42.5,29.91,ESE,112,7.6,12.3,94,0.00,,,0.00,VWS V14.01,2013-03-18 15:47:00,
2013-03-18 10:48:00,44.1,42.0,29.91,East,90,6.3,10.1,92,0.00,,,0.00,VWS V14.01,2013-03-18 15:48:00,
2013-03-18 10:49:00,44.2,41.6,29.91,NE,45,8.7,8.7,90,0.00,,,0.00,VWS V14.01,2013-03-18 15:49:00,
2013-03-18 10:50:00,44.1,41.5,29.91,East,90,8.3,8.7,90,0.00,,,0.00,VWS V14.01,2013-03-18 15:50:00,
2013-03-18 10:51:00,43.7,40.8,29.91,East,90,7.2,11.0,90,0.00,,,0.00,VWS V14.01,2013-03-18 15:51:00,
2013-03-18 10:52:00,43.7,40.5,29.91,South,180,8.1,12.3,88,0.00,,,0.00,VWS V14.01,2013-03-18 15:52:00,
2013-03-18 10:53:00,43.5,40.1,29.91,East,90,4.0,8.1,88,0.00,,,0.00,VWS V14.01,2013-03-18 15:53:00,
2013-03-18 10:55:00,43.5,40.1,29.91,East,90,10.1,10.1,88,0.00,,,0.00,VWS V14.01,2013-03-18 15:55:00,
2013-03-18 10:56:00,43.5,39.5,29.91,East,90,10.5,10.5,86,0.00,,,0.00,VWS V14.01,2013-03-18 15:56:00,
2013-03-18 10:57:00,43.3,38.7,29.91,East,90,15.9,15.9,84,0.00,,,0.00,VWS V14.01,2013-03-18 15:57:00,
2013-03-18 10:58:00,43.0,38.3,29.91,East,90,10.1,15.9,84,0.00,,,0.00,VWS V14.01,2013-03-18 15:58:00,
2013-03-18 10:59:00,42.8,38.2,29.91,East,90,7.2,11.0,84,0.00,,,0.00,VWS V14.01,2013-03-18 15:59:00,
2013-03-18 11:00:00,43.0,38.3,29.91,East,90,12.8,15.9,84,0.00,,,0.00,VWS V14.01,2013-03-18 16:00:00,
2013-03-18 11:01:00,42.8,38.2,29.91,East,90,8.7,12.8,84,0.00,,,0.00,VWS V14.01,2013-03-18 16:01:00,
2013-03-18 11:02:00,42.4,37.8,29.91,SE,135,8.3,14.5,84,0.00,,,0.00,VWS V14.01,2013-03-18 16:02:00,
2013-03-18 11:03:00,42.3,37.3,29.91,East,90,8.3,9.2,82,0.00,,,0.00,VWS V14.01,2013-03-18 16:03:00,
2013-03-18 11:04:00,42.3,37.3,29.91,NE,45,10.1,10.1,82,0.00,,,0.00,VWS V14.01,2013-03-18 16:04:00,
2013-03-18 11:05:00,42.1,36.8,29.91,East,90,5.8,10.1,82,0.00,,,0.00,VWS V14.01,2013-03-18 16:05:00,
2013-03-18 11:06:00,42.1,36.8,29.94,ESE,112,8.1,10.1,82,0.00,,,0.00,VWS V14.01,2013-03-18 16:06:00,
2013-03-18 11:07:00,42.1,36.8,29.94,East,90,7.2,8.1,82,0.00,,,0.00,VWS V14.01,2013-03-18 16:07:00,
2013-03-18 11:08:00,42.1,36.8,29.94,ESE,112,8.7,8.7,82,0.00,,,0.00,VWS V14.01,2013-03-18 16:08:00,
2013-03-18 11:09:00,41.9,36.7,29.94,East,90,8.1,8.7,82,0.00,,,0.00,VWS V14.01,2013-03-18 16:09:00,
2013-03-18 11:10:00,41.9,36.7,29.94,East,90,8.1,8.1,82,0.00,,,0.00,VWS V14.01,2013-03-18 16:10:00,
2013-03-18 11:11:00,41.9,36.7,29.94,East,90,8.1,8.1,82,0.00,,,0.00,VWS V14.01,2013-03-18 16:11:00,
2013-03-18 11:12:00,41.9,36.7,29.94,East,90,8.1,8.1,82,0.00,,,0.00,VWS V14.01,2013-03-18 16:12:00,
2013-03-18 11:13:00,41.7,36.2,29.94,East,90,8.1,8.1,80,0.00,,,0.00,VWS V14.01,2013-03-18 16:13:00,
2013-03-18 11:14:00,41.5,36.0,29.94,East,90,8.1,8.1,80,0.00,,,0.00,VWS V14.01,2013-03-18 16:14:00,
2013-03-18 11:15:00,41.5,35.7,29.94,East,90,8.1,8.1,80,0.00,,,0.00,VWS V14.01,2013-03-18 16:15:00,
2013-03-18 11:16:00,41.7,35.9,29.94,East,90,8.1,8.1,80,0.00,,,0.00,VWS V14.01,2013-03-18 16:16:00,
2013-03-18 11:17:00,41.7,36.2,29.94,East,90,8.1,8.1,80,0.00,,,0.00,VWS V14.01,2013-03-18 16:17:00,
2013-03-18 11:18:00,41.5,35.7,29.94,East,90,8.1,8.1,80,0.00,,,0.00,VWS V14.01,2013-03-18 16:18:00,
2013-03-18 11:19:00,41.7,35.5,29.94,East,90,8.1,8.1,78,0.00,,,0.00,VWS V14.01,2013-03-18 16:19:00,
2013-03-18 11:20:00,41.7,35.5,29.94,East,90,8.1,8.1,78,0.00,,,0.00,VWS V14.01,2013-03-18 16:20:00,
2013-03-18 11:21:00,41.7,35.5,29.94,East,90,8.1,8.1,78,0.00,,,0.00,VWS V14.01,2013-03-18 16:21:00,
2013-03-18 11:22:00,41.7,35.5,29.94,East,90,8.1,8.1,78,0.00,,,0.00,VWS V14.01,2013-03-18 16:22:00,
2013-03-18 11:23:00,41.5,35.4,29.94,East,90,8.3,13.2,78,0.00,,,0.00,VWS V14.01,2013-03-18 16:23:00,
2013-03-18 11:24:00,41.2,34.7,29.94,East,90,7.6,14.5,78,0.00,,,0.00,VWS V14.01,2013-03-18 16:24:00,
2013-03-18 11:25:00,41.2,34.7,29.94,East,90,7.6,14.5,78,0.00,,,0.00,VWS V14.01,2013-03-18 16:25:00,
2013-03-18 11:26:00,41.2,34.7,29.94,East,90,9.6,9.6,78,0.00,,,0.00,VWS V14.01,2013-03-18 16:26:00,
2013-03-18 11:27:00,41.4,34.9,29.94,SE,135,8.3,9.6,78,0.00,,,0.00,VWS V14.01,2013-03-18 16:27:00,
2013-03-18 11:28:00,41.4,34.9,29.94,East,90,11.0,11.0,78,0.00,,,0.00,VWS V14.01,2013-03-18 16:28:00,
2013-03-18 11:29:00,41.2,34.4,29.94,East,90,5.4,10.5,76,0.00,,,0.00,VWS V14.01,2013-03-18 16:29:00,
2013-03-18 11:30:00,41.2,34.4,29.94,SE,135,4.0,10.5,76,0.00,,,0.00,VWS V14.01,2013-03-18 16:30:00,
2013-03-18 11:31:00,41.5,35.0,29.94,East,90,11.0,11.4,78,0.00,,,0.00,VWS V14.01,2013-03-18 16:31:00,
2013-03-18 11:32:00,41.5,34.7,29.94,East,90,11.0,11.0,76,0.00,,,0.00,VWS V14.01,2013-03-18 16:32:00,
2013-03-18 11:33:00,41.5,34.4,29.94,East,90,8.1,12.8,76,0.00,,,0.00,VWS V14.01,2013-03-18 16:33:00,
2013-03-18 11:34:00,41.7,34.2,29.94,East,90,10.5,11.4,74,0.00,,,0.00,VWS V14.01,2013-03-18 16:34:00,
2013-03-18 11:35:00,41.5,33.7,29.94,East,90,10.5,11.4,74,0.00,,,0.00,VWS V14.01,2013-03-18 16:35:00,
2013-03-18 11:36:00,41.9,34.1,29.97,ESE,112,5.4,10.5,74,0.00,,,0.00,VWS V14.01,2013-03-18 16:36:00,
2013-03-18 11:37:00,41.9,33.7,29.97,East,90,6.3,7.6,72,0.00,,,0.00,VWS V14.01,2013-03-18 16:37:00,
2013-03-18 11:38:00,42.3,34.1,29.97,East,90,8.1,8.3,72,0.00,,,0.00,VWS V14.01,2013-03-18 16:38:00,
2013-03-18 11:39:00,42.1,33.5,29.97,East,90,7.2,11.0,72,0.00,,,0.00,VWS V14.01,2013-03-18 16:39:00,
2013-03-18 11:40:00,41.9,33.0,29.97,South,180,9.6,9.6,70,0.00,,,0.00,VWS V14.01,2013-03-18 16:40:00,
2013-03-18 11:41:00,42.1,33.2,29.97,ESE,112,10.5,10.5,70,0.00,,,0.00,VWS V14.01,2013-03-18 16:41:00,
2013-03-18 11:42:00,42.4,33.9,29.97,East,90,16.8,16.8,72,0.00,,,0.00,VWS V14.01,2013-03-18 16:42:00,
2013-03-18 11:43:00,42.4,33.9,29.97,East,90,8.7,16.8,72,0.00,,,0.00,VWS V14.01,2013-03-18 16:43:00,
2013-03-18 11:44:00,42.4,33.5,29.97,ESE,112,13.2,13.2,70,0.00,,,0.00,VWS V14.01,2013-03-18 16:44:00,
2013-03-18 11:45:00,42.4,33.5,29.97,ESE,112,13.2,13.2,70,0.00,,,0.00,VWS V14.01,2013-03-18 16:45:00,
2013-03-18 11:46:00,42.1,32.8,29.97,East,90,8.3,13.2,70,0.00,,,0.00,VWS V14.01,2013-03-18 16:46:00,
2013-03-18 11:47:00,42.3,33.0,29.97,East,90,10.5,14.1,70,0.00,,,0.00,VWS V14.01,2013-03-18 16:47:00,
2013-03-18 11:48:00,42.3,33.0,29.97,East,90,13.2,13.6,70,0.00,,,0.00,VWS V14.01,2013-03-18 16:48:00,
2013-03-18 11:49:00,41.9,32.3,29.97,East,90,15.4,15.4,68,0.00,,,0.00,VWS V14.01,2013-03-18 16:49:00,
2013-03-18 11:50:00,41.9,32.3,29.97,East,90,7.6,17.0,68,0.00,,,0.00,VWS V14.01,2013-03-18 16:50:00,
2013-03-18 11:51:00,41.9,32.7,29.97,East,90,8.3,11.9,70,0.00,,,0.00,VWS V14.01,2013-03-18 16:51:00,
2013-03-18 11:52:00,41.9,32.3,29.97,East,90,12.8,12.8,68,0.00,,,0.00,VWS V14.01,2013-03-18 16:52:00,
2013-03-18 11:53:00,41.7,32.5,29.97,East,90,8.1,12.8,70,0.00,,,0.00,VWS V14.01,2013-03-18 16:53:00,
2013-03-18 11:54:00,41.9,32.7,29.97,East,90,8.1,8.1,70,0.00,,,0.00,VWS V14.01,2013-03-18 16:54:00,
2013-03-18 11:55:00,41.9,32.7,29.97,SE,135,6.3,12.3,70,0.00,,,0.00,VWS V14.01,2013-03-18 16:55:00,
2013-03-18 11:56:00,41.9,32.7,29.97,East,90,8.3,10.1,70,0.00,,,0.00,VWS V14.01,2013-03-18 16:56:00,
2013-03-18 11:57:00,42.1,32.8,29.97,SE,135,11.9,11.9,70,0.00,,,0.00,VWS V14.01,2013-03-18 16:57:00,
2013-03-18 11:58:00,41.9,32.7,29.97,SE,135,9.2,11.9,70,0.00,,,0.00,VWS V14.01,2013-03-18 16:58:00,
2013-03-18 11:59:00,41.9,32.7,29.97,ESE,112,6.3,9.2,70,0.00,,,0.00,VWS V14.01,2013-03-18 16:59:00,
2013-03-18 12:00:00,41.7,32.5,29.97,ENE,68,3.1,10.1,70,0.00,,,0.00,VWS V14.01,2013-03-18 17:00:00,
2013-03-18 12:01:00,41.7,32.5,29.97,SE,135,8.1,8.1,70,0.00,,,0.00,VWS V14.01,2013-03-18 17:01:00,
2013-03-18 12:02:00,41.7,32.5,29.97,SE,135,5.4,8.1,70,0.00,,,0.00,VWS V14.01,2013-03-18 17:02:00,
2013-03-18 12:03:00,42.1,32.8,29.97,East,90,5.4,8.3,70,0.00,,,0.00,VWS V14.01,2013-03-18 17:03:00,
2013-03-18 12:04:00,42.1,32.8,29.97,East,90,8.3,10.1,70,0.00,,,0.00,VWS V14.01,2013-03-18 17:04:00,
2013-03-18 12:05:00,42.1,33.2,29.97,ESE,112,4.9,8.3,70,0.00,,,0.00,VWS V14.01,2013-03-18 17:05:00,
2013-03-18 12:06:00,42.1,33.2,29.97,East,90,4.0,6.3,70,0.00,,,0.00,VWS V14.01,2013-03-18 17:06:00,
2013-03-18 12:07:00,42.3,33.4,29.97,East,90,8.1,8.1,70,0.00,,,0.00,VWS V14.01,2013-03-18 17:07:00,
2013-03-18 12:08:00,42.1,32.8,29.97,East,90,3.1,10.1,70,0.00,,,0.00,VWS V14.01,2013-03-18 17:08:00,
2013-03-18 12:09:00,42.1,32.8,29.97,ESE,112,3.6,3.6,70,0.00,,,0.00,VWS V14.01,2013-03-18 17:09:00,
2013-03-18 12:10:00,42.3,33.4,29.97,East,90,8.1,8.3,70,0.00,,,0.00,VWS V14.01,2013-03-18 17:10:00,
2013-03-18 12:11:00,42.1,33.2,29.97,East,90,7.6,8.1,70,0.00,,,0.00,VWS V14.01,2013-03-18 17:11:00,
2013-03-18 12:12:00,42.3,33.4,29.97,ESE,112,8.3,8.3,70,0.00,,,0.00,VWS V14.01,2013-03-18 17:12:00,
2013-03-18 12:13:00,42.1,33.5,29.97,East,90,4.0,8.3,72,0.00,,,0.00,VWS V14.01,2013-03-18 17:13:00,
2013-03-18 12:14:00,42.3,33.7,29.97,East,90,4.5,7.6,72,0.00,,,0.00,VWS V14.01,2013-03-18 17:14:00,
2013-03-18 12:15:00,42.3,33.7,29.97,East,90,6.3,8.1,72,0.00,,,0.00,VWS V14.01,2013-03-18 17:15:00,
2013-03-18 12:16:00,42.3,34.1,29.97,East,90,8.3,8.3,72,0.00,,,0.00,VWS V14.01,2013-03-18 17:16:00,
2013-03-18 12:17:00,42.3,34.1,29.97,ESE,112,5.4,9.6,72,0.00,,,0.00,VWS V14.01,2013-03-18 17:17:00,
2013-03-18 12:18:00,42.1,33.9,29.97,East,90,4.9,6.3,72,0.00,,,0.00,VWS V14.01,2013-03-18 17:18:00,
2013-03-18 12:19:00,42.1,33.9,29.97,East,90,4.0,10.5,72,0.00,,,0.00,VWS V14.01,2013-03-18 17:19:00,
2013-03-18 12:20:00,42.1,33.9,29.97,ENE,68,10.5,10.5,72,0.00,,,0.00,VWS V14.01,2013-03-18 17:20:00,
2013-03-18 12:22:00,42.3,34.1,29.97,East,90,6.3,10.5,72,0.00,,,0.00,VWS V14.01,2013-03-18 17:22:00,
2013-03-18 12:23:00,41.9,33.7,29.97,East,90,10.1,10.1,72,0.00,,,0.00,VWS V14.01,2013-03-18 17:23:00,
2013-03-18 12:24:00,41.7,33.5,29.97,East,90,6.3,10.1,72,0.00,,,0.00,VWS V14.01,2013-03-18 17:24:00,
2013-03-18 12:25:00,41.9,33.7,29.97,East,90,6.7,6.7,72,0.00,,,0.00,VWS V14.01,2013-03-18 17:25:00,
2013-03-18 12:26:00,41.9,33.7,29.97,East,90,8.7,8.7,72,0.00,,,0.00,VWS V14.01,2013-03-18 17:26:00,
2013-03-18 12:27:00,41.9,33.7,29.97,East,90,6.3,8.7,72,0.00,,,0.00,VWS V14.01,2013-03-18 17:27:00,
2013-03-18 12:28:00,41.7,33.2,29.97,ESE,112,8.3,8.3,72,0.00,,,0.00,VWS V14.01,2013-03-18 17:28:00,
2013-03-18 12:29:00,41.5,33.0,29.97,ESE,112,6.3,10.1,72,0.00,,,0.00,VWS V14.01,2013-03-18 17:29:00,
2013-03-18 12:30:00,41.7,33.5,29.97,NE,45,10.5,10.5,72,0.00,,,0.00,VWS V14.01,2013-03-18 17:30:00,
2013-03-18 12:31:00,41.9,33.7,29.97,East,90,8.1,12.3,72,0.00,,,0.00,VWS V14.01,2013-03-18 17:31:00,
2013-03-18 12:32:00,41.7,33.5,29.97,East,90,12.8,12.8,72,0.00,,,0.00,VWS V14.01,2013-03-18 17:32:00,
2013-03-18 12:33:00,41.5,33.4,29.97,East,90,8.3,13.2,72,0.00,,,0.00,VWS V14.01,2013-03-18 17:33:00,
2013-03-18 12:34:00,41.5,33.4,29.97,East,90,7.6,11.4,72,0.00,,,0.00,VWS V14.01,2013-03-18 17:34:00,
2013-03-18 12:35:00,41.7,33.5,29.97,East,90,5.8,8.7,72,0.00,,,0.00,VWS V14.01,2013-03-18 17:35:00,
2013-03-18 12:36:00,41.9,34.1,29.97,East,90,10.1,10.1,74,0.00,,,0.00,VWS V14.01,2013-03-18 17:36:00,
2013-03-18 12:37:00,41.9,34.1,29.97,East,90,11.0,13.2,74,0.00,,,0.00,VWS V14.01,2013-03-18 17:37:00,
2013-03-18 12:38:00,41.7,33.5,29.97,East,90,6.3,11.0,72,0.00,,,0.00,VWS V14.01,2013-03-18 17:38:00,
2013-03-18 12:39:00,41.5,33.4,29.97,East,90,8.3,8.3,72,0.00,,,0.00,VWS V14.01,2013-03-18 17:39:00,
2013-03-18 12:40:00,41.9,33.7,29.97,East,90,6.3,8.3,72,0.00,,,0.00,VWS V14.01,2013-03-18 17:40:00,
2013-03-18 12:41:00,42.1,33.9,29.97,East,90,8.1,8.7,72,0.00,,,0.00,VWS V14.01,2013-03-18 17:41:00,
2013-03-18 12:42:00,42.1,33.9,29.97,ENE,68,5.8,8.3,72,0.00,,,0.00,VWS V14.01,2013-03-18 17:42:00,
2013-03-18 12:43:00,42.4,34.2,29.97,East,90,12.8,12.8,72,0.00,,,0.00,VWS V14.01,2013-03-18 17:43:00,
2013-03-18 12:44:00,42.3,34.1,29.97,ENE,68,7.6,12.8,72,0.00,,,0.00,VWS V14.01,2013-03-18 17:44:00,
2013-03-18 12:45:00,42.8,34.2,29.97,SE,135,5.8,8.3,72,0.00,,,0.00,VWS V14.01,2013-03-18 17:45:00,
2013-03-18 12:46:00,42.8,34.2,29.97,East,90,7.2,10.1,72,0.00,,,0.00,VWS V14.01,2013-03-18 17:46:00,
2013-03-18 12:47:00,43.0,33.7,29.97,East,90,6.3,8.3,70,0.00,,,0.00,VWS V14.01,2013-03-18 17:47:00,
2013-03-18 12:48:00,43.0,33.7,29.97,East,90,8.1,8.1,70,0.00,,,0.00,VWS V14.01,2013-03-18 17:48:00,
2013-03-18 12:49:00,43.0,33.3,29.97,East,90,7.6,8.1,68,0.00,,,0.00,VWS V14.01,2013-03-18 17:49:00,
2013-03-18 12:50:00,43.3,34.0,29.97,ENE,68,5.4,5.4,70,0.00,,,0.00,VWS V14.01,2013-03-18 17:50:00,
2013-03-18 12:51:00,43.5,34.2,29.97,East,90,10.1,10.1,70,0.00,,,0.00,VWS V14.01,2013-03-18 17:51:00,
2013-03-18 12:52:00,43.2,33.5,29.97,East,90,9.6,11.0,68,0.00,,,0.00,VWS V14.01,2013-03-18 17:52:00,
2013-03-18 12:53:00,43.2,33.5,29.97,East,90,8.7,9.6,68,0.00,,,0.00,VWS V14.01,2013-03-18 17:53:00,
2013-03-18 12:54:00,43.2,33.5,29.97,East,90,5.8,8.7,68,0.00,,,0.00,VWS V14.01,2013-03-18 17:54:00,
2013-03-18 12:55:00,43.3,33.7,29.97,East,90,8.7,8.7,68,0.00,,,0.00,VWS V14.01,2013-03-18 17:55:00,
2013-03-18 12:56:00,43.3,33.7,29.97,ENE,68,6.3,8.7,68,0.00,,,0.00,VWS V14.01,2013-03-18 17:56:00,
2013-03-18 12:57:00,43.3,33.3,29.97,ENE,68,8.1,8.3,68,0.00,,,0.00,VWS V14.01,2013-03-18 17:57:00,
2013-03-18 12:58:00,43.5,33.5,29.97,East,90,2.7,8.1,68,0.00,,,0.00,VWS V14.01,2013-03-18 17:58:00,
2013-03-18 12:59:00,44.1,34.4,29.97,East,90,3.6,4.9,68,0.00,,,0.00,VWS V14.01,2013-03-18 17:59:00,
2013-03-18 13:00:00,44.2,34.2,29.97,NE,45,8.7,8.7,68,0.00,,,0.00,VWS V14.01,2013-03-18 18:00:00,
2013-03-18 13:01:00,43.9,33.5,29.97,East,90,9.2,10.1,66,0.00,,,0.00,VWS V14.01,2013-03-18 18:01:00,
2013-03-18 13:02:00,43.7,32.9,29.97,ENE,68,6.3,10.5,66,0.00,,,0.00,VWS V14.01,2013-03-18 18:02:00,
2013-03-18 13:03:00,43.7,32.9,29.97,NE,45,9.6,9.6,66,0.00,,,0.00,VWS V14.01,2013-03-18 18:03:00,
2013-03-18 13:04:00,43.9,33.1,29.97,SE,135,6.7,10.1,66,0.00,,,0.00,VWS V14.01,2013-03-18 18:04:00,
2013-03-18 13:05:00,43.7,32.5,29.97,ENE,68,7.6,7.6,64,0.00,,,0.00,VWS V14.01,2013-03-18 18:05:00,
2013-03-18 13:06:00,43.5,32.4,29.97,East,90,15.0,15.0,64,0.00,,,0.00,VWS V14.01,2013-03-18 18:06:00,
2013-03-18 13:07:00,43.3,31.8,29.97,East,90,8.7,15.0,64,0.00,,,0.00,VWS V14.01,2013-03-18 18:07:00,
2013-03-18 13:08:00,43.3,32.2,29.97,NE,45,10.1,15.0,64,0.00,,,0.00,VWS V14.01,2013-03-18 18:08:00,
2013-03-18 13:09:00,43.3,31.8,29.97,East,90,10.5,10.5,64,0.00,,,0.00,VWS V14.01,2013-03-18 18:09:00,
2013-03-18 13:10:00,43.2,31.6,29.97,East,90,14.5,14.5,64,0.00,,,0.00,VWS V14.01,2013-03-18 18:10:00,
2013-03-18 13:11:00,43.0,31.5,29.97,East,90,8.7,14.5,64,0.00,,,0.00,VWS V14.01,2013-03-18 18:11:00,
2013-03-18 13:12:00,43.3,32.2,29.97,East,90,5.4,8.7,64,0.00,,,0.00,VWS V14.01,2013-03-18 18:12:00,
2013-03-18 13:13:00,43.2,31.6,29.97,East,90,5.4,7.2,64,0.00,,,0.00,VWS V14.01,2013-03-18 18:13:00,
2013-03-18 13:14:00,43.3,32.2,29.97,NE,45,7.6,7.6,64,0.00,,,0.00,VWS V14.01,2013-03-18 18:14:00,
2013-03-18 13:15:00,43.5,32.4,29.97,East,90,6.3,9.6,64,0.00,,,0.00,VWS V14.01,2013-03-18 18:15:00,
2013-03-18 13:16:00,43.7,32.5,29.97,ESE,112,8.7,12.8,64,0.00,,,0.00,VWS V14.01,2013-03-18 18:16:00,
2013-03-18 13:17:00,43.7,32.5,29.97,East,90,4.9,8.7,64,0.00,,,0.00,VWS V14.01,2013-03-18 18:17:00,
2013-03-18 13:18:00,43.7,32.5,29.97,East,90,8.7,8.7,64,0.00,,,0.00,VWS V14.01,2013-03-18 18:18:00,
2013-03-18 13:19:00,44.1,32.9,29.97,East,90,11.0,11.0,64,0.00,,,0.00,VWS V14.01,2013-03-18 18:19:00,
2013-03-18 13:20:00,43.9,31.9,29.97,SE,135,6.3,11.0,62,0.00,,,0.00,VWS V14.01,2013-03-18 18:20:00,
2013-03-18 13:21:00,44.1,32.1,29.97,East,90,7.6,7.6,62,0.00,,,0.00,VWS V14.01,2013-03-18 18:21:00,
2013-03-18 13:22:00,44.2,32.3,29.97,East,90,4.9,8.1,62,0.00,,,0.00,VWS V14.01,2013-03-18 18:22:00,
2013-03-18 13:23:00,44.6,32.2,29.97,SE,135,10.1,12.8,62,0.00,,,0.00,VWS V14.01,2013-03-18 18:23:00,
2013-03-18 13:24:00,44.2,31.5,29.97,SE,135,12.3,12.3,60,0.00,,,0.00,VWS V14.01,2013-03-18 18:24:00,
2013-03-18 13:25:00,44.2,31.5,29.97,ENE,68,7.2,15.4,60,0.00,,,0.00,VWS V14.01,2013-03-18 18:25:00,
2013-03-18 13:26:00,44.2,31.5,29.97,SSE,158,8.1,8.1,60,0.00,,,0.00,VWS V14.01,2013-03-18 18:26:00,
2013-03-18 13:27:00,45.0,32.1,29.97,NE,45,8.1,8.1,60,0.00,,,0.00,VWS V14.01,2013-03-18 18:27:00,
2013-03-18 13:28:00,45.5,33.0,29.97,East,90,8.1,10.1,62,0.00,,,0.00,VWS V14.01,2013-03-18 18:28:00,
2013-03-18 13:29:00,45.5,32.6,29.97,ESE,112,4.5,8.1,60,0.00,,,0.00,VWS V14.01,2013-03-18 18:29:00,
2013-03-18 13:30:00,45.7,32.8,29.97,SE,135,6.3,6.3,60,0.00,,,0.00,VWS V14.01,2013-03-18 18:30:00,
2013-03-18 13:31:00,45.9,32.6,29.97,SE,135,5.8,8.1,60,0.00,,,0.00,VWS V14.01,2013-03-18 18:31:00,
2013-03-18 13:32:00,45.5,31.8,29.97,ENE,68,7.6,7.6,58,0.00,,,0.00,VWS V14.01,2013-03-18 18:32:00,
2013-03-18 13:33:00,45.7,32.0,29.97,East,90,8.1,10.1,58,0.00,,,0.00,VWS V14.01,2013-03-18 18:33:00,
2013-03-18 13:35:00,45.7,31.5,29.97,East,90,5.8,8.1,58,0.00,,,0.00,VWS V14.01,2013-03-18 18:35:00,
2013-03-18 13:36:00,45.9,31.7,29.97,East,90,5.8,11.0,58,0.00,,,0.00,VWS V14.01,2013-03-18 18:36:00,
2013-03-18 13:37:00,45.7,31.1,29.97,SE,135,6.3,8.1,56,0.00,,,0.00,VWS V14.01,2013-03-18 18:37:00,
2013-03-18 13:38:00,45.9,31.3,29.97,SE,135,12.8,12.8,56,0.00,,,0.00,VWS V14.01,2013-03-18 18:38:00,
2013-03-18 13:39:00,45.7,31.1,29.97,SE,135,5.4,7.2,56,0.00,,,0.00,VWS V14.01,2013-03-18 18:39:00,
2013-03-18 13:40:00,45.7,31.1,29.97,SE,135,5.4,7.2,56,0.00,,,0.00,VWS V14.01,2013-03-18 18:40:00,
2013-03-18 13:41:00,45.7,31.1,29.97,SE,135,6.3,6.3,56,0.00,,,0.00,VWS V14.01,2013-03-18 18:41:00,
2013-03-18 13:42:00,45.7,31.1,29.97,East,90,4.0,8.3,56,0.00,,,0.00,VWS V14.01,2013-03-18 18:42:00,
2013-03-18 13:43:00,45.7,30.7,29.97,SE,135,5.4,5.8,56,0.00,,,0.00,VWS V14.01,2013-03-18 18:43:00,
2013-03-18 13:44:00,46.0,31.5,29.97,SE,135,7.6,7.6,56,0.00,,,0.00,VWS V14.01,2013-03-18 18:44:00,
2013-03-18 13:45:00,46.0,31.5,29.97,SE,135,7.6,7.6,56,0.00,,,0.00,VWS V14.01,2013-03-18 18:45:00,
2013-03-18 13:46:00,46.0,31.5,29.97,SE,135,4.0,7.6,56,0.00,,,0.00,VWS V14.01,2013-03-18 18:46:00,
2013-03-18 13:47:00,46.4,31.4,29.97,SE,135,8.7,8.7,56,0.00,,,0.00,VWS V14.01,2013-03-18 18:47:00,
2013-03-18 13:48:00,46.4,30.9,29.97,SE,135,5.4,12.3,54,0.00,,,0.00,VWS V14.01,2013-03-18 18:48:00,
2013-03-18 13:49:00,46.0,31.0,29.97,SE,135,6.3,6.3,56,0.00,,,0.00,VWS V14.01,2013-03-18 18:49:00,
2013-03-18 13:50:00,46.0,31.0,29.97,East,90,5.4,6.3,56,0.00,,,0.00,VWS V14.01,2013-03-18 18:50:00,
2013-03-18 13:51:00,46.0,30.6,29.97,SE,135,7.2,8.7,54,0.00,,,0.00,VWS V14.01,2013-03-18 18:51:00,
2013-03-18 13:52:00,46.0,31.0,29.97,East,90,7.6,10.1,56,0.00,,,0.00,VWS V14.01,2013-03-18 18:52:00,
2013-03-18 13:53:00,46.2,31.2,29.97,East,90,9.6,9.6,56,0.00,,,0.00,VWS V14.01,2013-03-18 18:53:00,
2013-03-18 13:54:00,46.6,31.1,29.97,SE,135,6.3,8.7,54,0.00,,,0.00,VWS V14.01,2013-03-18 18:54:00,
2013-03-18 13:55:00,46.6,31.1,29.97,SE,135,6.3,8.7,54,0.00,,,0.00,VWS V14.01,2013-03-18 18:55:00,
2013-03-18 13:56:00,46.6,31.1,29.97,East,90,4.9,6.3,54,0.00,,,0.00,VWS V14.01,2013-03-18 18:56:00,
2013-03-18 13:57:00,46.8,31.2,29.97,SE,135,3.1,8.7,54,0.00,,,0.00,VWS V14.01,2013-03-18 18:57:00,
2013-03-18 13:58:00,46.8,31.2,29.97,SE,135,4.9,6.7,54,0.00,,,0.00,VWS V14.01,2013-03-18 18:58:00,
2013-03-18 13:59:00,47.1,31.6,29.97,SSE,158,3.6,7.2,54,0.00,,,0.00,VWS V14.01,2013-03-18 18:59:00,
2013-03-18 14:00:00,47.1,31.6,29.97,SSE,158,3.6,3.6,54,0.00,,,0.00,VWS V14.01,2013-03-18 19:00:00,
2013-03-18 14:01:00,47.5,31.0,29.97,East,90,7.2,10.1,52,0.00,,,0.00,VWS V14.01,2013-03-18 19:01:00,
2013-03-18 14:02:00,47.3,31.3,29.97,East,90,7.6,7.6,54,0.00,,,0.00,VWS V14.01,2013-03-18 19:02:00,
2013-03-18 14:03:00,47.3,31.3,29.97,ESE,112,8.1,8.1,54,0.00,,,0.00,VWS V14.01,2013-03-18 19:03:00,
2013-03-18 14:04:00,47.3,30.8,29.97,ENE,68,8.3,8.3,52,0.00,,,0.00,VWS V14.01,2013-03-18 19:04:00,
2013-03-18 14:05:00,47.3,30.8,29.97,ESE,112,8.1,8.3,52,0.00,,,0.00,VWS V14.01,2013-03-18 19:05:00,
2013-03-18 14:06:00,47.5,31.0,29.97,ESE,112,4.0,10.1,52,0.00,,,0.00,VWS V14.01,2013-03-18 19:06:00,
2013-03-18 14:07:00,47.7,31.1,29.97,SE,135,5.4,5.4,52,0.00,,,0.00,VWS V14.01,2013-03-18 19:07:00,
2013-03-18 14:08:00,48.2,31.6,29.97,SE,135,4.5,6.3,52,0.00,,,0.00,VWS V14.01,2013-03-18 19:08:00,
2013-03-18 14:09:00,48.2,31.2,29.97,SE,135,7.6,8.3,52,0.00,,,0.00,VWS V14.01,2013-03-18 19:09:00,
2013-03-18 14:10:00,48.2,31.2,29.97,SE,135,7.6,8.3,52,0.00,,,0.00,VWS V14.01,2013-03-18 19:10:00,
2013-03-18 14:11:00,48.0,31.0,29.97,SE,135,8.1,10.1,52,0.00,,,0.00,VWS V14.01,2013-03-18 19:11:00,
2013-03-18 14:12:00,48.2,31.2,29.97,ENE,68,8.1,9.6,52,0.00,,,0.00,VWS V14.01,2013-03-18 19:12:00,
2013-03-18 14:13:00,48.2,30.7,29.97,ESE,112,6.3,8.1,50,0.00,,,0.00,VWS V14.01,2013-03-18 19:13:00,
2013-03-18 14:14:00,48.0,30.5,29.97,SE,135,3.6,7.2,50,0.00,,,0.00,VWS V14.01,2013-03-18 19:14:00,
2013-03-18 14:15:00,48.0,30.5,29.97,SE,135,3.6,7.2,50,0.00,,,0.00,VWS V14.01,2013-03-18 19:15:00,
2013-03-18 14:16:00,48.2,30.7,29.97,SSE,158,5.8,5.8,50,0.00,,,0.00,VWS V14.01,2013-03-18 19:16:00,
2013-03-18 14:17:00,48.4,30.9,29.97,East,90,7.6,8.7,50,0.00,,,0.00,VWS V14.01,2013-03-18 19:17:00,
2013-03-18 14:18:00,48.2,30.7,29.97,East,90,4.9,8.1,50,0.00,,,0.00,VWS V14.01,2013-03-18 19:18:00,
2013-03-18 14:19:00,48.6,31.0,29.97,SE,135,3.6,8.3,50,0.00,,,0.00,VWS V14.01,2013-03-18 19:19:00,
2013-03-18 14:20:00,48.6,31.0,29.97,East,90,5.4,8.3,50,0.00,,,0.00,VWS V14.01,2013-03-18 19:20:00,
2013-03-18 14:21:00,48.7,31.2,29.97,SE,135,5.8,5.8,50,0.00,,,0.00,VWS V14.01,2013-03-18 19:21:00,
2013-03-18 14:22:00,48.7,30.7,29.97,SE,135,6.3,9.6,50,0.00,,,0.00,VWS V14.01,2013-03-18 19:22:00,
2013-03-18 14:23:00,48.4,30.9,29.97,South,180,6.3,6.3,50,0.00,,,0.00,VWS V14.01,2013-03-18 19:23:00,
2013-03-18 14:24:00,49.1,32.0,29.97,East,90,8.7,9.2,52,0.00,,,0.00,VWS V14.01,2013-03-18 19:24:00,
2013-03-18 14:25:00,49.1,32.0,29.97,East,90,5.8,9.2,52,0.00,,,0.00,VWS V14.01,2013-03-18 19:25:00,
2013-03-18 14:26:00,49.5,31.9,29.97,East,90,11.0,11.0,50,0.00,,,0.00,VWS V14.01,2013-03-18 19:26:00,
2013-03-18 14:27:00,49.1,31.0,29.97,East,90,8.7,11.0,50,0.00,,,0.00,VWS V14.01,2013-03-18 19:27:00,
2013-03-18 14:28:00,49.1,31.5,29.97,East,90,10.1,10.1,50,0.00,,,0.00,VWS V14.01,2013-03-18 19:28:00,
2013-03-18 14:29:00,48.6,30.5,29.97,NE,45,5.8,8.1,50,0.00,,,0.00,VWS V14.01,2013-03-18 19:29:00,
2013-03-18 14:30:00,48.7,30.7,29.97,NE,45,8.3,8.3,50,0.00,,,0.00,VWS V14.01,2013-03-18 19:30:00,
2013-03-18 14:31:00,48.7,31.2,29.97,ENE,68,8.7,9.2,50,0.00,,,0.00,VWS V14.01,2013-03-18 19:31:00,
2013-03-18 14:32:00,48.7,31.2,29.97,ENE,68,10.1,10.1,50,0.00,,,0.00,VWS V14.01,2013-03-18 19:32:00,
2013-03-18 14:33:00,49.3,32.2,29.97,SE,135,8.3,10.1,52,0.00,,,0.00,VWS V14.01,2013-03-18 19:33:00,
2013-03-18 14:34:00,49.1,31.0,29.97,SSE,158,4.9,6.3,50,0.00,,,0.00,VWS V14.01,2013-03-18 19:34:00,
2013-03-18 14:35:00,49.1,31.0,29.97,SSE,158,4.9,6.3,50,0.00,,,0.00,VWS V14.01,2013-03-18 19:35:00,
2013-03-18 14:36:00,48.7,30.7,29.97,SE,135,4.5,7.2,50,0.00,,,0.00,VWS V14.01,2013-03-18 19:36:00,
2013-03-18 14:37:00,48.9,30.9,29.97,ESE,112,6.3,7.6,50,0.00,,,0.00,VWS V14.01,2013-03-18 19:37:00,
2013-03-18 14:38:00,49.1,31.0,29.97,SE,135,3.1,7.2,50,0.00,,,0.00,VWS V14.01,2013-03-18 19:38:00,
2013-03-18 14:39:00,49.5,31.4,29.97,SE,135,3.1,5.8,50,0.00,,,0.00,VWS V14.01,2013-03-18 19:39:00,
2013-03-18 14:40:00,49.5,31.4,29.97,ESE,112,8.1,8.1,50,0.00,,,0.00,VWS V14.01,2013-03-18 19:40:00,
2013-03-18 14:41:00,50.2,31.5,29.97,SE,135,5.8,8.3,48,0.00,,,0.00,VWS V14.01,2013-03-18 19:41:00,
2013-03-18 14:42:00,49.6,31.0,29.97,SE,135,4.9,6.3,48,0.00,,,0.00,VWS V14.01,2013-03-18 19:42:00,
2013-03-18 14:43:00,49.8,31.2,29.97,ESE,112,8.1,8.1,48,0.00,,,0.00,VWS V14.01,2013-03-18 19:43:00,
2013-03-18 14:44:00,49.8,31.2,29.97,East,90,6.3,9.6,48,0.00,,,0.00,VWS V14.01,2013-03-18 19:44:00,
2013-03-18 14:45:00,49.6,31.0,29.97,East,90,7.6,9.6,48,0.00,,,0.00,VWS V14.01,2013-03-18 19:45:00,
2013-03-18 14:46:00,49.8,31.2,29.97,East,90,4.9,7.6,48,0.00,,,0.00,VWS V14.01,2013-03-18 19:46:00,
2013-03-18 14:47:00,50.0,31.4,29.97,SE,135,3.1,4.9,48,0.00,,,0.00,VWS V14.01,2013-03-18 19:47:00,
2013-03-18 14:48:00,50.0,31.4,29.97,SE,135,4.5,7.6,48,0.00,,,0.00,VWS V14.01,2013-03-18 19:48:00,
2013-03-18 14:49:00,50.0,31.4,29.97,SE,135,4.0,6.3,48,0.00,,,0.00,VWS V14.01,2013-03-18 19:49:00,
2013-03-18 14:50:00,50.0,31.4,29.97,East,90,3.6,6.3,48,0.00,,,0.00,VWS V14.01,2013-03-18 19:50:00,
2013-03-18 14:51:00,50.0,31.4,29.97,NE,45,7.2,7.2,48,0.00,,,0.00,VWS V14.01,2013-03-18 19:51:00,
2013-03-18 14:52:00,50.0,31.4,29.97,NE,45,8.1,9.2,48,0.00,,,0.00,VWS V14.01,2013-03-18 19:52:00,
2013-03-18 14:53:00,50.0,31.4,29.97,ENE,68,12.3,12.3,48,0.00,,,0.00,VWS V14.01,2013-03-18 19:53:00,
2013-03-18 14:54:00,49.8,30.7,29.97,ENE,68,12.8,12.8,48,0.00,,,0.00,VWS V14.01,2013-03-18 19:54:00,
2013-03-18 14:55:00,49.8,30.7,29.97,ENE,68,13.2,13.2,48,0.00,,,0.00,VWS V14.01,2013-03-18 19:55:00,
2013-03-18 14:56:00,49.8,30.7,29.97,ENE,68,10.5,13.2,48,0.00,,,0.00,VWS V14.01,2013-03-18 19:56:00,
2013-03-18 14:57:00,49.8,30.7,29.97,NE,45,8.1,10.5,48,0.00,,,0.00,VWS V14.01,2013-03-18 19:57:00,
2013-03-18 14:58:00,49.8,30.7,29.97,NE,45,8.1,8.1,48,0.00,,,0.00,VWS V14.01,2013-03-18 19:58:00,
2013-03-18 14:59:00,50.7,31.5,29.97,East,90,12.8,12.8,48,0.00,,,0.00,VWS V14.01,2013-03-18 19:59:00,
2013-03-18 15:00:00,50.7,31.0,29.97,NE,45,8.7,12.8,46,0.00,,,0.00,VWS V14.01,2013-03-18 20:00:00,
2013-03-18 15:01:00,50.5,30.8,29.97,East,90,8.3,8.7,46,0.00,,,0.00,VWS V14.01,2013-03-18 20:01:00,
2013-03-18 15:02:00,50.9,31.1,29.97,East,90,2.7,8.7,46,0.00,,,0.00,VWS V14.01,2013-03-18 20:02:00,
2013-03-18 15:03:00,51.1,31.8,29.97,SE,135,4.0,5.4,48,0.00,,,0.00,VWS V14.01,2013-03-18 20:03:00,
2013-03-18 15:04:00,51.4,32.2,29.97,SE,135,8.3,8.3,48,0.00,,,0.00,VWS V14.01,2013-03-18 20:04:00,
2013-03-18 15:05:00,51.4,32.2,29.97,SE,135,8.3,8.3,48,0.00,,,0.00,VWS V14.01,2013-03-18 20:05:00,
2013-03-18 15:06:00,51.3,30.9,29.97,SE,135,7.6,8.7,46,0.00,,,0.00,VWS V14.01,2013-03-18 20:06:00,
2013-03-18 15:07:00,51.4,31.6,29.97,SE,135,4.5,7.6,46,0.00,,,0.00,VWS V14.01,2013-03-18 20:07:00,
2013-03-18 15:08:00,51.4,30.5,29.97,East,90,8.7,11.9,44,0.00,,,0.00,VWS V14.01,2013-03-18 20:08:00,
2013-03-18 15:09:00,51.3,31.5,29.97,NE,45,7.6,7.6,46,0.00,,,0.00,VWS V14.01,2013-03-18 20:09:00,
2013-03-18 15:10:00,51.3,31.5,29.97,East,90,8.7,8.7,46,0.00,,,0.00,VWS V14.01,2013-03-18 20:10:00,
2013-03-18 15:11:00,51.4,31.1,29.97,East,90,8.3,10.1,46,0.00,,,0.00,VWS V14.01,2013-03-18 20:11:00,
2013-03-18 15:12:00,51.1,30.2,29.97,East,90,7.6,8.3,44,0.00,,,0.00,VWS V14.01,2013-03-18 20:12:00,
2013-03-18 15:13:00,50.9,30.1,29.97,East,90,4.9,8.3,44,0.00,,,0.00,VWS V14.01,2013-03-18 20:13:00,
2013-03-18 15:14:00,51.3,29.8,29.97,ENE,68,7.6,13.2,44,0.00,,,0.00,VWS V14.01,2013-03-18 20:14:00,
2013-03-18 15:15:00,50.9,30.1,29.97,NE,45,15.0,15.0,44,0.00,,,0.00,VWS V14.01,2013-03-18 20:15:00,
2013-03-18 15:16:00,50.9,30.1,29.97,ESE,112,6.7,15.0,44,0.00,,,0.00,VWS V14.01,2013-03-18 20:16:00,
2013-03-18 15:17:00,50.9,30.6,29.97,East,90,6.7,11.0,46,0.00,,,0.00,VWS V14.01,2013-03-18 20:17:00,
2013-03-18 15:18:00,50.9,30.6,29.97,ENE,68,8.1,8.3,46,0.00,,,0.00,VWS V14.01,2013-03-18 20:18:00,
2013-03-18 15:19:00,51.3,30.9,29.97,East,90,6.3,8.1,46,0.00,,,0.00,VWS V14.01,2013-03-18 20:19:00,
2013-03-18 15:20:00,51.3,30.9,29.97,East,90,5.4,8.1,46,0.00,,,0.00,VWS V14.01,2013-03-18 20:20:00,
2013-03-18 15:21:00,51.4,31.1,29.97,East,90,10.1,12.8,46,0.00,,,0.00,VWS V14.01,2013-03-18 20:21:00,
2013-03-18 15:22:00,51.6,31.3,29.97,East,90,7.6,10.1,46,0.00,,,0.00,VWS V14.01,2013-03-18 20:22:00,
2013-03-18 15:23:00,51.4,30.0,29.97,ENE,68,8.7,10.5,44,0.00,,,0.00,VWS V14.01,2013-03-18 20:23:00,
2013-03-18 15:24:00,51.4,30.5,29.97,East,90,8.1,8.3,44,0.00,,,0.00,VWS V14.01,2013-03-18 20:24:00,
2013-03-18 15:25:00,51.4,30.5,29.97,East,90,14.1,14.1,44,0.00,,,0.00,VWS V14.01,2013-03-18 20:25:00,
2013-03-18 15:26:00,51.8,30.9,29.97,ESE,112,7.6,14.1,44,0.00,,,0.00,VWS V14.01,2013-03-18 20:26:00,
2013-03-18 15:27:00,51.8,30.9,29.97,East,90,8.3,8.3,44,0.00,,,0.00,VWS V14.01,2013-03-18 20:27:00,
2013-03-18 15:28:00,51.8,30.9,29.97,East,90,8.7,8.7,44,0.00,,,0.00,VWS V14.01,2013-03-18 20:28:00,
2013-03-18 15:29:00,52.3,31.9,29.97,East,90,5.8,5.8,46,0.00,,,0.00,VWS V14.01,2013-03-18 20:29:00,
2013-03-18 15:30:00,52.7,32.2,29.97,East,90,2.7,5.8,46,0.00,,,0.00,VWS V14.01,2013-03-18 20:30:00,
2013-03-18 15:31:00,53.1,32.6,29.97,East,90,3.6,6.3,46,0.00,,,0.00,VWS V14.01,2013-03-18 20:31:00,
2013-03-18 15:32:00,53.2,31.6,29.97,SE,135,12.8,12.8,44,0.00,,,0.00,VWS V14.01,2013-03-18 20:32:00,
2013-03-18 15:33:00,52.9,30.7,29.97,SE,135,8.1,12.8,42,0.00,,,0.00,VWS V14.01,2013-03-18 20:33:00,
2013-03-18 15:34:00,52.5,30.4,29.97,SE,135,4.0,8.3,42,0.00,,,0.00,VWS V14.01,2013-03-18 20:34:00,
2013-03-18 15:35:00,52.5,30.4,29.97,East,90,4.9,8.3,42,0.00,,,0.00,VWS V14.01,2013-03-18 20:35:00,
2013-03-18 15:36:00,52.3,30.2,29.97,East,90,2.7,4.9,42,0.00,,,0.00,VWS V14.01,2013-03-18 20:36:00,
2013-03-18 15:37:00,52.5,31.0,29.97,SE,135,6.3,6.3,44,0.00,,,0.00,VWS V14.01,2013-03-18 20:37:00,
2013-03-18 15:38:00,52.7,31.1,29.97,SE,135,6.3,6.3,44,0.00,,,0.00,VWS V14.01,2013-03-18 20:38:00,
2013-03-18 15:39:00,52.9,31.3,29.97,East,90,10.1,10.1,44,0.00,,,0.00,VWS V14.01,2013-03-18 20:39:00,
2013-03-18 15:40:00,52.9,31.3,29.97,East,90,8.3,10.1,44,0.00,,,0.00,VWS V14.01,2013-03-18 20:40:00,
2013-03-18 15:41:00,52.7,30.6,29.97,ESE,112,5.8,8.3,42,0.00,,,0.00,VWS V14.01,2013-03-18 20:41:00,
2013-03-18 15:42:00,53.1,31.5,29.97,East,90,8.1,8.1,44,0.00,,,0.00,VWS V14.01,2013-03-18 20:42:00,
2013-03-18 15:43:00,52.9,30.7,29.97,SE,135,8.1,8.1,42,0.00,,,0.00,VWS V14.01,2013-03-18 20:43:00,
2013-03-18 15:44:00,52.7,30.0,29.97,East,90,9.6,11.0,42,0.00,,,0.00,VWS V14.01,2013-03-18 20:44:00,
2013-03-18 15:45:00,52.5,30.4,29.97,ESE,112,8.3,11.0,42,0.00,,,0.00,VWS V14.01,2013-03-18 20:45:00,
2013-03-18 15:46:00,52.5,30.4,29.97,East,90,8.1,8.7,42,0.00,,,0.00,VWS V14.01,2013-03-18 20:46:00,
2013-03-18 15:47:00,52.7,31.1,29.97,East,90,5.4,8.1,44,0.00,,,0.00,VWS V14.01,2013-03-18 20:47:00,
2013-03-18 15:48:00,53.1,31.5,29.97,SE,135,6.3,6.3,44,0.00,,,0.00,VWS V14.01,2013-03-18 20:48:00,
2013-03-18 15:49:00,53.2,31.0,29.97,East,90,4.0,6.3,42,0.00,,,0.00,VWS V14.01,2013-03-18 20:49:00,
2013-03-18 15:50:00,53.2,31.0,29.97,SE,135,3.6,4.0,42,0.00,,,0.00,VWS V14.01,2013-03-18 20:50:00,
2013-03-18 15:51:00,54.0,32.3,29.94,ESE,112,3.1,5.4,44,0.00,,,0.00,VWS V14.01,2013-03-18 20:51:00,
2013-03-18 15:52:00,54.0,31.7,29.94,ESE,112,8.1,8.7,42,0.00,,,0.00,VWS V14.01,2013-03-18 20:52:00,
2013-03-18 15:53:00,54.0,31.1,29.94,ENE,68,9.6,12.3,42,0.00,,,0.00,VWS V14.01,2013-03-18 20:53:00,
2013-03-18 15:54:00,53.2,31.0,29.94,East,90,8.7,12.3,42,0.00,,,0.00,VWS V14.01,2013-03-18 20:54:00,
2013-03-18 15:55:00,53.2,31.0,29.94,East,90,8.7,12.3,42,0.00,,,0.00,VWS V14.01,2013-03-18 20:55:00,
2013-03-18 15:56:00,53.1,30.9,29.94,NE,45,10.1,13.2,42,0.00,,,0.00,VWS V14.01,2013-03-18 20:56:00,
2013-03-18 15:57:00,52.7,30.6,29.94,East,90,5.4,10.1,42,0.00,,,0.00,VWS V14.01,2013-03-18 20:57:00,
2013-03-18 15:58:00,52.9,30.7,29.94,ESE,112,7.2,7.2,42,0.00,,,0.00,VWS V14.01,2013-03-18 20:58:00,
2013-03-18 15:59:00,53.2,31.0,29.94,SSE,158,6.3,6.3,42,0.00,,,0.00,VWS V14.01,2013-03-18 20:59:00,
2013-03-18 16:00:00,53.4,31.2,29.94,SE,135,9.6,9.6,42,0.00,,,0.00,VWS V14.01,2013-03-18 21:00:00,
2013-03-18 16:01:00,53.1,30.3,29.94,South,180,8.3,10.1,42,0.00,,,0.00,VWS V14.01,2013-03-18 21:01:00,
2013-03-18 16:02:00,52.9,30.7,29.94,ESE,112,5.4,8.3,42,0.00,,,0.00,VWS V14.01,2013-03-18 21:02:00,
2013-03-18 16:03:00,53.1,30.9,29.94,South,180,8.7,9.2,42,0.00,,,0.00,VWS V14.01,2013-03-18 21:03:00,
2013-03-18 16:04:00,52.9,30.1,29.94,SE,135,7.6,10.1,42,0.00,,,0.00,VWS V14.01,2013-03-18 21:04:00,
2013-03-18 16:05:00,52.9,30.1,29.94,SE,135,10.1,10.1,42,0.00,,,0.00,VWS V14.01,2013-03-18 21:05:00,
2013-03-18 16:06:00,52.9,30.1,29.94,SE,135,8.1,10.1,42,0.00,,,0.00,VWS V14.01,2013-03-18 21:06:00,
2013-03-18 16:07:00,52.7,30.6,29.94,SE,135,8.3,8.3,42,0.00,,,0.00,VWS V14.01,2013-03-18 21:07:00,
2013-03-18 16:08:00,53.1,30.9,29.94,ESE,112,7.6,8.3,42,0.00,,,0.00,VWS V14.01,2013-03-18 21:08:00,
2013-03-18 16:09:00,53.4,31.2,29.94,SE,135,4.5,6.3,42,0.00,,,0.00,VWS V14.01,2013-03-18 21:09:00,
2013-03-18 16:10:00,53.4,31.2,29.94,SE,135,4.0,6.3,42,0.00,,,0.00,VWS V14.01,2013-03-18 21:10:00,
2013-03-18 16:11:00,53.4,31.2,29.94,SE,135,5.4,7.6,42,0.00,,,0.00,VWS V14.01,2013-03-18 21:11:00,
2013-03-18 16:12:00,53.8,31.0,29.94,SE,135,4.0,10.1,42,0.00,,,0.00,VWS V14.01,2013-03-18 21:12:00,
2013-03-18 16:13:00,54.0,31.1,29.94,ESE,112,6.3,6.3,42,0.00,,,0.00,VWS V14.01,2013-03-18 21:13:00,
2013-03-18 16:14:00,54.3,31.4,29.94,SE,135,5.8,7.2,42,0.00,,,0.00,VWS V14.01,2013-03-18 21:14:00,
2013-03-18 16:15:00,54.5,31.6,29.94,SE,135,8.1,8.1,42,0.00,,,0.00,VWS V14.01,2013-03-18 21:15:00,
2013-03-18 16:16:00,54.0,31.1,29.94,ESE,112,5.4,8.1,42,0.00,,,0.00,VWS V14.01,2013-03-18 21:16:00,
2013-03-18 16:17:00,53.8,30.4,29.94,SE,135,4.9,10.1,40,0.00,,,0.00,VWS V14.01,2013-03-18 21:17:00,
2013-03-18 16:18:00,53.6,30.2,29.94,East,90,5.8,6.3,40,0.00,,,0.00,VWS V14.01,2013-03-18 21:18:00,
2013-03-18 16:19:00,54.1,30.1,29.94,NE,45,6.3,10.5,40,0.00,,,0.00,VWS V14.01,2013-03-18 21:19:00,
2013-03-18 16:20:00,54.1,30.1,29.94,NE,45,6.3,10.5,40,0.00,,,0.00,VWS V14.01,2013-03-18 21:20:00,
2013-03-18 16:21:00,54.1,30.1,29.94,East,90,6.3,8.3,40,0.00,,,0.00,VWS V14.01,2013-03-18 21:21:00,
2013-03-18 16:22:00,54.5,31.0,29.94,NE,45,11.0,11.0,40,0.00,,,0.00,VWS V14.01,2013-03-18 21:22:00,
2013-03-18 16:23:00,54.3,30.8,29.94,SE,135,9.2,13.2,40,0.00,,,0.00,VWS V14.01,2013-03-18 21:23:00,
2013-03-18 16:24:00,54.5,31.0,29.94,ENE,68,11.0,11.0,40,0.00,,,0.00,VWS V14.01,2013-03-18 21:24:00,
2013-03-18 16:25:00,54.5,31.0,29.94,East,90,11.4,11.4,40,0.00,,,0.00,VWS V14.01,2013-03-18 21:25:00,
2013-03-18 16:26:00,54.1,30.1,29.94,East,90,10.1,11.4,40,0.00,,,0.00,VWS V14.01,2013-03-18 21:26:00,
2013-03-18 16:27:00,53.8,29.7,29.94,ESE,112,8.3,10.1,40,0.00,,,0.00,VWS V14.01,2013-03-18 21:27:00,
2013-03-18 16:28:00,53.8,30.4,29.94,East,90,3.6,9.6,40,0.00,,,0.00,VWS V14.01,2013-03-18 21:28:00,
2013-03-18 16:29:00,54.1,30.7,29.94,East,90,9.6,9.6,40,0.00,,,0.00,VWS V14.01,2013-03-18 21:29:00,
2013-03-18 16:30:00,54.3,30.2,29.94,East,90,8.3,9.6,40,0.00,,,0.00,VWS V14.01,2013-03-18 21:30:00,
2013-03-18 16:31:00,54.0,29.9,29.94,East,90,13.2,13.2,40,0.00,,,0.00,VWS V14.01,2013-03-18 21:31:00,
2013-03-18 16:32:00,53.8,29.7,29.94,ENE,68,9.6,13.2,40,0.00,,,0.00,VWS V14.01,2013-03-18 21:32:00,
2013-03-18 16:33:00,53.8,29.7,29.94,ESE,112,11.9,11.9,40,0.00,,,0.00,VWS V14.01,2013-03-18 21:33:00,
2013-03-18 16:34:00,54.0,29.9,29.94,ESE,112,6.3,10.5,40,0.00,,,0.00,VWS V14.01,2013-03-18 21:34:00,
2013-03-18 16:35:00,54.0,29.9,29.94,ESE,112,4.0,10.5,40,0.00,,,0.00,VWS V14.01,2013-03-18 21:35:00,
2013-03-18 16:36:00,53.8,29.7,29.94,SE,135,4.9,8.3,40,0.00,,,0.00,VWS V14.01,2013-03-18 21:36:00,
2013-03-18 16:37:00,54.0,29.9,29.94,East,90,4.9,4.9,40,0.00,,,0.00,VWS V14.01,2013-03-18 21:37:00,
2013-03-18 16:38:00,54.7,30.5,29.94,East,90,4.5,7.2,40,0.00,,,0.00,VWS V14.01,2013-03-18 21:38:00,
2013-03-18 16:39:00,54.5,30.4,29.94,East,90,10.1,10.1,40,0.00,,,0.00,VWS V14.01,2013-03-18 21:39:00,
2013-03-18 16:40:00,54.5,30.4,29.94,ENE,68,8.1,10.1,40,0.00,,,0.00,VWS V14.01,2013-03-18 21:40:00,
2013-03-18 16:41:00,54.5,30.4,29.94,East,90,11.9,11.9,40,0.00,,,0.00,VWS V14.01,2013-03-18 21:41:00,
2013-03-18 16:42:00,54.5,29.8,29.94,East,90,15.0,15.0,38,0.00,,,0.00,VWS V14.01,2013-03-18 21:42:00,
2013-03-18 16:43:00,54.5,29.8,29.94,ENE,68,5.8,15.0,38,0.00,,,0.00,VWS V14.01,2013-03-18 21:43:00,
2013-03-18 16:44:00,54.5,29.8,29.94,East,90,4.9,11.4,38,0.00,,,0.00,VWS V14.01,2013-03-18 21:44:00,
2013-03-18 16:45:00,54.5,29.8,29.94,East,90,4.9,11.4,38,0.00,,,0.00,VWS V14.01,2013-03-18 21:45:00,
2013-03-18 16:46:00,54.5,29.8,29.94,East,90,12.3,12.3,38,0.00,,,0.00,VWS V14.01,2013-03-18 21:46:00,
2013-03-18 16:47:00,54.5,29.8,29.94,East,90,12.3,12.3,38,0.00,,,0.00,VWS V14.01,2013-03-18 21:47:00,
2013-03-18 16:48:00,54.1,28.8,29.94,ESE,112,4.9,15.4,38,0.00,,,0.00,VWS V14.01,2013-03-18 21:48:00,
2013-03-18 16:49:00,54.1,28.8,29.94,NE,45,8.1,9.2,38,0.00,,,0.00,VWS V14.01,2013-03-18 21:49:00,
2013-03-18 16:50:00,54.1,28.8,29.94,NE,45,10.1,10.1,38,0.00,,,0.00,VWS V14.01,2013-03-18 21:50:00,
2013-03-18 16:51:00,54.1,28.8,29.97,East,90,12.8,12.8,38,0.00,,,0.00,VWS V14.01,2013-03-18 21:51:00,
2013-03-18 16:52:00,54.1,28.8,29.97,East,90,8.1,12.8,38,0.00,,,0.00,VWS V14.01,2013-03-18 21:52:00,
2013-03-18 16:53:00,54.3,29.6,29.97,ENE,68,6.3,9.6,38,0.00,,,0.00,VWS V14.01,2013-03-18 21:53:00,
2013-03-18 16:54:00,54.7,29.9,29.97,East,90,4.9,8.3,38,0.00,,,0.00,VWS V14.01,2013-03-18 21:54:00,
2013-03-18 16:55:00,54.7,29.9,29.97,East,90,9.6,9.6,38,0.00,,,0.00,VWS V14.01,2013-03-18 21:55:00,
2013-03-18 16:56:00,54.7,29.3,29.97,NE,45,5.8,11.0,38,0.00,,,0.00,VWS V14.01,2013-03-18 21:56:00,
2013-03-18 16:57:00,54.7,29.3,29.97,NE,45,8.7,11.0,38,0.00,,,0.00,VWS V14.01,2013-03-18 21:57:00,
2013-03-18 16:58:00,54.9,29.4,29.97,NE,45,8.1,8.7,38,0.00,,,0.00,VWS V14.01,2013-03-18 21:58:00,
2013-03-18 16:59:00,55.0,29.6,29.97,East,90,6.3,6.3,38,0.00,,,0.00,VWS V14.01,2013-03-18 21:59:00,
2013-03-18 17:00:00,55.2,30.4,29.97,East,90,5.8,6.3,38,0.00,,,0.00,VWS V14.01,2013-03-18 22:00:00,
2013-03-18 17:01:00,55.2,29.8,29.97,East,90,8.1,9.6,38,0.00,,,0.00,VWS V14.01,2013-03-18 22:01:00,
2013-03-18 17:02:00,55.0,29.6,29.97,NE,45,12.3,15.0,38,0.00,,,0.00,VWS V14.01,2013-03-18 22:02:00,
2013-03-18 17:03:00,55.0,29.6,29.97,East,90,12.8,12.8,38,0.00,,,0.00,VWS V14.01,2013-03-18 22:03:00,
2013-03-18 17:04:00,54.5,29.1,29.97,East,90,8.7,16.8,38,0.00,,,0.00,VWS V14.01,2013-03-18 22:04:00,
2013-03-18 17:05:00,54.5,29.1,29.97,East,90,8.1,16.8,38,0.00,,,0.00,VWS V14.01,2013-03-18 22:05:00,
2013-03-18 17:06:00,54.5,29.1,29.97,East,90,6.3,8.1,38,0.00,,,0.00,VWS V14.01,2013-03-18 22:06:00,
2013-03-18 17:07:00,54.5,29.1,29.97,East,90,3.6,6.3,38,0.00,,,0.00,VWS V14.01,2013-03-18 22:07:00,
2013-03-18 17:08:00,55.2,29.8,29.97,East,90,7.6,8.3,38,0.00,,,0.00,VWS V14.01,2013-03-18 22:08:00,
2013-03-18 17:09:00,55.0,29.6,29.97,East,90,12.8,12.8,38,0.00,,,0.00,VWS V14.01,2013-03-18 22:09:00,
2013-03-18 17:10:00,55.0,29.6,29.97,NE,45,8.3,12.8,38,0.00,,,0.00,VWS V14.01,2013-03-18 22:10:00,
2013-03-18 17:11:00,55.0,29.6,29.97,East,90,11.0,11.0,38,0.00,,,0.00,VWS V14.01,2013-03-18 22:11:00,
2013-03-18 17:12:00,54.9,29.4,29.97,East,90,12.8,14.5,38,0.00,,,0.00,VWS V14.01,2013-03-18 22:12:00,
2013-03-18 17:13:00,54.5,29.1,29.97,NE,45,15.0,15.4,38,0.00,,,0.00,VWS V14.01,2013-03-18 22:13:00,
2013-03-18 17:14:00,54.5,29.1,29.97,NE,45,8.3,10.1,38,0.00,,,0.00,VWS V14.01,2013-03-18 22:14:00,
2013-03-18 17:15:00,54.5,29.1,29.97,ENE,68,6.7,10.1,38,0.00,,,0.00,VWS V14.01,2013-03-18 22:15:00,
2013-03-18 17:16:00,54.5,29.1,29.97,ENE,68,11.4,11.4,38,0.00,,,0.00,VWS V14.01,2013-03-18 22:16:00,
2013-03-18 17:17:00,54.5,29.1,29.97,East,90,7.6,11.4,38,0.00,,,0.00,VWS V14.01,2013-03-18 22:17:00,
2013-03-18 17:18:00,54.5,29.1,29.97,East,90,7.6,7.6,38,0.00,,,0.00,VWS V14.01,2013-03-18 22:18:00,
2013-03-18 17:19:00,54.7,29.3,29.97,NNE,22,9.2,9.2,38,0.00,,,0.00,VWS V14.01,2013-03-18 22:19:00,
2013-03-18 17:20:00,54.7,29.3,29.97,East,90,8.1,9.2,38,0.00,,,0.00,VWS V14.01,2013-03-18 22:20:00,
2013-03-18 17:21:00,54.9,29.4,29.97,NE,45,8.7,11.0,38,0.00,,,0.00,VWS V14.01,2013-03-18 22:21:00,
2013-03-18 17:22:00,54.7,29.3,29.97,SE,135,5.8,9.6,38,0.00,,,0.00,VWS V14.01,2013-03-18 22:22:00,
2013-03-18 17:23:00,55.0,29.6,29.97,East,90,7.6,9.2,38,0.00,,,0.00,VWS V14.01,2013-03-18 22:23:00,
2013-03-18 17:24:00,54.5,29.1,29.97,East,90,8.1,8.7,38,0.00,,,0.00,VWS V14.01,2013-03-18 22:24:00,
2013-03-18 17:25:00,54.5,29.1,29.97,ESE,112,7.2,8.7,38,0.00,,,0.00,VWS V14.01,2013-03-18 22:25:00,
2013-03-18 17:26:00,54.5,29.1,29.97,ENE,68,11.4,11.4,38,0.00,,,0.00,VWS V14.01,2013-03-18 22:26:00,
2013-03-18 17:27:00,54.5,29.1,29.97,ESE,112,8.1,11.4,38,0.00,,,0.00,VWS V14.01,2013-03-18 22:27:00,
2013-03-18 17:28:00,54.7,29.3,29.97,East,90,8.3,8.3,38,0.00,,,0.00,VWS V14.01,2013-03-18 22:28:00,
2013-03-18 17:29:00,54.9,29.4,29.97,East,90,5.8,6.3,38,0.00,,,0.00,VWS V14.01,2013-03-18 22:29:00,
2013-03-18 17:30:00,54.9,29.4,29.97,East,90,4.0,6.3,38,0.00,,,0.00,VWS V14.01,2013-03-18 22:30:00,
2013-03-18 17:31:00,55.2,29.8,29.97,ESE,112,7.2,8.3,38,0.00,,,0.00,VWS V14.01,2013-03-18 22:31:00,
2013-03-18 17:32:00,55.0,29.6,29.97,East,90,4.9,8.1,38,0.00,,,0.00,VWS V14.01,2013-03-18 22:32:00,
2013-03-18 17:33:00,55.2,29.8,29.97,ESE,112,4.0,6.3,38,0.00,,,0.00,VWS V14.01,2013-03-18 22:33:00,
2013-03-18 17:34:00,55.2,29.8,29.97,East,90,2.7,5.8,38,0.00,,,0.00,VWS V14.01,2013-03-18 22:34:00,
2013-03-18 17:35:00,55.2,29.8,29.97,East,90,2.7,5.8,38,0.00,,,0.00,VWS V14.01,2013-03-18 22:35:00,
2013-03-18 17:36:00,55.6,30.1,29.97,East,90,7.6,7.6,38,0.00,,,0.00,VWS V14.01,2013-03-18 22:36:00,
2013-03-18 17:37:00,55.6,29.4,29.97,East,90,4.9,7.6,36,0.00,,,0.00,VWS V14.01,2013-03-18 22:37:00,
2013-03-18 17:38:00,55.6,29.4,29.97,East,90,8.3,8.7,36,0.00,,,0.00,VWS V14.01,2013-03-18 22:38:00,
2013-03-18 17:39:00,55.6,29.4,29.97,East,90,4.0,6.3,36,0.00,,,0.00,VWS V14.01,2013-03-18 22:39:00,
2013-03-18 17:40:00,55.8,29.6,29.97,East,90,3.6,6.3,36,0.00,,,0.00,VWS V14.01,2013-03-18 22:40:00,
2013-03-18 17:41:00,55.8,29.6,29.97,NE,45,8.3,8.7,36,0.00,,,0.00,VWS V14.01,2013-03-18 22:41:00,
2013-03-18 17:42:00,55.8,29.6,29.97,ENE,68,6.3,8.3,36,0.00,,,0.00,VWS V14.01,2013-03-18 22:42:00,
2013-03-18 17:43:00,55.8,29.6,29.97,NE,45,6.3,8.7,36,0.00,,,0.00,VWS V14.01,2013-03-18 22:43:00,
2013-03-18 17:44:00,55.0,28.9,29.97,East,90,8.7,11.4,36,0.00,,,0.00,VWS V14.01,2013-03-18 22:44:00,
2013-03-18 17:45:00,55.0,28.9,29.97,East,90,6.3,11.4,36,0.00,,,0.00,VWS V14.01,2013-03-18 22:45:00,
2013-03-18 17:46:00,54.9,28.8,29.97,East,90,5.4,9.6,36,0.00,,,0.00,VWS V14.01,2013-03-18 22:46:00,
2013-03-18 17:47:00,55.0,28.9,29.97,East,90,10.1,10.1,36,0.00,,,0.00,VWS V14.01,2013-03-18 22:47:00,
2013-03-18 17:48:00,54.9,28.8,29.97,East,90,8.7,10.1,36,0.00,,,0.00,VWS V14.01,2013-03-18 22:48:00,
2013-03-18 17:49:00,54.5,28.5,29.97,East,90,11.0,11.0,36,0.00,,,0.00,VWS V14.01,2013-03-18 22:49:00,
2013-03-18 17:50:00,54.5,28.5,29.97,East,90,8.1,11.0,36,0.00,,,0.00,VWS V14.01,2013-03-18 22:50:00,
2013-03-18 17:51:00,54.5,28.5,30.00,East,90,8.1,10.5,36,0.00,,,0.00,VWS V14.01,2013-03-18 22:51:00,
2013-03-18 17:52:00,54.5,28.5,30.00,East,90,7.6,8.1,36,0.00,,,0.00,VWS V14.01,2013-03-18 22:52:00,
2013-03-18 17:53:00,54.7,28.6,30.00,NE,45,8.1,8.1,36,0.00,,,0.00,VWS V14.01,2013-03-18 22:53:00,
2013-03-18 17:54:00,54.7,28.6,30.00,NE,45,11.0,11.0,36,0.00,,,0.00,VWS V14.01,2013-03-18 22:54:00,
2013-03-18 17:55:00,54.9,28.8,30.00,East,90,8.7,11.0,36,0.00,,,0.00,VWS V14.01,2013-03-18 22:55:00,
2013-03-18 17:56:00,54.9,28.8,30.00,ENE,68,8.7,10.5,36,0.00,,,0.00,VWS V14.01,2013-03-18 22:56:00,
2013-03-18 17:57:00,54.5,28.5,30.00,East,90,9.6,13.2,36,0.00,,,0.00,VWS V14.01,2013-03-18 22:57:00,
2013-03-18 17:58:00,54.5,28.5,30.00,ENE,68,8.3,12.3,36,0.00,,,0.00,VWS V14.01,2013-03-18 22:58:00,
2013-03-18 17:59:00,54.5,28.5,30.00,ENE,68,9.6,10.5,36,0.00,,,0.00,VWS V14.01,2013-03-18 22:59:00,
2013-03-18 18:00:00,54.5,28.5,30.00,East,90,7.2,10.5,36,0.00,,,0.00,VWS V14.01,2013-03-18 23:00:00,
2013-03-18 18:02:00,54.5,28.5,30.00,SE,135,8.3,8.3,36,0.00,,,0.00,VWS V14.01,2013-03-18 23:02:00,
2013-03-18 18:03:00,54.5,27.8,30.00,East,90,3.6,8.3,36,0.00,,,0.00,VWS V14.01,2013-03-18 23:03:00,
2013-03-18 18:04:00,54.5,27.8,30.00,NE,45,6.7,8.7,36,0.00,,,0.00,VWS V14.01,2013-03-18 23:04:00,
2013-03-18 18:05:00,54.5,27.8,30.00,ENE,68,7.6,8.7,36,0.00,,,0.00,VWS V14.01,2013-03-18 23:05:00,
2013-03-18 18:06:00,54.7,27.9,29.97,East,90,7.6,8.3,36,0.00,,,0.00,VWS V14.01,2013-03-18 23:06:00,
2013-03-18 18:07:00,54.7,28.6,29.97,NE,45,9.6,10.1,36,0.00,,,0.00,VWS V14.01,2013-03-18 23:07:00,
2013-03-18 18:08:00,54.7,27.9,29.97,SE,135,3.1,9.6,36,0.00,,,0.00,VWS V14.01,2013-03-18 23:08:00,
2013-03-18 18:09:00,54.7,27.9,29.97,East,90,6.3,7.2,36,0.00,,,0.00,VWS V14.01,2013-03-18 23:09:00,
2013-03-18 18:10:00,54.7,27.9,29.97,East,90,6.3,7.2,36,0.00,,,0.00,VWS V14.01,2013-03-18 23:10:00,
2013-03-18 18:11:00,54.9,28.1,29.97,East,90,8.7,8.7,36,0.00,,,0.00,VWS V14.01,2013-03-18 23:11:00,
2013-03-18 18:12:00,54.5,27.1,29.97,East,90,12.3,12.3,34,0.00,,,0.00,VWS V14.01,2013-03-18 23:12:00,
2013-03-18 18:13:00,54.5,27.1,29.97,NE,45,8.1,12.3,34,0.00,,,0.00,VWS V14.01,2013-03-18 23:13:00,
2013-03-18 18:14:00,54.5,27.1,29.97,SE,135,3.6,8.3,34,0.00,,,0.00,VWS V14.01,2013-03-18 23:14:00,
2013-03-18 18:15:00,54.5,27.1,29.97,East,90,8.1,8.3,34,0.00,,,0.00,VWS V14.01,2013-03-18 23:15:00,
2013-03-18 18:16:00,54.3,26.9,29.97,ESE,112,5.8,8.3,34,0.00,,,0.00,VWS V14.01,2013-03-18 23:16:00,
2013-03-18 18:17:00,54.3,26.9,29.97,ESE,112,5.4,8.3,34,0.00,,,0.00,VWS V14.01,2013-03-18 23:17:00,
2013-03-18 18:18:00,54.5,27.1,29.97,East,90,4.5,8.1,34,0.00,,,0.00,VWS V14.01,2013-03-18 23:18:00,
2013-03-18 18:19:00,54.5,27.1,29.97,ESE,112,8.7,9.2,34,0.00,,,0.00,VWS V14.01,2013-03-18 23:19:00,
2013-03-18 18:20:00,54.5,27.1,29.97,East,90,8.1,9.2,34,0.00,,,0.00,VWS V14.01,2013-03-18 23:20:00,
2013-03-18 18:21:00,54.3,26.9,30.00,East,90,5.8,8.1,34,0.00,,,0.00,VWS V14.01,2013-03-18 23:21:00,
2013-03-18 18:22:00,54.5,27.1,30.00,East,90,7.6,7.6,34,0.00,,,0.00,VWS V14.01,2013-03-18 23:22:00,
2013-03-18 18:23:00,54.5,27.1,30.00,East,90,3.1,7.6,34,0.00,,,0.00,VWS V14.01,2013-03-18 23:23:00,
2013-03-18 18:24:00,54.5,27.8,30.00,East,90,4.9,9.6,36,0.00,,,0.00,VWS V14.01,2013-03-18 23:24:00,
2013-03-18 18:26:00,54.3,27.6,30.00,East,90,4.9,9.6,36,0.00,,,0.00,VWS V14.01,2013-03-18 23:26:00,
2013-03-18 18:27:00,54.5,27.8,30.00,SE,135,5.4,6.3,36,0.00,,,0.00,VWS V14.01,2013-03-18 23:27:00,
2013-03-18 18:28:00,54.5,27.8,30.00,East,90,4.0,7.6,36,0.00,,,0.00,VWS V14.01,2013-03-18 23:28:00,
2013-03-18 18:29:00,54.3,27.6,30.00,East,90,5.8,7.6,36,0.00,,,0.00,VWS V14.01,2013-03-18 23:29:00,
2013-03-18 18:30:00,54.3,27.6,30.00,East,90,6.3,7.6,36,0.00,,,0.00,VWS V14.01,2013-03-18 23:30:00,
2013-03-18 18:31:00,54.1,27.5,30.00,East,90,7.6,8.1,36,0.00,,,0.00,VWS V14.01,2013-03-18 23:31:00,
2013-03-18 18:32:00,54.1,27.5,30.00,East,90,4.9,7.6,36,0.00,,,0.00,VWS V14.01,2013-03-18 23:32:00,
2013-03-18 18:34:00,54.1,27.5,30.00,East,90,8.3,8.3,36,0.00,,,0.00,VWS V14.01,2013-03-18 23:34:00,
2013-03-18 18:35:00,54.1,27.5,30.00,East,90,8.1,8.3,36,0.00,,,0.00,VWS V14.01,2013-03-18 23:35:00,
2013-03-18 18:36:00,54.0,27.3,30.00,East,90,6.3,8.1,36,0.00,,,0.00,VWS V14.01,2013-03-18 23:36:00,
2013-03-18 18:37:00,54.0,27.3,30.00,East,90,2.7,6.3,36,0.00,,,0.00,VWS V14.01,2013-03-18 23:37:00,
2013-03-18 18:38:00,54.1,28.1,30.00,SE,135,7.6,7.6,36,0.00,,,0.00,VWS V14.01,2013-03-18 23:38:00,
2013-03-18 18:39:00,54.1,28.1,30.00,East,90,4.9,6.3,36,0.00,,,0.00,VWS V14.01,2013-03-18 23:39:00,
2013-03-18 18:40:00,54.0,27.3,30.00,East,90,4.9,6.3,36,0.00,,,0.00,VWS V14.01,2013-03-18 23:40:00,
2013-03-18 18:41:00,54.0,27.3,30.00,East,90,5.4,8.1,36,0.00,,,0.00,VWS V14.01,2013-03-18 23:41:00,
2013-03-18 18:42:00,54.0,27.3,30.00,East,90,7.6,7.6,36,0.00,,,0.00,VWS V14.01,2013-03-18 23:42:00,
2013-03-18 18:43:00,54.0,27.3,30.00,East,90,3.1,7.6,36,0.00,,,0.00,VWS V14.01,2013-03-18 23:43:00,
2013-03-18 18:44:00,54.0,27.3,30.00,East,90,3.6,5.8,36,0.00,,,0.00,VWS V14.01,2013-03-18 23:44:00,
2013-03-18 18:45:00,54.0,27.3,30.00,East,90,3.6,5.8,36,0.00,,,0.00,VWS V14.01,2013-03-18 23:45:00,
2013-03-18 18:46:00,53.8,27.1,30.00,NE,45,8.3,8.3,36,0.00,,,0.00,VWS V14.01,2013-03-18 23:46:00,
2013-03-18 18:47:00,53.8,27.1,30.00,East,90,4.9,8.3,36,0.00,,,0.00,VWS V14.01,2013-03-18 23:47:00,
2013-03-18 18:48:00,53.8,27.1,30.00,ENE,68,4.9,5.4,36,0.00,,,0.00,VWS V14.01,2013-03-18 23:48:00,
2013-03-18 18:49:00,53.6,27.0,30.00,ENE,68,4.9,4.9,36,0.00,,,0.00,VWS V14.01,2013-03-18 23:49:00,
2013-03-18 18:50:00,53.6,27.0,30.00,ENE,68,4.9,4.9,36,0.00,,,0.00,VWS V14.01,2013-03-18 23:50:00,
2013-03-18 18:51:00,53.6,27.0,30.00,ENE,68,4.9,4.9,36,0.00,,,0.00,VWS V14.01,2013-03-18 23:51:00,
2013-03-18 18:52:00,53.4,26.8,30.00,ENE,68,4.9,4.9,36,0.00,,,0.00,VWS V14.01,2013-03-18 23:52:00,
2013-03-18 18:53:00,53.4,26.8,30.00,ENE,68,4.9,4.9,36,0.00,,,0.00,VWS V14.01,2013-03-18 23:53:00,
2013-03-18 18:54:00,53.2,26.7,30.00,ENE,68,4.9,4.9,36,0.00,,,0.00,VWS V14.01,2013-03-18 23:54:00,
2013-03-18 18:55:00,53.2,26.7,30.00,ENE,68,4.9,4.9,36,0.00,,,0.00,VWS V14.01,2013-03-18 23:55:00,
2013-03-18 18:56:00,53.2,26.7,30.00,ENE,68,4.9,4.9,36,0.00,,,0.00,VWS V14.01,2013-03-18 23:56:00,
2013-03-18 18:57:00,53.2,27.3,30.00,East,90,4.0,4.9,36,0.00,,,0.00,VWS V14.01,2013-03-18 23:57:00,
2013-03-18 18:58:00,53.2,26.7,30.00,East,90,5.4,8.1,36,0.00,,,0.00,VWS V14.01,2013-03-18 23:58:00,
2013-03-18 18:59:00,53.1,27.2,30.00,East,90,3.1,4.0,36,0.00,,,0.00,VWS V14.01,2013-03-18 23:59:00,
2013-03-18 19:00:00,53.1,27.2,30.00,East,90,0.0,4.0,36,0.00,,,0.00,VWS V14.01,2013-03-19 00:00:00,
2013-03-18 19:01:00,53.1,27.2,30.00,East,90,0.0,0.0,36,0.00,,,0.00,VWS V14.01,2013-03-19 00:01:00,
2013-03-18 19:02:00,53.1,27.2,30.00,ENE,68,4.9,4.9,36,0.00,,,0.00,VWS V14.01,2013-03-19 00:02:00,
2013-03-18 19:03:00,53.1,27.2,30.00,East,90,3.6,4.9,36,0.00,,,0.00,VWS V14.01,2013-03-19 00:03:00,
2013-03-18 19:04:00,52.9,27.0,30.00,East,90,3.1,4.9,36,0.00,,,0.00,VWS V14.01,2013-03-19 00:04:00,
2013-03-18 19:05:00,52.9,27.0,30.00,East,90,3.1,4.9,36,0.00,,,0.00,VWS V14.01,2013-03-19 00:05:00,
2013-03-18 19:06:00,52.9,27.0,30.03,East,90,3.6,4.0,36,0.00,,,0.00,VWS V14.01,2013-03-19 00:06:00,
2013-03-18 19:07:00,52.9,27.0,30.03,East,90,3.1,3.6,36,0.00,,,0.00,VWS V14.01,2013-03-19 00:07:00,
2013-03-18 19:08:00,52.9,27.0,30.03,East,90,2.7,3.6,36,0.00,,,0.00,VWS V14.01,2013-03-19 00:08:00,
2013-03-18 19:09:00,52.7,26.9,30.03,ESE,112,3.1,3.6,36,0.00,,,0.00,VWS V14.01,2013-03-19 00:09:00,
2013-03-18 19:10:00,52.7,27.5,30.03,ESE,112,3.6,3.6,38,0.00,,,0.00,VWS V14.01,2013-03-19 00:10:00,
2013-03-18 19:11:00,52.5,27.3,30.03,ESE,112,2.7,5.8,38,0.00,,,0.00,VWS V14.01,2013-03-19 00:11:00,
2013-03-18 19:12:00,52.5,27.3,30.03,ESE,112,2.7,3.1,38,0.00,,,0.00,VWS V14.01,2013-03-19 00:12:00,
2013-03-18 19:13:00,52.3,27.2,30.03,ESE,112,0.0,4.0,38,0.00,,,0.00,VWS V14.01,2013-03-19 00:13:00,
2013-03-18 19:14:00,52.2,27.0,30.03,East,90,4.9,4.9,38,0.00,,,0.00,VWS V14.01,2013-03-19 00:14:00,
2013-03-18 19:15:00,52.2,27.0,30.03,East,90,3.6,4.9,38,0.00,,,0.00,VWS V14.01,2013-03-19 00:15:00,
2013-03-18 19:16:00,52.2,27.0,30.03,East,90,2.7,3.6,38,0.00,,,0.00,VWS V14.01,2013-03-19 00:16:00,
2013-03-18 19:17:00,51.8,26.7,30.03,East,90,3.1,3.1,38,0.00,,,0.00,VWS V14.01,2013-03-19 00:17:00,
2013-03-18 19:18:00,51.8,26.7,30.03,East,90,2.7,3.1,38,0.00,,,0.00,VWS V14.01,2013-03-19 00:18:00,
2013-03-18 19:19:00,51.6,26.5,30.03,East,90,0.0,0.0,38,0.00,,,0.00,VWS V14.01,2013-03-19 00:19:00,
2013-03-18 19:20:00,51.6,26.5,30.03,East,90,0.0,0.0,38,0.00,,,0.00,VWS V14.01,2013-03-19 00:20:00,
2013-03-18 19:21:00,51.4,26.4,30.03,East,90,2.7,3.1,38,0.00,,,0.00,VWS V14.01,2013-03-19 00:21:00,
2013-03-18 19:22:00,51.4,26.4,30.03,East,90,0.0,2.7,38,0.00,,,0.00,VWS V14.01,2013-03-19 00:22:00,
2013-03-18 19:23:00,51.3,26.2,30.03,East,90,2.7,2.7,38,0.00,,,0.00,VWS V14.01,2013-03-19 00:23:00,
2013-03-18 19:24:00,51.1,26.1,30.03,East,90,2.7,3.1,38,0.00,,,0.00,VWS V14.01,2013-03-19 00:24:00,
2013-03-18 19:25:00,50.9,25.9,30.03,East,90,0.0,3.1,38,0.00,,,0.00,VWS V14.01,2013-03-19 00:25:00,
2013-03-18 19:26:00,50.9,25.9,30.03,East,90,0.0,0.0,38,0.00,,,0.00,VWS V14.01,2013-03-19 00:26:00,
2013-03-18 19:27:00,50.7,25.7,30.03,East,90,0.0,0.0,38,0.00,,,0.00,VWS V14.01,2013-03-19 00:27:00,
2013-03-18 19:29:00,50.4,25.4,30.03,East,90,0.0,0.0,38,0.00,,,0.00,VWS V14.01,2013-03-19 00:29:00,
2013-03-18 19:30:00,50.4,25.4,30.03,East,90,4.0,4.0,38,0.00,,,0.00,VWS V14.01,2013-03-19 00:30:00,
2013-03-18 19:31:00,50.2,25.2,30.03,ENE,68,5.4,5.4,38,0.00,,,0.00,VWS V14.01,2013-03-19 00:31:00,
2013-03-18 19:32:00,50.2,25.9,30.03,East,90,4.9,5.4,38,0.00,,,0.00,VWS V14.01,2013-03-19 00:32:00,
2013-03-18 19:33:00,50.2,25.9,30.03,East,90,2.7,4.9,38,0.00,,,0.00,VWS V14.01,2013-03-19 00:33:00,
2013-03-18 19:34:00,50.0,25.7,30.03,East,90,3.6,3.6,38,0.00,,,0.00,VWS V14.01,2013-03-19 00:34:00,
2013-03-18 19:35:00,50.0,25.7,30.03,East,90,2.7,3.6,38,0.00,,,0.00,VWS V14.01,2013-03-19 00:35:00,
2013-03-18 19:36:00,50.0,25.7,30.03,East,90,4.0,4.0,38,0.00,,,0.00,VWS V14.01,2013-03-19 00:36:00,
2013-03-18 19:37:00,50.0,25.7,30.03,East,90,0.0,4.0,38,0.00,,,0.00,VWS V14.01,2013-03-19 00:37:00,
2013-03-18 19:38:00,50.0,25.7,30.03,East,90,3.1,3.6,38,0.00,,,0.00,VWS V14.01,2013-03-19 00:38:00,
2013-03-18 19:39:00,49.8,25.6,30.03,NE,45,4.9,5.8,38,0.00,,,0.00,VWS V14.01,2013-03-19 00:39:00,
2013-03-18 19:40:00,49.8,25.6,30.03,NE,45,2.7,5.8,38,0.00,,,0.00,VWS V14.01,2013-03-19 00:40:00,
2013-03-18 19:41:00,49.6,25.4,30.03,ENE,68,3.6,3.6,38,0.00,,,0.00,VWS V14.01,2013-03-19 00:41:00,
2013-03-18 19:42:00,49.6,25.4,30.03,ENE,68,2.2,3.6,38,0.00,,,0.00,VWS V14.01,2013-03-19 00:42:00,
2013-03-18 19:43:00,49.6,25.4,30.03,ENE,68,3.6,3.6,38,0.00,,,0.00,VWS V14.01,2013-03-19 00:43:00,
2013-03-18 19:44:00,49.5,25.2,30.03,ENE,68,3.6,4.0,38,0.00,,,0.00,VWS V14.01,2013-03-19 00:44:00,
2013-03-18 19:45:00,49.5,25.2,30.03,ENE,68,4.0,4.0,38,0.00,,,0.00,VWS V14.01,2013-03-19 00:45:00,
2013-03-18 19:46:00,49.5,25.2,30.03,East,90,7.6,7.6,38,0.00,,,0.00,VWS V14.01,2013-03-19 00:46:00,
2013-03-18 19:47:00,49.5,25.2,30.03,East,90,4.0,7.6,38,0.00,,,0.00,VWS V14.01,2013-03-19 00:47:00,
2013-03-18 19:48:00,49.5,25.2,30.03,East,90,2.7,4.0,38,0.00,,,0.00,VWS V14.01,2013-03-19 00:48:00,
2013-03-18 19:49:00,49.3,25.1,30.03,East,90,3.6,6.3,38,0.00,,,0.00,VWS V14.01,2013-03-19 00:49:00,
2013-03-18 19:50:00,49.3,25.1,30.03,East,90,3.6,6.3,38,0.00,,,0.00,VWS V14.01,2013-03-19 00:50:00,
2013-03-18 19:51:00,49.5,25.2,30.03,East,90,0.0,3.6,38,0.00,,,0.00,VWS V14.01,2013-03-19 00:51:00,
2013-03-18 19:52:00,49.5,25.2,30.03,East,90,0.0,0.0,38,0.00,,,0.00,VWS V14.01,2013-03-19 00:52:00,
2013-03-18 19:53:00,49.3,25.1,30.03,East,90,3.1,3.1,38,0.00,,,0.00,VWS V14.01,2013-03-19 00:53:00,
2013-03-18 19:54:00,49.1,24.9,30.03,East,90,3.6,3.6,38,0.00,,,0.00,VWS V14.01,2013-03-19 00:54:00,
2013-03-18 19:55:00,49.1,24.9,30.03,East,90,0.0,3.6,38,0.00,,,0.00,VWS V14.01,2013-03-19 00:55:00,
2013-03-18 19:56:00,49.1,24.9,30.03,East,90,0.0,3.1,38,0.00,,,0.00,VWS V14.01,2013-03-19 00:56:00,
2013-03-18 19:57:00,49.1,24.9,30.03,East,90,0.0,0.0,38,0.00,,,0.00,VWS V14.01,2013-03-19 00:57:00,
2013-03-18 19:58:00,49.1,24.9,30.03,East,90,0.0,0.0,38,0.00,,,0.00,VWS V14.01,2013-03-19 00:58:00,
2013-03-18 19:59:00,48.9,24.8,30.03,East,90,2.2,3.1,38,0.00,,,0.00,VWS V14.01,2013-03-19 00:59:00,
2013-03-18 20:00:00,48.9,24.8,30.03,East,90,0.0,3.1,38,0.00,,,0.00,VWS V14.01,2013-03-19 01:00:00,
2013-03-18 20:01:00,48.7,24.6,30.03,East,90,0.0,0.0,38,0.00,,,0.00,VWS V14.01,2013-03-19 01:01:00,
2013-03-18 20:02:00,48.7,24.6,30.03,East,90,0.0,0.0,38,0.00,,,0.00,VWS V14.01,2013-03-19 01:02:00,
2013-03-18 20:03:00,48.7,24.6,30.03,East,90,0.0,0.0,38,0.00,,,0.00,VWS V14.01,2013-03-19 01:03:00,
2013-03-18 20:04:00,48.6,24.4,30.03,East,90,2.7,4.0,38,0.00,,,0.00,VWS V14.01,2013-03-19 01:04:00,
2013-03-18 20:05:00,48.6,24.4,30.03,East,90,2.7,4.0,38,0.00,,,0.00,VWS V14.01,2013-03-19 01:05:00,
2013-03-18 20:06:00,48.6,24.4,30.03,East,90,0.0,3.1,38,0.00,,,0.00,VWS V14.01,2013-03-19 01:06:00,
2013-03-18 20:07:00,48.6,24.4,30.03,East,90,2.7,3.1,38,0.00,,,0.00,VWS V14.01,2013-03-19 01:07:00,
2013-03-18 20:08:00,48.6,24.4,30.03,East,90,2.2,2.7,38,0.00,,,0.00,VWS V14.01,2013-03-19 01:08:00,
2013-03-18 20:09:00,48.4,24.3,30.03,East,90,0.0,0.0,38,0.00,,,0.00,VWS V14.01,2013-03-19 01:09:00,
2013-03-18 20:10:00,48.4,24.3,30.03,East,90,0.0,0.0,38,0.00,,,0.00,VWS V14.01,2013-03-19 01:10:00,
2013-03-18 20:11:00,48.4,24.3,30.03,East,90,0.0,0.0,38,0.00,,,0.00,VWS V14.01,2013-03-19 01:11:00,
2013-03-18 20:12:00,48.4,24.3,30.03,East,90,0.0,0.0,38,0.00,,,0.00,VWS V14.01,2013-03-19 01:12:00,
2013-03-18 20:13:00,48.4,24.3,30.03,East,90,0.0,0.0,38,0.00,,,0.00,VWS V14.01,2013-03-19 01:13:00,
2013-03-18 20:14:00,48.2,24.1,30.03,East,90,0.0,0.0,38,0.00,,,0.00,VWS V14.01,2013-03-19 01:14:00,
2013-03-18 20:15:00,48.2,24.1,30.03,East,90,0.0,0.0,38,0.00,,,0.00,VWS V14.01,2013-03-19 01:15:00,
2013-03-18 20:16:00,48.2,24.1,30.03,East,90,0.0,0.0,38,0.00,,,0.00,VWS V14.01,2013-03-19 01:16:00,
2013-03-18 20:17:00,48.0,24.0,30.03,East,90,0.0,0.0,38,0.00,,,0.00,VWS V14.01,2013-03-19 01:17:00,
2013-03-18 20:18:00,48.0,24.0,30.03,East,90,0.0,0.0,38,0.00,,,0.00,VWS V14.01,2013-03-19 01:18:00,
2013-03-18 20:19:00,47.8,23.8,30.03,East,90,0.0,0.0,38,0.00,,,0.00,VWS V14.01,2013-03-19 01:19:00,
2013-03-18 20:20:00,47.8,23.8,30.03,East,90,0.0,0.0,38,0.00,,,0.00,VWS V14.01,2013-03-19 01:20:00,
2013-03-18 20:21:00,47.8,23.8,30.03,East,90,0.0,0.0,38,0.00,,,0.00,VWS V14.01,2013-03-19 01:21:00,
2013-03-18 20:22:00,47.8,23.8,30.03,East,90,0.0,0.0,38,0.00,,,0.00,VWS V14.01,2013-03-19 01:22:00,
2013-03-18 20:23:00,47.5,24.1,30.03,East,90,0.0,0.0,40,0.00,,,0.00,VWS V14.01,2013-03-19 01:23:00,
2013-03-18 20:24:00,47.5,24.1,30.03,East,90,0.0,0.0,40,0.00,,,0.00,VWS V14.01,2013-03-19 01:24:00,
2013-03-18 20:25:00,47.3,23.9,30.03,East,90,0.0,0.0,40,0.00,,,0.00,VWS V14.01,2013-03-19 01:25:00,
2013-03-18 20:27:00,47.3,23.9,30.03,East,90,0.0,0.0,40,0.00,,,0.00,VWS V14.01,2013-03-19 01:27:00,
2013-03-18 20:28:00,46.9,23.6,30.03,East,90,0.0,0.0,40,0.00,,,0.00,VWS V14.01,2013-03-19 01:28:00,
2013-03-18 20:29:00,46.8,23.4,30.03,East,90,0.0,0.0,40,0.00,,,0.00,VWS V14.01,2013-03-19 01:29:00,
2013-03-18 20:30:00,46.8,23.4,30.03,East,90,0.0,0.0,40,0.00,,,0.00,VWS V14.01,2013-03-19 01:30:00,
2013-03-18 20:31:00,46.6,23.3,30.03,East,90,0.0,0.0,40,0.00,,,0.00,VWS V14.01,2013-03-19 01:31:00,
2013-03-18 20:32:00,46.6,23.3,30.03,East,90,0.0,0.0,40,0.00,,,0.00,VWS V14.01,2013-03-19 01:32:00,
2013-03-18 20:33:00,46.6,23.3,30.03,East,90,0.0,0.0,40,0.00,,,0.00,VWS V14.01,2013-03-19 01:33:00,
2013-03-18 20:34:00,45.9,23.2,30.03,East,90,0.0,0.0,40,0.00,,,0.00,VWS V14.01,2013-03-19 01:34:00,
2013-03-18 20:35:00,45.9,23.2,30.03,East,90,0.0,0.0,40,0.00,,,0.00,VWS V14.01,2013-03-19 01:35:00,
2013-03-18 20:36:00,45.9,23.2,30.03,East,90,0.0,0.0,40,0.00,,,0.00,VWS V14.01,2013-03-19 01:36:00,
2013-03-18 20:37:00,45.5,22.9,30.03,East,90,0.0,0.0,40,0.00,,,0.00,VWS V14.01,2013-03-19 01:37:00,
2013-03-18 20:38:00,45.5,22.9,30.03,East,90,0.0,0.0,40,0.00,,,0.00,VWS V14.01,2013-03-19 01:38:00,
2013-03-18 20:39:00,45.5,23.5,30.03,East,90,0.0,0.0,42,0.00,,,0.00,VWS V14.01,2013-03-19 01:39:00,
2013-03-18 20:41:00,45.5,23.5,30.03,East,90,0.0,0.0,42,0.00,,,0.00,VWS V14.01,2013-03-19 01:41:00,
2013-03-18 20:42:00,45.3,23.9,30.03,East,90,0.0,0.0,42,0.00,,,0.00,VWS V14.01,2013-03-19 01:42:00,
2013-03-18 20:43:00,45.1,24.3,30.03,East,90,0.0,0.0,44,0.00,,,0.00,VWS V14.01,2013-03-19 01:43:00,
2013-03-18 20:44:00,45.1,24.3,30.03,East,90,0.0,0.0,44,0.00,,,0.00,VWS V14.01,2013-03-19 01:44:00,
2013-03-18 20:45:00,45.1,24.3,30.03,East,90,0.0,0.0,44,0.00,,,0.00,VWS V14.01,2013-03-19 01:45:00,
2013-03-18 20:46:00,45.1,24.3,30.03,East,90,0.0,0.0,44,0.00,,,0.00,VWS V14.01,2013-03-19 01:46:00,
2013-03-18 20:47:00,45.1,24.3,30.03,East,90,0.0,0.0,44,0.00,,,0.00,VWS V14.01,2013-03-19 01:47:00,
2013-03-18 20:48:00,45.0,24.1,30.03,East,90,0.0,0.0,44,0.00,,,0.00,VWS V14.01,2013-03-19 01:48:00,
2013-03-18 20:49:00,44.8,23.9,30.03,East,90,0.0,0.0,44,0.00,,,0.00,VWS V14.01,2013-03-19 01:49:00,
2013-03-18 20:50:00,44.8,23.9,30.03,East,90,0.0,0.0,44,0.00,,,0.00,VWS V14.01,2013-03-19 01:50:00,
2013-03-18 20:51:00,44.8,23.9,30.03,East,90,0.0,0.0,44,0.00,,,0.00,VWS V14.01,2013-03-19 01:51:00,
2013-03-18 20:52:00,44.6,23.8,30.03,East,90,0.0,0.0,44,0.00,,,0.00,VWS V14.01,2013-03-19 01:52:00,
2013-03-18 20:53:00,44.6,23.8,30.03,East,90,0.0,0.0,44,0.00,,,0.00,VWS V14.01,2013-03-19 01:53:00,
2013-03-18 20:54:00,44.6,23.8,30.03,East,90,0.0,0.0,44,0.00,,,0.00,VWS V14.01,2013-03-19 01:54:00,
2013-03-18 20:55:00,44.6,23.8,30.03,East,90,0.0,0.0,44,0.00,,,0.00,VWS V14.01,2013-03-19 01:55:00,
2013-03-18 20:56:00,44.6,23.8,30.03,East,90,0.0,0.0,44,0.00,,,0.00,VWS V14.01,2013-03-19 01:56:00,
2013-03-18 20:57:00,44.2,23.5,30.03,East,90,0.0,0.0,44,0.00,,,0.00,VWS V14.01,2013-03-19 01:57:00,
2013-03-18 20:58:00,44.1,23.3,30.03,East,90,0.0,0.0,44,0.00,,,0.00,VWS V14.01,2013-03-19 01:58:00,
2013-03-18 20:59:00,43.7,23.0,30.03,East,90,0.0,0.0,44,0.00,,,0.00,VWS V14.01,2013-03-19 01:59:00,
2013-03-18 21:00:00,43.7,23.0,30.03,East,90,0.0,0.0,44,0.00,,,0.00,VWS V14.01,2013-03-19 02:00:00,
2013-03-18 21:01:00,43.5,22.8,30.03,East,90,0.0,0.0,44,0.00,,,0.00,VWS V14.01,2013-03-19 02:01:00,
2013-03-18 21:02:00,43.5,22.8,30.03,East,90,0.0,0.0,44,0.00,,,0.00,VWS V14.01,2013-03-19 02:02:00,
2013-03-18 21:03:00,43.3,22.6,30.03,East,90,0.0,0.0,44,0.00,,,0.00,VWS V14.01,2013-03-19 02:03:00,
2013-03-18 21:04:00,43.3,22.6,30.03,East,90,0.0,0.0,44,0.00,,,0.00,VWS V14.01,2013-03-19 02:04:00,
2013-03-18 21:05:00,43.5,23.9,30.03,East,90,0.0,0.0,46,0.00,,,0.00,VWS V14.01,2013-03-19 02:05:00,
2013-03-18 21:06:00,43.5,24.4,30.03,East,90,0.0,0.0,46,0.00,,,0.00,VWS V14.01,2013-03-19 02:06:00,
2013-03-18 21:07:00,43.3,24.2,30.03,East,90,0.0,0.0,46,0.00,,,0.00,VWS V14.01,2013-03-19 02:07:00,
2013-03-18 21:08:00,43.2,24.1,30.03,East,90,0.0,0.0,46,0.00,,,0.00,VWS V14.01,2013-03-19 02:08:00,
2013-03-18 21:09:00,43.0,23.4,30.03,East,90,0.0,0.0,46,0.00,,,0.00,VWS V14.01,2013-03-19 02:09:00,
2013-03-18 21:10:00,42.8,23.2,30.03,East,90,0.0,0.0,46,0.00,,,0.00,VWS V14.01,2013-03-19 02:10:00,
2013-03-18 21:11:00,42.8,23.2,30.03,East,90,0.0,0.0,46,0.00,,,0.00,VWS V14.01,2013-03-19 02:11:00,
2013-03-18 21:12:00,42.6,23.0,30.03,East,90,0.0,0.0,46,0.00,,,0.00,VWS V14.01,2013-03-19 02:12:00,
2013-03-18 21:13:00,42.6,23.0,30.03,East,90,0.0,0.0,46,0.00,,,0.00,VWS V14.01,2013-03-19 02:13:00,
2013-03-18 21:14:00,42.6,24.6,30.03,East,90,0.0,0.0,48,0.00,,,0.00,VWS V14.01,2013-03-19 02:14:00,
2013-03-18 21:15:00,42.6,24.6,30.03,East,90,0.0,0.0,48,0.00,,,0.00,VWS V14.01,2013-03-19 02:15:00,
2013-03-18 21:16:00,42.6,24.6,30.03,East,90,0.0,0.0,48,0.00,,,0.00,VWS V14.01,2013-03-19 02:16:00,
2013-03-18 21:17:00,42.6,24.6,30.03,East,90,0.0,0.0,48,0.00,,,0.00,VWS V14.01,2013-03-19 02:17:00,
2013-03-18 21:18:00,42.4,24.4,30.03,East,90,0.0,0.0,48,0.00,,,0.00,VWS V14.01,2013-03-19 02:18:00,
2013-03-18 21:19:00,42.6,24.1,30.03,East,90,0.0,0.0,48,0.00,,,0.00,VWS V14.01,2013-03-19 02:19:00,
2013-03-18 21:20:00,42.8,23.7,30.03,East,90,0.0,0.0,46,0.00,,,0.00,VWS V14.01,2013-03-19 02:20:00,
2013-03-18 21:21:00,42.8,23.7,30.06,East,90,0.0,0.0,46,0.00,,,0.00,VWS V14.01,2013-03-19 02:21:00,
2013-03-18 21:22:00,42.8,23.7,30.06,East,90,0.0,0.0,46,0.00,,,0.00,VWS V14.01,2013-03-19 02:22:00,
2013-03-18 21:23:00,42.4,23.9,30.06,East,90,0.0,0.0,48,0.00,,,0.00,VWS V14.01,2013-03-19 02:23:00,
2013-03-18 21:24:00,41.7,24.2,30.06,East,90,0.0,0.0,50,0.00,,,0.00,VWS V14.01,2013-03-19 02:24:00,
2013-03-18 21:25:00,41.7,24.2,30.06,East,90,0.0,0.0,50,0.00,,,0.00,VWS V14.01,2013-03-19 02:25:00,
2013-03-18 21:26:00,42.3,23.7,30.06,East,90,0.0,0.0,48,0.00,,,0.00,VWS V14.01,2013-03-19 02:26:00,
2013-03-18 21:27:00,42.4,23.9,30.06,East,90,0.0,0.0,48,0.00,,,0.00,VWS V14.01,2013-03-19 02:27:00,
2013-03-18 21:28:00,42.4,23.9,30.06,East,90,0.0,0.0,48,0.00,,,0.00,VWS V14.01,2013-03-19 02:28:00,
2013-03-18 21:29:00,42.3,24.2,30.06,East,90,0.0,0.0,48,0.00,,,0.00,VWS V14.01,2013-03-19 02:29:00,
2013-03-18 21:30:00,42.3,24.2,30.06,East,90,0.0,0.0,48,0.00,,,0.00,VWS V14.01,2013-03-19 02:30:00,
2013-03-18 21:31:00,42.1,24.6,30.06,East,90,0.0,0.0,50,0.00,,,0.00,VWS V14.01,2013-03-19 02:31:00,
2013-03-18 21:32:00,41.7,24.2,30.06,East,90,0.0,0.0,50,0.00,,,0.00,VWS V14.01,2013-03-19 02:32:00,
2013-03-18 21:33:00,41.5,24.1,30.06,East,90,0.0,0.0,50,0.00,,,0.00,VWS V14.01,2013-03-19 02:33:00,
2013-03-18 21:34:00,41.4,24.4,30.06,East,90,0.0,0.0,50,0.00,,,0.00,VWS V14.01,2013-03-19 02:34:00,
2013-03-18 21:35:00,41.2,24.2,30.06,East,90,0.0,0.0,50,0.00,,,0.00,VWS V14.01,2013-03-19 02:35:00,
2013-03-18 21:36:00,41.2,24.2,30.06,East,90,0.0,0.0,50,0.00,,,0.00,VWS V14.01,2013-03-19 02:36:00,
2013-03-18 21:37:00,41.2,24.2,30.06,East,90,0.0,0.0,50,0.00,,,0.00,VWS V14.01,2013-03-19 02:37:00,
2013-03-18 21:38:00,41.2,24.2,30.06,East,90,0.0,0.0,50,0.00,,,0.00,VWS V14.01,2013-03-19 02:38:00,
2013-03-18 21:39:00,41.2,24.2,30.06,East,90,0.0,0.0,50,0.00,,,0.00,VWS V14.01,2013-03-19 02:39:00,
2013-03-18 21:40:00,41.2,24.2,30.06,East,90,0.0,0.0,50,0.00,,,0.00,VWS V14.01,2013-03-19 02:40:00,
2013-03-18 21:41:00,41.2,24.2,30.06,East,90,0.0,0.0,50,0.00,,,0.00,VWS V14.01,2013-03-19 02:41:00,
2013-03-18 21:42:00,41.0,24.5,30.06,East,90,0.0,0.0,52,0.00,,,0.00,VWS V14.01,2013-03-19 02:42:00,
2013-03-18 21:43:00,40.8,24.8,30.06,East,90,0.0,0.0,52,0.00,,,0.00,VWS V14.01,2013-03-19 02:43:00,
2013-03-18 21:44:00,40.6,24.6,30.06,East,90,0.0,0.0,52,0.00,,,0.00,VWS V14.01,2013-03-19 02:44:00,
2013-03-18 21:45:00,40.6,24.6,30.06,East,90,0.0,0.0,52,0.00,,,0.00,VWS V14.01,2013-03-19 02:45:00,
2013-03-18 21:46:00,40.5,24.0,30.06,East,90,0.0,0.0,52,0.00,,,0.00,VWS V14.01,2013-03-19 02:46:00,
2013-03-18 21:47:00,40.5,24.0,30.06,East,90,0.0,0.0,52,0.00,,,0.00,VWS V14.01,2013-03-19 02:47:00,
2013-03-18 21:48:00,40.5,24.0,30.06,East,90,0.0,0.0,52,0.00,,,0.00,VWS V14.01,2013-03-19 02:48:00,
2013-03-18 21:49:00,40.3,23.8,30.06,East,90,0.0,0.0,52,0.00,,,0.00,VWS V14.01,2013-03-19 02:49:00,
2013-03-18 21:50:00,40.3,23.8,30.06,East,90,0.0,0.0,52,0.00,,,0.00,VWS V14.01,2013-03-19 02:50:00,
2013-03-18 21:51:00,40.1,24.1,30.06,East,90,0.0,0.0,52,0.00,,,0.00,VWS V14.01,2013-03-19 02:51:00,
2013-03-18 21:52:00,40.1,24.1,30.06,East,90,0.0,0.0,52,0.00,,,0.00,VWS V14.01,2013-03-19 02:52:00,
2013-03-18 21:53:00,40.1,24.1,30.06,East,90,0.0,0.0,52,0.00,,,0.00,VWS V14.01,2013-03-19 02:53:00,
2013-03-18 21:54:00,40.3,23.8,30.06,East,90,0.0,0.0,52,0.00,,,0.00,VWS V14.01,2013-03-19 02:54:00,
2013-03-18 21:55:00,40.3,23.8,30.06,East,90,0.0,0.0,52,0.00,,,0.00,VWS V14.01,2013-03-19 02:55:00,
2013-03-18 21:56:00,40.3,24.3,30.06,East,90,0.0,0.0,52,0.00,,,0.00,VWS V14.01,2013-03-19 02:56:00,
2013-03-18 21:57:00,40.3,24.3,30.06,East,90,0.0,0.0,52,0.00,,,0.00,VWS V14.01,2013-03-19 02:57:00,
2013-03-18 21:58:00,39.9,24.0,30.06,East,90,0.0,0.0,52,0.00,,,0.00,VWS V14.01,2013-03-19 02:58:00,
2013-03-18 21:59:00,39.6,23.6,30.06,East,90,0.0,0.0,52,0.00,,,0.00,VWS V14.01,2013-03-19 02:59:00,
2013-03-18 22:00:00,39.6,23.6,30.06,East,90,0.0,0.0,52,0.00,,,0.00,VWS V14.01,2013-03-19 03:00:00,
2013-03-18 22:01:00,39.4,23.9,30.06,East,90,0.0,0.0,54,0.00,,,0.00,VWS V14.01,2013-03-19 03:01:00,
2013-03-18 22:02:00,39.4,23.9,30.06,East,90,0.0,0.0,54,0.00,,,0.00,VWS V14.01,2013-03-19 03:02:00,
2013-03-18 22:03:00,39.2,23.8,30.06,East,90,0.0,0.0,54,0.00,,,0.00,VWS V14.01,2013-03-19 03:03:00,
2013-03-18 22:04:00,39.4,23.9,30.06,East,90,0.0,0.0,54,0.00,,,0.00,VWS V14.01,2013-03-19 03:04:00,
2013-03-18 22:05:00,39.2,24.2,30.06,East,90,0.0,0.0,54,0.00,,,0.00,VWS V14.01,2013-03-19 03:05:00,
2013-03-18 22:06:00,39.0,24.0,30.09,East,90,0.0,0.0,54,0.00,,,0.00,VWS V14.01,2013-03-19 03:06:00,
2013-03-18 22:07:00,39.0,24.0,30.09,East,90,0.0,0.0,54,0.00,,,0.00,VWS V14.01,2013-03-19 03:07:00,
2013-03-18 22:08:00,38.8,23.9,30.09,East,90,0.0,0.0,54,0.00,,,0.00,VWS V14.01,2013-03-19 03:08:00,
2013-03-18 22:09:00,38.8,23.9,30.09,East,90,0.0,0.0,54,0.00,,,0.00,VWS V14.01,2013-03-19 03:09:00,
2013-03-18 22:10:00,38.8,23.9,30.09,East,90,0.0,0.0,54,0.00,,,0.00,VWS V14.01,2013-03-19 03:10:00,
2013-03-18 22:11:00,38.8,24.3,30.09,East,90,0.0,0.0,56,0.00,,,0.00,VWS V14.01,2013-03-19 03:11:00,
2013-03-18 22:12:00,38.8,24.3,30.09,East,90,0.0,0.0,56,0.00,,,0.00,VWS V14.01,2013-03-19 03:12:00,
2013-03-18 22:13:00,38.8,24.7,30.09,East,90,0.0,0.0,56,0.00,,,0.00,VWS V14.01,2013-03-19 03:13:00,
2013-03-18 22:14:00,38.8,24.7,30.09,East,90,0.0,0.0,56,0.00,,,0.00,VWS V14.01,2013-03-19 03:14:00,
2013-03-18 22:15:00,38.8,24.7,30.09,East,90,0.0,0.0,56,0.00,,,0.00,VWS V14.01,2013-03-19 03:15:00,
2013-03-18 22:16:00,38.8,24.7,30.09,East,90,0.0,0.0,56,0.00,,,0.00,VWS V14.01,2013-03-19 03:16:00,
2013-03-18 22:17:00,39.0,25.3,30.09,East,90,0.0,0.0,58,0.00,,,0.00,VWS V14.01,2013-03-19 03:17:00,
2013-03-18 22:18:00,38.8,25.1,30.09,East,90,0.0,0.0,58,0.00,,,0.00,VWS V14.01,2013-03-19 03:18:00,
2013-03-18 22:19:00,38.5,25.2,30.09,East,90,0.0,0.0,58,0.00,,,0.00,VWS V14.01,2013-03-19 03:19:00,
2013-03-18 22:20:00,38.3,25.0,30.09,East,90,0.0,0.0,58,0.00,,,0.00,VWS V14.01,2013-03-19 03:20:00,
2013-03-18 22:21:00,38.3,25.0,30.09,East,90,0.0,0.0,58,0.00,,,0.00,VWS V14.01,2013-03-19 03:21:00,
2013-03-18 22:22:00,38.3,25.0,30.09,East,90,0.0,0.0,58,0.00,,,0.00,VWS V14.01,2013-03-19 03:22:00,
2013-03-18 22:23:00,38.3,25.0,30.09,East,90,0.0,0.0,58,0.00,,,0.00,VWS V14.01,2013-03-19 03:23:00,
2013-03-18 22:24:00,38.3,25.0,30.09,East,90,0.0,0.0,58,0.00,,,0.00,VWS V14.01,2013-03-19 03:24:00,
2013-03-18 22:25:00,38.3,25.0,30.09,East,90,0.0,0.0,58,0.00,,,0.00,VWS V14.01,2013-03-19 03:25:00,
2013-03-18 22:26:00,38.3,24.6,30.09,East,90,0.0,0.0,58,0.00,,,0.00,VWS V14.01,2013-03-19 03:26:00,
2013-03-18 22:27:00,38.1,24.5,30.09,East,90,0.0,0.0,58,0.00,,,0.00,VWS V14.01,2013-03-19 03:27:00,
2013-03-18 22:28:00,37.9,24.3,30.09,East,90,0.0,0.0,58,0.00,,,0.00,VWS V14.01,2013-03-19 03:28:00,
2013-03-18 22:29:00,37.9,24.3,30.09,East,90,0.0,0.0,58,0.00,,,0.00,VWS V14.01,2013-03-19 03:29:00,
2013-03-18 22:30:00,37.9,24.3,30.09,East,90,0.0,0.0,58,0.00,,,0.00,VWS V14.01,2013-03-19 03:30:00,
2013-03-18 22:31:00,37.8,24.5,30.09,East,90,0.0,0.0,58,0.00,,,0.00,VWS V14.01,2013-03-19 03:31:00,
2013-03-18 22:32:00,37.6,24.8,30.09,East,90,0.0,0.0,60,0.00,,,0.00,VWS V14.01,2013-03-19 03:32:00,
2013-03-18 22:33:00,37.6,24.8,30.09,East,90,0.0,0.0,60,0.00,,,0.00,VWS V14.01,2013-03-19 03:33:00,
2013-03-18 22:34:00,37.6,24.8,30.09,East,90,0.0,0.0,60,0.00,,,0.00,VWS V14.01,2013-03-19 03:34:00,
2013-03-18 22:35:00,37.4,25.0,30.09,East,90,0.0,0.0,60,0.00,,,0.00,VWS V14.01,2013-03-19 03:35:00,
2013-03-18 22:36:00,37.2,24.8,30.09,East,90,0.0,0.0,60,0.00,,,0.00,VWS V14.01,2013-03-19 03:36:00,
2013-03-18 22:37:00,37.2,24.8,30.09,East,90,0.0,0.0,60,0.00,,,0.00,VWS V14.01,2013-03-19 03:37:00,
2013-03-18 22:38:00,37.0,25.0,30.09,East,90,0.0,0.0,62,0.00,,,0.00,VWS V14.01,2013-03-19 03:38:00,
2013-03-18 22:39:00,36.9,24.9,30.09,ESE,112,2.7,3.1,62,0.00,,,0.00,VWS V14.01,2013-03-19 03:39:00,
2013-03-18 22:40:00,36.9,24.9,30.09,ESE,112,2.7,3.1,62,0.00,,,0.00,VWS V14.01,2013-03-19 03:40:00,
2013-03-18 22:41:00,36.7,25.1,30.09,SE,135,3.1,3.1,62,0.00,,,0.00,VWS V14.01,2013-03-19 03:41:00,
2013-03-18 22:42:00,36.7,25.1,30.09,SE,135,3.1,3.1,62,0.00,,,0.00,VWS V14.01,2013-03-19 03:42:00,
2013-03-18 22:43:00,36.7,25.1,30.09,SE,135,3.1,3.1,62,0.00,,,0.00,VWS V14.01,2013-03-19 03:43:00,
2013-03-18 22:44:00,37.2,25.6,30.09,SE,135,3.1,3.1,62,0.00,,,0.00,VWS V14.01,2013-03-19 03:44:00,
2013-03-18 22:45:00,37.2,25.6,30.09,SE,135,2.7,3.1,62,0.00,,,0.00,VWS V14.01,2013-03-19 03:45:00,
2013-03-18 22:46:00,37.0,25.4,30.09,SE,135,2.2,2.7,62,0.00,,,0.00,VWS V14.01,2013-03-19 03:46:00,
2013-03-18 22:47:00,37.0,25.4,30.09,SE,135,2.7,2.7,62,0.00,,,0.00,VWS V14.01,2013-03-19 03:47:00,
2013-03-18 22:48:00,37.0,25.4,30.09,SE,135,2.2,2.7,62,0.00,,,0.00,VWS V14.01,2013-03-19 03:48:00,
2013-03-18 22:49:00,37.0,25.4,30.09,SE,135,0.0,0.0,62,0.00,,,0.00,VWS V14.01,2013-03-19 03:49:00,
2013-03-18 22:51:00,36.7,25.5,30.09,SE,135,0.0,0.0,64,0.00,,,0.00,VWS V14.01,2013-03-19 03:51:00,
2013-03-18 22:52:00,36.7,25.5,30.09,SE,135,0.0,0.0,64,0.00,,,0.00,VWS V14.01,2013-03-19 03:52:00,
2013-03-18 22:53:00,36.5,25.3,30.09,SE,135,0.0,0.0,64,0.00,,,0.00,VWS V14.01,2013-03-19 03:53:00,
2013-03-18 22:54:00,36.5,25.7,30.09,SE,135,0.0,0.0,64,0.00,,,0.00,VWS V14.01,2013-03-19 03:54:00,
2013-03-18 22:55:00,36.5,25.7,30.09,SE,135,0.0,0.0,64,0.00,,,0.00,VWS V14.01,2013-03-19 03:55:00,
2013-03-18 22:56:00,36.5,25.7,30.09,SE,135,0.0,0.0,64,0.00,,,0.00,VWS V14.01,2013-03-19 03:56:00,
2013-03-18 22:57:00,36.3,25.5,30.09,SE,135,0.0,0.0,64,0.00,,,0.00,VWS V14.01,2013-03-19 03:57:00,
2013-03-18 22:58:00,36.3,25.5,30.09,SE,135,0.0,0.0,64,0.00,,,0.00,VWS V14.01,2013-03-19 03:58:00,
2013-03-18 22:59:00,36.1,25.7,30.09,SE,135,0.0,0.0,66,0.00,,,0.00,VWS V14.01,2013-03-19 03:59:00,
2013-03-18 23:00:00,36.1,25.7,30.09,SE,135,0.0,0.0,66,0.00,,,0.00,VWS V14.01,2013-03-19 04:00:00,
2013-03-18 23:01:00,36.1,25.7,30.09,SE,135,0.0,0.0,66,0.00,,,0.00,VWS V14.01,2013-03-19 04:01:00,
2013-03-18 23:02:00,36.1,25.7,30.09,SE,135,0.0,0.0,66,0.00,,,0.00,VWS V14.01,2013-03-19 04:02:00,
2013-03-18 23:03:00,36.3,25.9,30.09,SE,135,0.0,0.0,66,0.00,,,0.00,VWS V14.01,2013-03-19 04:03:00,
2013-03-18 23:04:00,36.3,25.9,30.09,SE,135,0.0,0.0,66,0.00,,,0.00,VWS V14.01,2013-03-19 04:04:00,
2013-03-18 23:05:00,36.1,26.1,30.09,SE,135,0.0,0.0,66,0.00,,,0.00,VWS V14.01,2013-03-19 04:05:00,
2013-03-18 23:06:00,36.1,26.1,30.09,SE,135,0.0,0.0,66,0.00,,,0.00,VWS V14.01,2013-03-19 04:06:00,
2013-03-18 23:07:00,35.8,25.7,30.09,SE,135,0.0,0.0,66,0.00,,,0.00,VWS V14.01,2013-03-19 04:07:00,
2013-03-18 23:08:00,35.8,25.7,30.09,SE,135,0.0,0.0,66,0.00,,,0.00,VWS V14.01,2013-03-19 04:08:00,
2013-03-18 23:09:00,35.8,25.7,30.09,SE,135,0.0,0.0,66,0.00,,,0.00,VWS V14.01,2013-03-19 04:09:00,
2013-03-18 23:10:00,36.0,25.9,30.09,SE,135,0.0,0.0,66,0.00,,,0.00,VWS V14.01,2013-03-19 04:10:00,
2013-03-18 23:11:00,36.0,26.3,30.09,SE,135,0.0,0.0,68,0.00,,,0.00,VWS V14.01,2013-03-19 04:11:00,
2013-03-18 23:12:00,36.1,26.4,30.09,SE,135,0.0,0.0,68,0.00,,,0.00,VWS V14.01,2013-03-19 04:12:00,
2013-03-18 23:13:00,36.1,26.4,30.09,SE,135,0.0,0.0,68,0.00,,,0.00,VWS V14.01,2013-03-19 04:13:00,
2013-03-18 23:14:00,36.1,26.4,30.09,SE,135,0.0,0.0,68,0.00,,,0.00,VWS V14.01,2013-03-19 04:14:00,
2013-03-18 23:15:00,36.0,26.6,30.09,SE,135,0.0,0.0,68,0.00,,,0.00,VWS V14.01,2013-03-19 04:15:00,
2013-03-18 23:16:00,36.0,26.6,30.09,SE,135,0.0,0.0,68,0.00,,,0.00,VWS V14.01,2013-03-19 04:16:00,
2013-03-18 23:17:00,36.0,26.6,30.09,SE,135,0.0,0.0,68,0.00,,,0.00,VWS V14.01,2013-03-19 04:17:00,
2013-03-18 23:18:00,35.8,26.4,30.09,SE,135,0.0,0.0,68,0.00,,,0.00,VWS V14.01,2013-03-19 04:18:00,
2013-03-18 23:19:00,35.6,26.3,30.09,SE,135,0.0,0.0,68,0.00,,,0.00,VWS V14.01,2013-03-19 04:19:00,
2013-03-18 23:20:00,35.6,26.3,30.09,SE,135,0.0,0.0,68,0.00,,,0.00,VWS V14.01,2013-03-19 04:20:00,
2013-03-18 23:21:00,35.6,26.3,30.09,SE,135,0.0,0.0,68,0.00,,,0.00,VWS V14.01,2013-03-19 04:21:00,
2013-03-18 23:22:00,35.4,26.5,30.09,SE,135,0.0,0.0,70,0.00,,,0.00,VWS V14.01,2013-03-19 04:22:00,
2013-03-18 23:23:00,35.6,26.6,30.09,SE,135,0.0,0.0,70,0.00,,,0.00,VWS V14.01,2013-03-19 04:23:00,
2013-03-18 23:24:00,35.6,26.6,30.09,SE,135,0.0,0.0,70,0.00,,,0.00,VWS V14.01,2013-03-19 04:24:00,
2013-03-18 23:25:00,35.2,26.6,30.09,SE,135,0.0,0.0,70,0.00,,,0.00,VWS V14.01,2013-03-19 04:25:00,
2013-03-18 23:26:00,35.2,26.6,30.09,SE,135,0.0,0.0,70,0.00,,,0.00,VWS V14.01,2013-03-19 04:26:00,
2013-03-18 23:27:00,35.4,26.8,30.09,SE,135,0.0,0.0,70,0.00,,,0.00,VWS V14.01,2013-03-19 04:27:00,
2013-03-18 23:28:00,35.4,26.8,30.09,SE,135,0.0,0.0,70,0.00,,,0.00,VWS V14.01,2013-03-19 04:28:00,
2013-03-18 23:29:00,35.4,27.1,30.09,SE,135,0.0,0.0,72,0.00,,,0.00,VWS V14.01,2013-03-19 04:29:00,
2013-03-18 23:30:00,35.4,27.1,30.09,SE,135,0.0,0.0,72,0.00,,,0.00,VWS V14.01,2013-03-19 04:30:00,
2013-03-18 23:31:00,35.4,27.1,30.09,SE,135,0.0,0.0,72,0.00,,,0.00,VWS V14.01,2013-03-19 04:31:00,
2013-03-18 23:32:00,35.2,27.0,30.09,SE,135,0.0,0.0,72,0.00,,,0.00,VWS V14.01,2013-03-19 04:32:00,
2013-03-18 23:33:00,35.1,26.8,30.09,SE,135,0.0,0.0,72,0.00,,,0.00,VWS V14.01,2013-03-19 04:33:00,
2013-03-18 23:34:00,35.2,27.0,30.09,SE,135,0.0,0.0,72,0.00,,,0.00,VWS V14.01,2013-03-19 04:34:00,
2013-03-18 23:35:00,35.2,27.0,30.09,SE,135,0.0,0.0,72,0.00,,,0.00,VWS V14.01,2013-03-19 04:35:00,
2013-03-18 23:36:00,35.2,27.0,30.09,SE,135,0.0,0.0,72,0.00,,,0.00,VWS V14.01,2013-03-19 04:36:00,
2013-03-18 23:37:00,35.2,27.0,30.09,SE,135,0.0,0.0,72,0.00,,,0.00,VWS V14.01,2013-03-19 04:37:00,
2013-03-18 23:38:00,35.2,27.0,30.09,SE,135,0.0,0.0,72,0.00,,,0.00,VWS V14.01,2013-03-19 04:38:00,
2013-03-18 23:39:00,35.2,27.0,30.09,SE,135,0.0,0.0,72,0.00,,,0.00,VWS V14.01,2013-03-19 04:39:00,
2013-03-18 23:40:00,34.9,26.6,30.09,SE,135,0.0,0.0,72,0.00,,,0.00,VWS V14.01,2013-03-19 04:40:00,
2013-03-18 23:41:00,34.9,27.0,30.09,SE,135,0.0,0.0,72,0.00,,,0.00,VWS V14.01,2013-03-19 04:41:00,
2013-03-18 23:42:00,34.9,27.0,30.09,SE,135,0.0,0.0,72,0.00,,,0.00,VWS V14.01,2013-03-19 04:42:00,
2013-03-18 23:43:00,34.9,27.0,30.09,SE,135,0.0,0.0,72,0.00,,,0.00,VWS V14.01,2013-03-19 04:43:00,
2013-03-18 23:44:00,34.9,27.0,30.09,SE,135,0.0,0.0,72,0.00,,,0.00,VWS V14.01,2013-03-19 04:44:00,
2013-03-18 23:45:00,34.7,26.8,30.09,SE,135,0.0,0.0,72,0.00,,,0.00,VWS V14.01,2013-03-19 04:45:00,
2013-03-18 23:46:00,34.7,26.8,30.09,SE,135,0.0,0.0,72,0.00,,,0.00,VWS V14.01,2013-03-19 04:46:00,
2013-03-18 23:47:00,34.7,26.8,30.09,SE,135,0.0,0.0,72,0.00,,,0.00,VWS V14.01,2013-03-19 04:47:00,
2013-03-18 23:48:00,34.7,26.8,30.09,SE,135,0.0,0.0,72,0.00,,,0.00,VWS V14.01,2013-03-19 04:48:00,
2013-03-18 23:49:00,34.3,26.4,30.09,SE,135,0.0,0.0,72,0.00,,,0.00,VWS V14.01,2013-03-19 04:49:00,
2013-03-18 23:50:00,34.3,26.4,30.09,SE,135,0.0,0.0,72,0.00,,,0.00,VWS V14.01,2013-03-19 04:50:00,
2013-03-18 23:51:00,34.3,26.4,30.09,SE,135,0.0,0.0,72,0.00,,,0.00,VWS V14.01,2013-03-19 04:51:00,
2013-03-18 23:52:00,34.3,26.4,30.09,SE,135,0.0,0.0,72,0.00,,,0.00,VWS V14.01,2013-03-19 04:52:00,
2013-03-18 23:53:00,34.3,26.4,30.09,SE,135,0.0,0.0,72,0.00,,,0.00,VWS V14.01,2013-03-19 04:53:00,
2013-03-18 23:54:00,34.3,26.4,30.09,SE,135,0.0,0.0,72,0.00,,,0.00,VWS V14.01,2013-03-19 04:54:00,
2013-03-18 23:55:00,34.3,26.8,30.09,SE,135,0.0,0.0,74,0.00,,,0.00,VWS V14.01,2013-03-19 04:55:00,
2013-03-18 23:56:00,34.5,27.3,30.09,SE,135,0.0,0.0,74,0.00,,,0.00,VWS V14.01,2013-03-19 04:56:00,
2013-03-18 23:57:00,34.3,27.1,30.09,SE,135,0.0,0.0,74,0.00,,,0.00,VWS V14.01,2013-03-19 04:57:00,
2013-03-18 23:58:00,34.5,27.3,30.09,SE,135,0.0,0.0,74,0.00,,,0.00,VWS V14.01,2013-03-19 04:58:00,
2013-03-18 23:59:00,34.7,27.4,30.09,SE,135,0.0,0.0,74,0.00,,,0.00,VWS V14.01,2013-03-19 04:59:00,